[[{"header":{"parameterUnit":"m.s-1","parameterCategory":1,"la1":31.0,"la2":29.5877,"lo1":-88.7671,"lo2":-86.6584,"dy":0.0162,"dx":0.0185,"nx":115,"ny":88,"refTime":"2025-06-16T18:00:00:Z","depth":0,"parameterNumber":2,"parameterNumberName":"U-component_of_WINDS"},"data":[0.0,0.0,0.0,0.0,0.0,0.0,0.0,0.0,0.0,0.0,0.0,0.0,0.0,0.0,0.0,0.0,0.0,0.0,0.0,0.0,0.0,0.0,0.0,0.0,0.0,0.0,0.0,0.0,0.0,0.0,0.0,0.0,0.0,0.0,0.0,0.0,0.0,0.0,0.0,0.0,0.0,0.0,0.0,0.0,0.0,0.0,0.0,0.0,0.0,0.0,0.0,0.0,0.0,0.0,0.0,0.0,0.0,0.0,0.0,0.0,0.0,0.0,0.0,0.0,0.0,0.0,0.0,0.0,0.0,0.0,0.0,0.0,0.0,0.0,0.0,0.0,0.0,0.0,0.0,0.0,0.0,0.0,0.0,0.0,0.0,0.0,0.0,0.0,0.0,0.0,0.0,0.0,0.0,0.0,0.0,0.0,0.0,0.0,0.0,0.0,0.0,0.0,0.0,0.0,0.0,0.0,0.0,0.0,0.0,0.0,0.0,0.0,0.0,0.0,0.0,0.0,0.0,0.0,0.0,0.0,0.0,0.0,0.0,0.0,0.0,0.0,0.0,0.0,0.0,0.0,0.0,0.0,0.0,0.0,0.0,0.0,0.0,0.0,0.0,0.0,0.0,0.0,0.0,0.0,0.0,0.0,0.0,0.0,0.0,0.0,0.0,0.0,0.0,0.0,0.0,0.0,0.0,0.0,0.0,0.0,0.0,0.0,0.0,0.0,0.0,0.0,0.0,0.0,0.0,0.0,0.0,0.0,0.0,0.0,0.0,0.0,0.0,0.0,0.0,0.0,0.0,0.0,0.0,0.0,0.0,0.0,0.0,0.0,0.0,0.0,0.0,0.0,0.0,0.0,0.0,0.0,0.0,0.0,0.0,0.0,0.0,0.0,0.0,0.0,0.0,0.0,0.0,0.0,0.0,0.0,0.0,0.0,0.0,0.0,0.0,0.0,0.0,0.0,0.0,0.0,0.0,0.0,0.0,0.0,0.0,0.0,0.0,0.0,0.0,0.0,0.0,0.0,0.0,0.0,0.0,0.0,0.0,0.0,0.0,0.0,0.0,0.0,0.0,0.0,0.0,0.0,0.0,0.0,0.0,0.0,0.0,0.0,0.0,0.0,0.0,0.0,0.0,0.0,0.0,0.0,0.0,0.0,0.0,0.0,0.0,0.0,0.0,0.0,0.0,0.0,0.0,0.0,0.0,0.0,0.0,0.0,0.0,0.0,0.0,0.0,0.0,0.0,0.0,0.0,0.0,0.0,0.0,0.0,0.0,0.0,0.0,0.0,0.0,0.0,0.0,0.0,0.0,0.0,0.0,0.0,0.0,0.0,0.0,0.0,0.0,0.0,0.0,0.0,0.0,0.0,0.0,0.0,0.0,0.0,0.0,0.0,0.0,0.0,0.0,0.0,0.0,0.0,0.0,0.0,0.0,0.0,0.0,0.0,0.0,0.0,0.0,0.0,0.0,0.0,0.0,0.0,0.0,0.0,0.0,0.0,0.0,0.0,0.0,0.0,0.0,0.0,0.0,0.0,0.0,0.0,0.0,0.0,0.0,0.0,0.0,0.0,0.0,0.0,0.0,0.0,0.0,0.0,0.0,0.0,0.0,0.0,0.0,0.0,0.0,0.0,0.0,0.0,0.0,0.0,0.0,0.0,0.0,0.0,0.0,0.0,0.0,0.0,0.0,0.0,0.0,0.0,0.0,0.0,0.0,0.0,0.0,0.0,0.0,0.0,0.0,0.0,0.0,0.0,0.0,0.0,0.0,0.0,0.0,0.0,0.0,0.0,0.0,0.0,0.0,0.0,0.0,0.0,0.0,0.0,0.0,0.0,0.0,0.0,0.0,0.0,0.0,0.0,0.0,0.0,0.0,0.0,0.0,0.0,0.0,0.0,0.0,0.0,0.0,0.0,0.0,0.0,0.0,0.0,0.0,0.0,0.0,0.0,0.0,0.0,0.0,0.0,0.0,0.0,0.0,0.0,0.0,0.0,0.0,0.0,0.0,0.0,0.0,0.0,0.0,0.0,0.0,0.0,0.0,0.0,0.0,0.0,0.0,0.0,0.0,0.0,0.0,0.0,0.0,0.0,0.0,0.0,0.0,0.0,0.0,0.0,0.0,0.0,0.0,0.0,0.0,0.0,0.0,0.0,0.0,0.0,0.0,0.0,0.0,0.0,0.0,0.0,0.0,0.0,0.0,0.0,0.0,0.0,0.0,0.0,0.0,0.0,0.0,0.0,0.0,0.0,0.0,0.0,0.0,0.0,0.0,0.0,0.0,0.0,0.0,0.0,0.0,0.0,0.0,0.0,0.0,0.0,0.0,0.0,0.0,0.0,0.0,0.0,0.0,0.0,0.0,0.0,0.0,0.0,0.0,0.0,0.0,0.0,0.0,0.0,0.0,0.0,0.0,0.0,0.0,0.0,0.0,0.0,0.0,0.0,0.0,0.0,0.0,0.0,0.0,0.0,0.0,0.0,0.0,0.0,0.0,0.0,0.0,0.0,0.0,0.0,0.0,0.0,0.0,0.0,0.0,0.0,0.0,0.0,0.0,0.0,0.0,0.0,0.0,0.0,0.0,0.0,0.0,0.0,0.0,0.0,0.0,0.0,0.0,0.0,0.0,0.0,0.0,0.0,0.0,0.0,0.0,0.0,0.0,0.0,0.0,0.0,0.0,0.0,0.0,0.0,0.0,0.0,0.0,0.0,0.0,0.0,0.0,0.0,0.0,0.0,0.0,0.0,0.0,0.0,0.0,0.0,0.0,0.0,0.0,0.0,0.0,0.0,0.0,0.0,0.0,0.0,0.0,0.0,0.0,0.0,0.0,0.0,0.0,0.0,0.0,0.0,0.0,0.0,0.0,0.0,0.0,0.0,0.0,0.0,0.0,0.0,0.0,0.0,0.0,0.0,0.0,0.0,0.0,0.0,0.0,0.0,0.0,0.0,0.0,0.0,0.0,0.0,0.0,0.0,0.0,0.0,0.0,0.0,0.0,0.0,0.0,0.0,0.0,0.0,0.0,0.0,0.0,0.0,0.0,0.0,0.0,0.0,0.0,0.0,0.0,0.0,0.0,0.0,0.0,0.0,0.0,0.0,0.0,0.0,0.0,0.0,0.0,0.0,0.0,0.0,0.0,0.0,0.0,0.0,0.0,0.0,0.0,0.0,0.0,0.0,0.0,0.0,0.0,0.0,0.0,0.0,0.0,0.0,0.0,0.0,0.0,0.0,0.0,0.0,0.0,0.0,0.0,0.0,0.0,0.0,0.0,0.0,0.0,0.0,0.0,0.0,0.0,0.0,0.0,0.0,0.0,0.0,0.0,0.0,0.0,0.0,0.0,0.0,0.0,0.0,0.0,0.0,0.0,0.0,0.0,0.0,0.0,0.0,0.0,0.0,0.0,0.0,0.0,0.0,0.0,0.0,0.0,0.0,0.0,0.0,0.0,0.0,0.0,0.0,0.0,0.0,0.0,0.0,0.0,0.0,0.0,0.0,0.0,0.0,0.0,0.0,0.0,0.0,0.0,0.0,0.0,0.0,0.0,0.0,0.0,0.0,0.0,0.0,0.0,0.0,0.0,0.0,0.0,0.0,0.0,0.0,0.0,0.0,0.0,0.0,0.0,0.0,0.0,0.0,0.0,0.0,0.0,0.0,0.0,0.0,0.0,0.0,0.0,0.0,0.0,0.0,0.0,0.0,0.0,0.0,0.0,0.0,0.0,0.0,0.0,0.0,0.0,0.0,0.0,0.0,0.0,0.0,0.0,0.0,0.0,0.0,0.0,0.0,0.0,0.0,0.0,0.0,0.0,0.0,0.0,0.0,0.0,0.0,0.0,0.0,0.0,0.0,0.0,0.0,0.0,0.0,0.0,0.0,0.0,0.0,0.0,0.0,0.0,0.0,0.0,0.0,0.0,0.0,0.0,0.0,0.0,0.0,0.0,0.0,0.0,0.0,0.0,0.0,0.0,0.0,0.0,0.0,0.0,0.0,0.0,0.0,0.0,0.0,0.0,0.0,0.0,0.0,0.0,0.0,0.0,0.0,0.0,0.0,0.0,0.0,0.0,0.0,0.0,0.0,0.0,0.0,0.0,0.0,0.0,0.0,0.0,0.0,0.0,0.0,0.0,0.0,0.0,0.0,0.0,0.0,0.0,0.0,0.0,0.0,0.0,0.0,0.0,0.0,0.0,0.0,0.0,0.0,0.0,0.0,0.0,0.0,0.0,0.0,0.0,0.0,0.0,0.0,0.0,0.0,0.0,0.0,-3.2756,0.0,0.0,0.0,0.0,0.0,0.0,0.0,0.0,0.0,0.0,0.0,0.0,0.0,0.0,0.0,0.0,0.0,0.0,0.0,0.0,0.0,0.0,0.0,0.0,0.0,0.0,0.0,0.0,0.0,0.0,0.0,0.0,0.0,0.0,0.0,0.0,0.0,0.0,0.0,0.0,0.0,0.0,0.0,0.0,0.0,0.0,0.0,0.0,0.0,0.0,0.0,0.0,0.0,0.0,0.0,0.0,0.0,0.0,0.0,0.0,0.0,0.0,0.0,0.0,0.0,0.0,0.0,0.0,0.0,0.0,0.0,0.0,0.0,0.0,0.0,0.0,0.0,0.0,0.0,0.0,0.0,0.0,0.0,0.0,0.0,0.0,0.0,0.0,0.0,0.0,0.0,0.0,0.0,0.0,0.0,0.0,0.0,0.0,0.0,0.0,0.0,0.0,0.0,0.0,0.0,0.0,0.0,0.0,0.0,0.0,-3.5026,-3.5481,-3.5103,-3.4276,-3.2929,0.0,0.0,0.0,0.0,0.0,0.0,0.0,0.0,0.0,0.0,0.0,0.0,0.0,0.0,0.0,0.0,0.0,0.0,0.0,0.0,0.0,0.0,0.0,0.0,0.0,0.0,0.0,0.0,0.0,0.0,0.0,0.0,0.0,0.0,0.0,0.0,0.0,0.0,0.0,0.0,0.0,0.0,0.0,0.0,0.0,0.0,0.0,0.0,0.0,0.0,0.0,0.0,0.0,0.0,0.0,0.0,0.0,0.0,0.0,0.0,0.0,0.0,0.0,0.0,0.0,0.0,0.0,0.0,0.0,0.0,0.0,0.0,0.0,0.0,0.0,0.0,0.0,0.0,0.0,0.0,0.0,0.0,0.0,0.0,0.0,0.0,0.0,0.0,0.0,0.0,0.0,0.0,0.0,0.0,0.0,0.0,0.0,0.0,0.0,0.0,0.0,0.0,0.0,0.0,0.0,0.0,0.0,0.0,0.0,0.0,0.0,0.0,-3.6058,-3.5147,-3.3191,0.0,0.0,0.0,0.0,0.0,0.0,0.0,0.0,0.0,0.0,0.0,0.0,0.0,0.0,0.0,0.0,0.0,0.0,0.0,0.0,0.0,0.0,0.0,0.0,0.0,0.0,0.0,0.0,0.0,0.0,0.0,0.0,0.0,0.0,0.0,0.0,0.0,0.0,0.0,0.0,0.0,0.0,0.0,0.0,0.0,0.0,0.0,0.0,0.0,0.0,0.0,0.0,0.0,0.0,0.0,0.0,0.0,0.0,0.0,0.0,0.0,0.0,0.0,0.0,0.0,0.0,0.0,0.0,0.0,0.0,0.0,0.0,0.0,0.0,0.0,0.0,0.0,0.0,0.0,0.0,0.0,0.0,0.0,0.0,0.0,0.0,0.0,0.0,0.0,0.0,0.0,0.0,0.0,0.0,0.0,0.0,0.0,0.0,0.0,0.0,0.0,0.0,0.0,0.0,0.0,0.0,0.0,0.0,0.0,0.0,-3.5341,-3.77,-3.7738,0.0,-3.3976,0.0,0.0,0.0,0.0,0.0,0.0,0.0,0.0,0.0,0.0,0.0,0.0,0.0,0.0,0.0,0.0,0.0,0.0,0.0,0.0,0.0,0.0,0.0,0.0,0.0,0.0,0.0,0.0,0.0,0.0,0.0,0.0,0.0,0.0,0.0,0.0,0.0,0.0,0.0,0.0,0.0,0.0,0.0,0.0,0.0,0.0,0.0,0.0,0.0,0.0,0.0,0.0,0.0,0.0,0.0,0.0,0.0,0.0,0.0,0.0,0.0,0.0,0.0,0.0,0.0,0.0,0.0,0.0,0.0,0.0,0.0,0.0,0.0,0.0,0.0,0.0,0.0,0.0,0.0,0.0,0.0,0.0,0.0,0.0,0.0,0.0,0.0,0.0,0.0,0.0,0.0,0.0,0.0,0.0,0.0,0.0,0.0,0.0,0.0,0.0,0.0,0.0,0.0,0.0,0.0,0.0,0.0,0.0,0.0,0.0,-3.593,-3.7969,-3.6892,-3.553,0.0,0.0,0.0,0.0,0.0,0.0,0.0,0.0,0.0,0.0,0.0,0.0,0.0,0.0,0.0,0.0,0.0,0.0,0.0,0.0,0.0,0.0,0.0,0.0,0.0,0.0,0.0,0.0,0.0,0.0,0.0,0.0,0.0,0.0,0.0,0.0,0.0,0.0,0.0,0.0,0.0,0.0,0.0,0.0,0.0,0.0,0.0,0.0,0.0,0.0,0.0,0.0,0.0,0.0,0.0,0.0,0.0,0.0,0.0,0.0,0.0,0.0,0.0,0.0,0.0,0.0,0.0,0.0,0.0,0.0,0.0,0.0,0.0,0.0,0.0,0.0,0.0,0.0,0.0,0.0,0.0,0.0,0.0,0.0,0.0,0.0,0.0,0.0,0.0,0.0,0.0,0.0,0.0,0.0,0.0,0.0,0.0,0.0,0.0,0.0,0.0,0.0,0.0,0.0,0.0,0.0,0.0,0.0,0.0,0.0,-3.5096,-3.6411,-3.8154,-3.6873,-3.5151,-3.3176,0.0,0.0,0.0,0.0,0.0,0.0,0.0,0.0,0.0,0.0,0.0,0.0,0.0,0.0,0.0,0.0,0.0,0.0,0.0,0.0,0.0,0.0,0.0,0.0,0.0,0.0,0.0,0.0,0.0,0.0,0.0,0.0,0.0,0.0,0.0,0.0,0.0,0.0,0.0,0.0,0.0,0.0,0.0,0.0,0.0,0.0,0.0,0.0,0.0,0.0,0.0,0.0,0.0,0.0,0.0,0.0,0.0,0.0,0.0,0.0,0.0,0.0,0.0,0.0,0.0,0.0,0.0,0.0,0.0,0.0,0.0,0.0,0.0,0.0,0.0,0.0,0.0,0.0,0.0,0.0,0.0,0.0,0.0,0.0,0.0,0.0,0.0,0.0,0.0,0.0,0.0,0.0,0.0,0.0,0.0,0.0,0.0,0.0,0.0,0.0,0.0,0.0,0.0,0.0,0.0,0.0,0.0,0.0,-3.7385,-3.6231,-3.6699,-3.9173,-3.8762,-3.6235,0.0,0.0,0.0,0.0,0.0,0.0,0.0,0.0,0.0,0.0,0.0,0.0,0.0,0.0,0.0,0.0,0.0,0.0,0.0,0.0,0.0,0.0,0.0,0.0,0.0,0.0,0.0,0.0,0.0,0.0,0.0,0.0,0.0,0.0,0.0,0.0,0.0,0.0,0.0,0.0,0.0,0.0,0.0,0.0,0.0,0.0,0.0,0.0,0.0,0.0,0.0,0.0,0.0,0.0,0.0,0.0,0.0,0.0,0.0,0.0,0.0,0.0,0.0,0.0,0.0,0.0,0.0,0.0,0.0,0.0,0.0,0.0,0.0,0.0,0.0,0.0,0.0,0.0,0.0,0.0,0.0,0.0,0.0,0.0,0.0,0.0,0.0,0.0,0.0,0.0,0.0,0.0,0.0,0.0,0.0,0.0,0.0,0.0,0.0,0.0,0.0,0.0,0.0,0.0,0.0,0.0,0.0,0.0,0.0,-3.3846,-3.4962,-3.7368,-4.1007,-3.7005,-3.415,0.0,0.0,0.0,0.0,0.0,0.0,0.0,0.0,0.0,0.0,0.0,0.0,0.0,0.0,0.0,0.0,0.0,0.0,0.0,0.0,0.0,0.0,0.0,0.0,0.0,0.0,0.0,0.0,0.0,0.0,0.0,0.0,0.0,0.0,0.0,0.0,0.0,0.0,0.0,0.0,0.0,0.0,0.0,0.0,0.0,0.0,0.0,0.0,0.0,0.0,0.0,0.0,0.0,0.0,0.0,0.0,0.0,0.0,0.0,0.0,0.0,0.0,0.0,0.0,0.0,0.0,0.0,0.0,0.0,0.0,0.0,0.0,0.0,0.0,0.0,0.0,0.0,0.0,0.0,0.0,0.0,0.0,0.0,0.0,0.0,0.0,0.0,0.0,0.0,0.0,0.0,0.0,0.0,0.0,0.0,0.0,0.0,0.0,0.0,0.0,0.0,0.0,0.0,0.0,0.0,0.0,0.0,0.0,0.0,-3.3544,0.0,-3.8375,-4.0437,-3.5945,-3.2893,0.0,0.0,0.0,0.0,0.0,0.0,0.0,0.0,0.0,0.0,0.0,0.0,0.0,0.0,0.0,0.0,0.0,0.0,0.0,0.0,0.0,0.0,0.0,0.0,0.0,0.0,0.0,0.0,0.0,0.0,0.0,0.0,0.0,0.0,0.0,0.0,0.0,0.0,0.0,0.0,0.0,0.0,0.0,0.0,0.0,0.0,0.0,0.0,0.0,0.0,0.0,0.0,0.0,0.0,0.0,0.0,0.0,0.0,0.0,0.0,0.0,0.0,0.0,0.0,0.0,0.0,0.0,0.0,0.0,0.0,0.0,0.0,0.0,0.0,0.0,0.0,0.0,0.0,0.0,0.0,0.0,0.0,0.0,0.0,0.0,0.0,0.0,0.0,0.0,0.0,0.0,0.0,0.0,0.0,0.0,0.0,0.0,0.0,0.0,0.0,0.0,0.0,0.0,0.0,0.0,0.0,0.0,0.0,-3.2757,-3.7233,-3.9441,-3.9508,-3.7297,-3.596,-3.2708,0.0,0.0,0.0,0.0,0.0,0.0,0.0,0.0,0.0,0.0,0.0,0.0,0.0,0.0,0.0,0.0,0.0,0.0,0.0,0.0,0.0,0.0,0.0,0.0,0.0,0.0,0.0,0.0,0.0,0.0,0.0,0.0,0.0,0.0,0.0,0.0,0.0,0.0,0.0,0.0,0.0,0.0,0.0,0.0,0.0,0.0,0.0,0.0,0.0,0.0,0.0,0.0,0.0,0.0,0.0,0.0,0.0,0.0,0.0,0.0,0.0,0.0,0.0,0.0,0.0,0.0,0.0,0.0,0.0,0.0,0.0,0.0,0.0,0.0,0.0,0.0,0.0,0.0,0.0,0.0,0.0,0.0,0.0,0.0,0.0,0.0,0.0,0.0,0.0,0.0,0.0,0.0,0.0,0.0,0.0,0.0,0.0,0.0,0.0,0.0,0.0,0.0,0.0,0.0,0.0,0.0,0.0,0.0,0.0,-3.6293,-3.754,-3.9096,-4.069,-3.5727,-3.2794,0.0,0.0,0.0,0.0,0.0,0.0,0.0,0.0,0.0,0.0,0.0,0.0,0.0,0.0,0.0,0.0,0.0,0.0,0.0,0.0,0.0,0.0,0.0,0.0,0.0,0.0,0.0,0.0,0.0,0.0,0.0,0.0,0.0,0.0,0.0,0.0,0.0,0.0,0.0,0.0,0.0,0.0,0.0,0.0,0.0,0.0,0.0,0.0,0.0,0.0,0.0,0.0,0.0,0.0,0.0,0.0,0.0,0.0,0.0,0.0,0.0,0.0,0.0,0.0,0.0,0.0,0.0,0.0,0.0,0.0,0.0,0.0,0.0,0.0,0.0,0.0,0.0,0.0,0.0,0.0,0.0,0.0,0.0,0.0,0.0,0.0,0.0,0.0,0.0,0.0,0.0,0.0,0.0,0.0,0.0,0.0,0.0,0.0,0.0,0.0,0.0,0.0,0.0,0.0,0.0,0.0,0.0,0.0,0.0,-3.7868,-3.895,-4.0228,-4.1709,-3.6423,-3.3488,-3.3271,0.0,0.0,0.0,0.0,0.0,0.0,0.0,0.0,0.0,0.0,0.0,0.0,0.0,0.0,0.0,0.0,0.0,0.0,0.0,0.0,0.0,0.0,0.0,0.0,0.0,0.0,0.0,0.0,0.0,0.0,0.0,0.0,0.0,0.0,0.0,0.0,0.0,0.0,0.0,0.0,0.0,0.0,0.0,0.0,0.0,0.0,0.0,0.0,0.0,0.0,0.0,0.0,0.0,0.0,0.0,0.0,0.0,0.0,0.0,0.0,0.0,0.0,0.0,0.0,0.0,0.0,0.0,0.0,0.0,0.0,0.0,0.0,0.0,0.0,0.0,0.0,0.0,0.0,0.0,0.0,0.0,0.0,0.0,0.0,0.0,0.0,0.0,0.0,0.0,0.0,0.0,0.0,0.0,0.0,0.0,0.0,0.0,0.0,0.0,0.0,0.0,0.0,0.0,0.0,0.0,0.0,0.0,0.0,-4.1314,-4.3043,-4.2868,-4.0744,-3.8097,-3.4887,0.0,0.0,0.0,0.0,0.0,0.0,0.0,0.0,0.0,0.0,0.0,0.0,0.0,0.0,0.0,0.0,0.0,0.0,0.0,0.0,0.0,0.0,0.0,0.0,0.0,0.0,0.0,0.0,0.0,0.0,0.0,0.0,0.0,0.0,0.0,0.0,0.0,0.0,0.0,0.0,0.0,0.0,0.0,0.0,0.0,0.0,0.0,0.0,0.0,0.0,0.0,0.0,0.0,0.0,0.0,0.0,0.0,0.0,0.0,0.0,0.0,0.0,0.0,0.0,0.0,0.0,0.0,0.0,0.0,0.0,0.0,0.0,0.0,0.0,0.0,0.0,0.0,0.0,0.0,0.0,0.0,0.0,0.0,0.0,0.0,0.0,0.0,0.0,0.0,0.0,0.0,0.0,0.0,0.0,0.0,0.0,0.0,0.0,0.0,0.0,0.0,0.0,0.0,0.0,0.0,0.0,0.0,0.0,0.0,-4.2122,-4.45,-4.5628,-4.5353,-4.1314,-3.8021,0.0,0.0,0.0,0.0,0.0,0.0,0.0,0.0,0.0,0.0,0.0,0.0,0.0,0.0,0.0,0.0,0.0,0.0,0.0,0.0,0.0,0.0,0.0,0.0,0.0,0.0,0.0,0.0,0.0,0.0,0.0,0.0,0.0,0.0,0.0,0.0,0.0,0.0,0.0,0.0,0.0,0.0,0.0,0.0,0.0,0.0,0.0,0.0,0.0,0.0,0.0,0.0,0.0,0.0,0.0,0.0,0.0,0.0,0.0,0.0,0.0,0.0,0.0,0.0,0.0,0.0,0.0,0.0,0.0,0.0,0.0,0.0,0.0,0.0,0.0,0.0,0.0,0.0,0.0,0.0,0.0,0.0,0.0,0.0,0.0,0.0,0.0,0.0,0.0,0.0,0.0,0.0,0.0,0.0,0.0,0.0,0.0,0.0,0.0,0.0,0.0,0.0,0.0,0.0,0.0,0.0,0.0,0.0,-3.9828,-4.316,-4.5965,-4.7565,-4.787,-4.4145,-4.0691,0.0,0.0,0.0,0.0,0.0,0.0,0.0,0.0,0.0,0.0,0.0,0.0,0.0,0.0,0.0,0.0,0.0,0.0,0.0,0.0,0.0,0.0,0.0,0.0,0.0,0.0,0.0,0.0,0.0,0.0,0.0,0.0,0.0,0.0,0.0,0.0,0.0,0.0,0.0,0.0,0.0,0.0,0.0,0.0,0.0,0.0,0.0,0.0,0.0,0.0,0.0,0.0,0.0,0.0,0.0,0.0,0.0,0.0,0.0,0.0,0.0,0.0,0.0,0.0,0.0,0.0,0.0,0.0,0.0,0.0,0.0,0.0,0.0,0.0,0.0,0.0,0.0,0.0,0.0,0.0,0.0,0.0,0.0,0.0,0.0,0.0,0.0,0.0,0.0,0.0,0.0,0.0,0.0,0.0,0.0,0.0,0.0,0.0,0.0,0.0,0.0,0.0,0.0,0.0,0.0,0.0,0.0,0.0,-4.0604,-4.4006,-4.7079,-4.8686,-4.8604,-4.6376,-4.289,0.0,0.0,0.0,0.0,0.0,0.0,0.0,0.0,0.0,0.0,0.0,0.0,0.0,0.0,0.0,0.0,0.0,0.0,0.0,0.0,0.0,0.0,0.0,0.0,0.0,0.0,0.0,0.0,0.0,0.0,0.0,0.0,0.0,0.0,0.0,0.0,0.0,0.0,0.0,0.0,0.0,0.0,0.0,0.0,0.0,0.0,0.0,0.0,0.0,0.0,0.0,0.0,0.0,0.0,0.0,0.0,0.0,0.0,0.0,0.0,0.0,0.0,0.0,0.0,0.0,0.0,0.0,0.0,0.0,0.0,0.0,0.0,0.0,0.0,0.0,0.0,0.0,0.0,0.0,0.0,0.0,0.0,0.0,0.0,0.0,0.0,0.0,0.0,0.0,0.0,0.0,0.0,0.0,0.0,0.0,0.0,0.0,0.0,0.0,0.0,0.0,0.0,0.0,0.0,0.0,0.0,0.0,0.0,-4.063,-4.3084,-4.6265,-4.8123,-4.8524,-4.682,-4.3838,0.0,0.0,0.0,0.0,0.0,0.0,0.0,0.0,0.0,0.0,0.0,0.0,0.0,0.0,0.0,0.0,0.0,0.0,0.0,0.0,0.0,0.0,0.0,0.0,0.0,0.0,0.0,0.0,0.0,0.0,0.0,0.0,0.0,0.0,0.0,0.0,0.0,0.0,0.0,0.0,0.0,0.0,0.0,0.0,0.0,0.0,0.0,0.0,-3.6703,0.0,0.0,0.0,0.0,0.0,0.0,0.0,0.0,0.0,0.0,0.0,0.0,0.0,0.0,0.0,0.0,0.0,0.0,0.0,0.0,0.0,0.0,0.0,0.0,0.0,0.0,0.0,0.0,0.0,0.0,0.0,0.0,0.0,0.0,0.0,0.0,0.0,0.0,0.0,0.0,0.0,0.0,0.0,0.0,0.0,0.0,0.0,0.0,0.0,0.0,0.0,0.0,0.0,0.0,0.0,0.0,0.0,0.0,0.0,-4.1423,-4.4036,-4.6447,-4.7944,-4.8433,-4.7249,-4.4654,0.0,0.0,0.0,0.0,0.0,0.0,0.0,0.0,0.0,0.0,0.0,0.0,0.0,0.0,0.0,0.0,0.0,0.0,0.0,0.0,0.0,0.0,0.0,0.0,0.0,0.0,0.0,0.0,0.0,0.0,0.0,0.0,0.0,0.0,0.0,0.0,0.0,0.0,0.0,0.0,0.0,0.0,0.0,0.0,0.0,0.0,0.0,0.0,0.0,0.0,0.0,0.0,0.0,0.0,0.0,0.0,0.0,0.0,0.0,0.0,0.0,0.0,0.0,0.0,0.0,0.0,0.0,0.0,0.0,0.0,0.0,0.0,0.0,0.0,0.0,0.0,0.0,0.0,0.0,0.0,0.0,0.0,0.0,0.0,0.0,0.0,0.0,0.0,0.0,0.0,0.0,0.0,0.0,0.0,0.0,0.0,0.0,0.0,0.0,0.0,0.0,0.0,0.0,0.0,0.0,0.0,0.0,-3.8725,-4.2105,-4.5204,-4.6835,-4.7906,-4.8421,-4.7448,-4.5076,-4.1224,0.0,0.0,0.0,0.0,0.0,0.0,0.0,0.0,0.0,0.0,0.0,0.0,0.0,0.0,0.0,0.0,0.0,0.0,0.0,0.0,0.0,0.0,0.0,0.0,0.0,0.0,0.0,0.0,0.0,0.0,0.0,0.0,0.0,0.0,0.0,0.0,0.0,0.0,-3.2518,-3.6151,0.0,0.0,0.0,0.0,0.0,0.0,0.0,0.0,-3.8456,0.0,0.0,0.0,0.0,0.0,0.0,0.0,0.0,0.0,0.0,0.0,0.0,0.0,0.0,0.0,0.0,0.0,0.0,0.0,0.0,0.0,0.0,0.0,0.0,0.0,0.0,0.0,0.0,0.0,0.0,0.0,0.0,0.0,0.0,0.0,0.0,0.0,0.0,0.0,0.0,0.0,0.0,0.0,0.0,0.0,0.0,0.0,0.0,0.0,0.0,0.0,0.0,0.0,0.0,0.0,0.0,-3.7492,-3.8951,-4.1194,-4.4339,-4.6418,-4.7711,-4.8259,-4.6873,-4.4525,-4.1187,0.0,0.0,0.0,0.0,0.0,0.0,0.0,0.0,0.0,0.0,0.0,0.0,0.0,0.0,0.0,0.0,0.0,0.0,0.0,0.0,0.0,0.0,0.0,0.0,0.0,0.0,0.0,0.0,0.0,0.0,0.0,0.0,0.0,0.0,0.0,0.0,0.0,0.0,0.0,-3.949,-4.0893,0.0,0.0,0.0,0.0,0.0,0.0,0.0,0.0,-3.8997,0.0,0.0,0.0,0.0,0.0,0.0,0.0,0.0,0.0,0.0,0.0,0.0,0.0,0.0,0.0,0.0,0.0,0.0,0.0,0.0,0.0,0.0,0.0,0.0,0.0,0.0,0.0,0.0,0.0,0.0,0.0,0.0,0.0,0.0,0.0,0.0,0.0,0.0,0.0,0.0,0.0,0.0,0.0,0.0,0.0,0.0,0.0,0.0,0.0,0.0,0.0,0.0,0.0,0.0,0.0,-3.7217,-4.0311,-4.2931,-4.5183,-4.6643,-4.7495,-4.7607,-4.542,-4.3023,0.0,0.0,0.0,0.0,0.0,0.0,0.0,0.0,0.0,0.0,0.0,0.0,0.0,0.0,0.0,0.0,0.0,0.0,0.0,0.0,0.0,0.0,0.0,0.0,0.0,0.0,0.0,0.0,0.0,0.0,0.0,0.0,0.0,0.0,0.0,0.0,0.0,0.0,0.0,0.0,-3.9803,-4.1039,-4.2193,0.0,0.0,0.0,0.0,0.0,0.0,-3.9557,-3.9472,0.0,0.0,0.0,0.0,0.0,0.0,0.0,0.0,0.0,0.0,0.0,0.0,0.0,0.0,0.0,0.0,0.0,0.0,0.0,0.0,0.0,0.0,0.0,0.0,0.0,0.0,0.0,0.0,0.0,0.0,0.0,0.0,0.0,0.0,0.0,0.0,0.0,0.0,0.0,0.0,0.0,0.0,0.0,0.0,0.0,0.0,0.0,0.0,0.0,0.0,0.0,0.0,0.0,0.0,0.0,-3.6339,-4.1205,-4.4453,-4.592,-4.7003,-4.7415,-4.7075,-4.4668,-4.2202,0.0,0.0,0.0,0.0,0.0,0.0,0.0,0.0,0.0,0.0,0.0,0.0,0.0,0.0,0.0,0.0,0.0,0.0,0.0,0.0,0.0,0.0,0.0,0.0,0.0,0.0,0.0,0.0,0.0,0.0,0.0,0.0,0.0,0.0,0.0,0.0,0.0,0.0,0.0,0.0,0.0,-4.1366,-4.2812,-4.1603,0.0,0.0,0.0,0.0,-4.1031,-4.0942,0.0,0.0,0.0,0.0,0.0,0.0,0.0,0.0,0.0,0.0,0.0,0.0,0.0,0.0,0.0,0.0,0.0,0.0,0.0,0.0,0.0,0.0,0.0,0.0,0.0,0.0,0.0,0.0,0.0,0.0,0.0,0.0,0.0,0.0,0.0,0.0,0.0,0.0,0.0,0.0,0.0,0.0,0.0,0.0,0.0,0.0,0.0,0.0,0.0,0.0,0.0,0.0,0.0,0.0,0.0,0.0,-3.554,-4.0139,-4.3397,-4.5231,-4.7153,-4.7844,-4.7113,-4.638,-4.3725,0.0,0.0,0.0,0.0,0.0,0.0,0.0,0.0,0.0,0.0,0.0,0.0,0.0,0.0,0.0,0.0,0.0,0.0,0.0,0.0,0.0,0.0,0.0,0.0,0.0,0.0,0.0,0.0,0.0,0.0,0.0,0.0,0.0,0.0,0.0,0.0,0.0,0.0,0.0,0.0,0.0,-4.3212,-4.2284,-4.1504,-4.0958,0.0,0.0,-4.2286,-4.2014,-4.3312,0.0,0.0,0.0,0.0,0.0,0.0,0.0,0.0,0.0,0.0,0.0,0.0,0.0,0.0,0.0,0.0,0.0,0.0,0.0,0.0,0.0,0.0,0.0,0.0,0.0,0.0,0.0,0.0,0.0,0.0,0.0,0.0,0.0,0.0,0.0,0.0,0.0,0.0,0.0,0.0,0.0,0.0,0.0,0.0,0.0,0.0,0.0,0.0,0.0,0.0,0.0,0.0,0.0,0.0,0.0,-3.3456,-3.6003,-4.147,-4.4748,-4.5567,-4.6908,-4.7241,-4.6434,-4.4572,-4.1826,0.0,0.0,0.0,0.0,0.0,0.0,0.0,0.0,0.0,0.0,0.0,0.0,0.0,0.0,0.0,0.0,0.0,0.0,0.0,0.0,0.0,0.0,0.0,0.0,0.0,0.0,0.0,0.0,0.0,0.0,0.0,0.0,0.0,0.0,0.0,0.0,0.0,0.0,0.0,0.0,0.0,0.0,-4.3011,-4.2751,0.0,0.0,0.0,-4.3305,-4.2857,0.0,0.0,0.0,0.0,0.0,0.0,0.0,0.0,0.0,0.0,0.0,0.0,0.0,0.0,0.0,0.0,0.0,0.0,0.0,0.0,0.0,0.0,0.0,0.0,0.0,0.0,0.0,0.0,0.0,0.0,0.0,0.0,0.0,0.0,0.0,0.0,0.0,0.0,0.0,0.0,0.0,0.0,0.0,0.0,0.0,0.0,0.0,0.0,0.0,0.0,0.0,0.0,0.0,0.0,0.0,0.0,0.0,-3.6376,-4.2635,-4.5792,-4.5626,-4.6562,-4.6599,-4.559,-4.3483,0.0,0.0,0.0,0.0,0.0,0.0,0.0,0.0,0.0,0.0,0.0,0.0,0.0,0.0,0.0,0.0,0.0,0.0,0.0,0.0,0.0,0.0,0.0,0.0,0.0,0.0,0.0,-2.4803,0.0,0.0,0.0,0.0,0.0,0.0,0.0,0.0,0.0,0.0,0.0,0.0,0.0,0.0,-4.1494,-4.3416,-4.3749,-4.3589,0.0,0.0,-4.405,-4.3679,-4.4504,-4.413,0.0,0.0,0.0,0.0,0.0,0.0,0.0,0.0,0.0,0.0,0.0,0.0,0.0,0.0,0.0,0.0,0.0,0.0,0.0,0.0,0.0,0.0,0.0,0.0,0.0,0.0,0.0,0.0,0.0,0.0,0.0,0.0,0.0,0.0,0.0,0.0,0.0,0.0,0.0,0.0,0.0,0.0,0.0,0.0,0.0,0.0,0.0,0.0,0.0,0.0,0.0,0.0,0.0,0.0,-3.4614,-3.645,-4.2635,-4.5535,-4.4874,-4.6305,-4.6342,-4.4837,-4.4895,-4.2236,0.0,0.0,0.0,0.0,0.0,0.0,0.0,0.0,0.0,0.0,0.0,0.0,0.0,0.0,0.0,0.0,0.0,0.0,0.0,0.0,0.0,0.0,0.0,0.0,0.0,0.0,0.0,0.0,0.0,0.0,0.0,0.0,0.0,0.0,0.0,0.0,0.0,0.0,0.0,0.0,0.0,-4.2306,-4.2733,-4.3828,-4.4617,0.0,0.0,-4.4628,-4.4525,-4.5202,-4.4566,-4.1069,0.0,0.0,0.0,0.0,0.0,0.0,0.0,0.0,0.0,0.0,0.0,0.0,0.0,0.0,0.0,0.0,0.0,0.0,0.0,0.0,0.0,0.0,0.0,0.0,0.0,0.0,0.0,0.0,0.0,0.0,0.0,0.0,0.0,0.0,0.0,0.0,0.0,0.0,0.0,0.0,0.0,0.0,0.0,0.0,0.0,0.0,0.0,0.0,0.0,0.0,0.0,0.0,0.0,-3.4461,-3.6321,-4.2158,-4.5003,-4.4745,-4.5296,-4.5315,-4.4727,-4.4349,-4.1896,0.0,0.0,0.0,0.0,0.0,0.0,0.0,0.0,0.0,0.0,0.0,0.0,0.0,0.0,0.0,0.0,0.0,0.0,0.0,0.0,0.0,0.0,0.0,0.0,0.0,0.0,0.0,0.0,-2.6846,-2.6992,-2.6723,0.0,0.0,0.0,0.0,0.0,0.0,0.0,0.0,0.0,0.0,-4.2502,-4.3113,-4.4061,0.0,0.0,-4.4378,-4.4687,-4.4605,-4.4817,-4.4139,-4.1694,-4.0612,0.0,0.0,0.0,0.0,0.0,0.0,0.0,0.0,0.0,0.0,0.0,0.0,0.0,0.0,0.0,0.0,0.0,0.0,0.0,0.0,0.0,0.0,0.0,0.0,0.0,0.0,0.0,0.0,0.0,0.0,0.0,0.0,0.0,0.0,0.0,0.0,0.0,0.0,0.0,0.0,0.0,0.0,0.0,0.0,0.0,0.0,0.0,0.0,0.0,0.0,0.0,0.0,-3.4299,-3.6135,-4.1777,-4.458,-4.436,-4.458,-4.4563,-4.4342,-4.3791,-4.1734,0.0,0.0,0.0,0.0,0.0,0.0,0.0,0.0,0.0,0.0,0.0,0.0,0.0,0.0,0.0,0.0,0.0,0.0,0.0,0.0,0.0,0.0,0.0,0.0,0.0,0.0,0.0,0.0,-2.724,-2.719,-2.6423,0.0,0.0,0.0,0.0,0.0,0.0,0.0,0.0,0.0,0.0,-4.2671,-4.3718,-4.4342,-4.4507,-4.3938,-4.4121,-4.4391,-4.4568,-4.4567,-4.398,-4.2443,0.0,0.0,0.0,0.0,0.0,0.0,0.0,0.0,0.0,0.0,0.0,0.0,0.0,0.0,0.0,0.0,0.0,0.0,0.0,0.0,0.0,0.0,0.0,0.0,0.0,0.0,0.0,-3.0155,0.0,0.0,-2.7156,0.0,0.0,0.0,0.0,0.0,0.0,0.0,0.0,0.0,0.0,0.0,0.0,0.0,0.0,0.0,0.0,0.0,0.0,0.0,0.0,0.0,0.0,-3.4162,-3.576,-4.1639,-4.4305,-4.3589,-4.4287,-4.4323,-4.357,-4.3497,-4.1974,-3.8728,0.0,0.0,0.0,0.0,0.0,0.0,0.0,0.0,0.0,0.0,0.0,0.0,0.0,0.0,0.0,0.0,0.0,0.0,0.0,0.0,0.0,0.0,0.0,0.0,0.0,0.0,-2.7289,-2.6938,-2.6445,0.0,0.0,0.0,0.0,0.0,0.0,0.0,0.0,0.0,0.0,-4.1277,-4.2873,-4.4415,-4.4654,-4.4636,-4.4635,-4.3993,-4.3779,-4.4487,-4.4574,-4.4256,0.0,0.0,0.0,0.0,0.0,0.0,0.0,0.0,0.0,0.0,0.0,0.0,0.0,0.0,0.0,0.0,0.0,0.0,0.0,0.0,0.0,0.0,0.0,0.0,0.0,0.0,0.0,-3.4688,-3.3316,0.0,0.0,0.0,0.0,0.0,0.0,0.0,0.0,0.0,0.0,0.0,-3.5516,-3.6841,0.0,0.0,0.0,0.0,0.0,0.0,0.0,0.0,0.0,0.0,0.0,0.0,-3.4181,-3.6548,-4.1348,-4.3773,-4.3515,-4.3754,-4.3772,-4.3497,-4.3479,-4.1803,-3.8224,0.0,0.0,0.0,0.0,0.0,0.0,0.0,0.0,0.0,0.0,0.0,0.0,0.0,0.0,0.0,0.0,0.0,0.0,0.0,0.0,0.0,0.0,0.0,0.0,0.0,-2.7572,0.0,0.0,0.0,0.0,0.0,0.0,0.0,0.0,0.0,0.0,0.0,-3.8854,-4.0487,-4.2084,-4.3296,-4.3828,-4.3901,-4.3901,0.0,0.0,0.0,0.0,0.0,0.0,0.0,0.0,0.0,0.0,0.0,0.0,0.0,0.0,-4.3208,-3.8548,-3.7196,-3.7064,-3.7769,0.0,0.0,0.0,0.0,0.0,0.0,0.0,0.0,0.0,0.0,0.0,0.0,0.0,0.0,-3.7881,0.0,-3.4892,0.0,0.0,0.0,0.0,0.0,0.0,0.0,0.0,-3.8547,-3.9322,-3.8776,-4.0197,-3.9834,0.0,-3.7178,-3.4928,0.0,0.0,0.0,0.0,0.0,0.0,0.0,0.0,-3.4582,-3.7036,-4.1088,-4.3303,-4.3479,-4.3479,-4.3479,-4.3479,-4.3239,-4.168,-3.8743,-3.6888,-3.4929,0.0,0.0,0.0,0.0,0.0,0.0,0.0,0.0,0.0,0.0,0.0,0.0,0.0,0.0,0.0,0.0,0.0,0.0,0.0,0.0,0.0,0.0,0.0,-2.7604,0.0,0.0,0.0,0.0,0.0,0.0,0.0,0.0,0.0,-3.6692,-3.8817,-4.0928,-4.2561,-4.3185,-4.3606,-4.3864,0.0,0.0,0.0,0.0,0.0,0.0,0.0,-4.4795,-4.5331,-4.5523,-4.5528,-4.524,-4.6374,-4.7231,-4.6951,0.0,0.0,-4.1827,-4.0509,-4.0337,-4.0985,-4.1463,-4.201,-4.2912,-4.3426,-4.3795,0.0,0.0,0.0,0.0,0.0,0.0,0.0,0.0,-4.0616,-4.0671,0.0,-3.8105,0.0,0.0,0.0,0.0,0.0,-3.6608,0.0,0.0,-4.0987,-4.2207,-4.2262,-4.2337,-4.2337,-4.2286,-4.1525,-4.0054,-3.7736,-3.2895,0.0,0.0,0.0,0.0,0.0,0.0,-3.5389,-3.7431,-4.0937,-4.2976,-4.3462,-4.3479,-4.3479,-4.3479,-4.2746,-4.1682,-4.0311,-3.9409,-3.7557,-3.4492,-3.3454,0.0,0.0,0.0,0.0,0.0,0.0,0.0,0.0,0.0,0.0,0.0,0.0,0.0,0.0,0.0,0.0,0.0,0.0,0.0,0.0,-2.6979,0.0,0.0,0.0,0.0,0.0,0.0,0.0,0.0,0.0,0.0,-4.0102,-4.0763,-4.2359,-4.5388,0.0,0.0,0.0,0.0,-4.4728,-4.4746,-4.5388,-4.599,-4.6341,-4.669,-4.7033,-4.7398,0.0,0.0,-4.7154,-4.7663,-4.799,-4.7192,-4.7778,-4.8058,-4.7499,-4.6291,-4.5735,-4.6072,-4.5518,-4.5424,-4.5823,-4.6052,-4.6378,-4.8305,0.0,0.0,0.0,0.0,-4.5057,-4.5828,-4.7095,-4.6911,-4.5938,-4.4398,-4.2557,0.0,0.0,0.0,0.0,0.0,0.0,-4.0079,-4.1002,-4.2407,-4.3022,-4.3115,-4.3673,-4.3639,-4.3098,-4.2868,-4.1914,-4.0223,-3.8244,-3.4726,-2.9888,0.0,0.0,0.0,0.0,-3.7262,-3.9013,-4.1814,-4.3357,-4.3479,-4.3479,-4.3479,-4.3479,-4.2905,-4.2186,-4.1365,-4.0211,-3.8867,-3.7309,-3.495,0.0,0.0,0.0,0.0,0.0,0.0,0.0,0.0,0.0,0.0,0.0,0.0,0.0,0.0,0.0,0.0,0.0,0.0,0.0,-2.7806,-2.8399,-2.8873,0.0,0.0,0.0,0.0,0.0,0.0,0.0,0.0,0.0,-4.3956,-4.3864,-4.3994,0.0,0.0,-4.5076,-4.4764,-4.5204,-4.5553,-4.5553,-4.5755,0.0,-4.6362,-4.6501,-4.6782,-4.74,-4.836,-4.9144,-4.9548,-4.9808,-4.9875,-4.9606,-4.9798,-4.9735,-4.8984,-4.7686,-4.6685,-4.6464,-4.6473,-4.6686,-4.7083,-4.7495,-4.7918,-5.2821,-4.9828,-4.8104,-4.7645,-4.8086,-4.8086,-4.8838,-4.9994,-4.9739,-4.8941,-4.7767,-4.6046,-4.3904,-4.1456,-3.919,0.0,0.0,0.0,-4.1537,-4.2586,-4.3158,-4.3572,-4.3893,-4.435,-4.4333,-4.3876,-4.3555,-4.2794,-4.1627,-4.0899,-3.8051,-3.3372,0.0,0.0,-3.3516,-3.6374,-3.8561,-4.0073,-4.212,-4.3304,-4.3479,-4.3479,-4.3479,-4.3479,-4.2976,-4.242,-4.1832,-4.0827,-3.9893,-3.8984,-3.6624,-3.3931,0.0,0.0,0.0,0.0,0.0,0.0,0.0,0.0,0.0,0.0,0.0,-2.2448,-2.1026,0.0,0.0,0.0,-2.5975,-2.8365,-3.0548,-3.1024,0.0,0.0,0.0,0.0,0.0,0.0,0.0,-4.2219,-4.324,-4.4397,-4.6122,-4.5957,-4.5755,-4.6067,-4.6012,-4.5828,-4.5682,0.0,-4.6379,-4.6379,-4.6636,-4.693,-4.7107,-4.7294,-4.7657,-4.8408,-4.929,-5.0048,-5.0577,-5.0683,-5.0683,-5.0683,-5.0683,-5.0462,-4.9645,-4.8659,-4.7807,-4.7278,-4.7389,-4.7647,-4.7883,-4.8145,-4.8532,-5.5996,-5.4326,-5.1334,-5.0014,-4.9886,-4.9886,-5.0306,-5.093,-5.0215,-5.0274,-5.0731,-4.8716,-4.6983,-4.5433,-4.2731,0.0,-4.1491,-4.2168,-4.2844,-4.3504,-4.3521,-4.3893,-4.4598,-4.4598,-4.4598,-4.4581,-4.3842,-4.3115,-4.2371,-4.1644,-4.024,-3.8193,-3.7415,-3.7039,-3.7029,-3.8267,-3.9567,-4.0854,-4.2122,-4.2995,-4.3479,-4.3479,-4.3497,-4.3427,-4.2848,-4.2253,-4.1658,-4.1051,-4.0377,-3.9566,-3.8163,-3.5779,-3.2395,0.0,0.0,0.0,0.0,0.0,0.0,0.0,0.0,0.0,0.0,0.0,0.0,0.0,0.0,0.0,-2.9457,0.0,-3.344,-3.4184,0.0,0.0,0.0,-3.6455,-3.8718,-4.0515,-4.2465,-4.4619,0.0,0.0,-4.7094,-4.7186,-4.7443,-4.8214,-4.704,-4.6324,-4.7003,-4.7131,-4.7186,-4.7186,-4.7791,-4.8288,-4.8179,-4.8544,-4.9099,-4.9791,-5.0432,-5.0644,-5.0683,-5.0683,-5.0683,-5.0683,-5.0683,-5.0432,-4.9645,-4.9433,-4.9249,-4.8384,-4.8269,-4.8288,-4.8288,-4.8345,-4.8604,-5.7134,-5.6124,-5.4748,-5.3463,-5.2362,-5.2344,-5.2454,-5.2598,-5.2435,-5.1806,-5.0821,-4.9862,-4.8024,-4.5614,-4.4349,-4.3802,-4.3819,-4.3988,-4.413,-4.4299,-4.4299,-4.4429,-4.4598,-4.4598,-4.4598,-4.4598,-4.4384,-4.391,-4.3149,-4.2388,-4.1491,-4.0443,-3.9665,-3.8949,-3.8358,-4.011,-4.1455,-4.2212,-4.2941,-4.3375,-4.3479,-4.3479,-4.3322,-4.2902,-4.1791,-4.0887,-4.0301,-3.9203,-3.855,-3.834,-3.7432,-3.5597,-3.2716,-2.9734,0.0,0.0,0.0,0.0,0.0,0.0,0.0,0.0,0.0,-2.6626,-2.2972,0.0,-2.842,0.0,-3.1252,-3.3474,-3.4923,-3.5245,0.0,0.0,-3.8533,-3.9943,-4.2463,-4.3176,-4.425,-4.6304,-4.6691,-4.7113,-4.7901,-4.7993,-4.8085,-4.8269,-4.7976,-4.759,-4.7204,-4.7645,-4.8031,-4.8031,-4.8177,-4.8306,-4.8363,-4.8897,-4.9518,-5.0019,-5.0432,-5.0683,-5.0683,-5.0683,-5.0683,-5.0683,-5.0683,-5.0388,-4.9645,-4.9489,-4.9221,-4.8514,-4.8324,-4.8324,-4.8324,-4.855,-4.8897,-5.7538,-5.673,-5.5941,-5.4858,-5.372,-5.3332,-5.3185,-5.3185,-5.3185,-5.2381,-5.0932,-4.9644,-4.8174,-4.6633,-4.5568,-4.5077,-4.506,-4.4767,-4.4598,-4.4598,-4.4598,-4.4598,-4.4598,-4.4598,-4.4598,-4.4598,-4.4598,-4.4012,-4.2946,-4.2489,-4.1762,-4.0713,-4.0316,-4.0086,-4.0145,-4.1202,-4.2101,-4.2674,-4.3214,-4.3479,-4.3479,-4.3479,-4.3232,-4.2693,-4.1714,-4.0764,-3.9834,-3.8907,-3.8091,-3.7415,-3.6671,-3.5308,-3.3199,-3.0784,-2.8772,0.0,0.0,0.0,0.0,0.0,0.0,0.0,0.0,0.0,0.0,0.0,-3.0738,-3.2116,-3.4468,-3.6502,-3.7949,-3.8396,-3.9089,-4.0324,-4.0832,-4.202,-4.437,-4.4625,-4.5394,-4.7402,-4.7626,-4.781,-4.8251,-4.8324,-4.8324,-4.8324,-4.8324,-4.8141,-4.7792,-4.803,-4.8324,-4.8324,-4.8324,-4.8364,-4.8532,-4.9075,-4.965,-5.0024,-5.0432,-5.0683,-5.0683,-5.0683,-5.0683,-5.0683,-5.0683,-5.0504,-4.9898,-4.9603,-4.928,-4.8744,-4.8421,-4.8325,-4.8306,-4.8622,-4.9029,-5.7593,-5.6877,-5.5959,-5.5188,-5.4491,-5.3592,-5.3185,-5.3185,-5.3185,-5.2417,-5.0955,-4.885,-4.7906,-4.7787,-4.638,-4.5703,-4.5652,-4.4936,-4.4598,-4.4598,-4.4598,-4.4598,-4.4615,-4.4665,-4.4665,-4.4615,-4.4665,-4.3986,-4.2618,-4.2477,-4.1783,-4.0527,-4.0364,-4.0861,-4.1874,-4.1916,-4.2203,-4.2789,-4.3268,-4.3462,-4.3392,-4.3392,-4.3105,-4.2482,-4.1783,-4.0828,-3.96,-3.9013,-3.8108,-3.688,-3.6231,-3.5289,-3.3918,-3.2149,-3.1039,0.0,-2.9837,0.0,0.0,0.0,0.0,0.0,0.0,0.0,0.0,-3.1448,-3.3287,-3.5964,-3.8154,-3.9935,-4.1221,-4.1999,-4.2439,-4.2439,-4.2523,-4.334,-4.5176,-4.545,-4.6167,-4.8098,-4.8324,-4.8324,-4.8306,-4.8324,-4.8324,-4.8324,-4.8324,-4.8306,-4.8306,-4.8306,-4.8324,-4.8324,-4.8324,-4.8439,-4.8898,-4.9265,-4.9664,-5.0111,-5.0472,-5.0683,-5.0683,-5.0683,-5.0683,-5.0683,-5.0683,-5.0554,-5.0171,-4.9754,-4.9371,-4.8928,-4.855,-4.8306,-4.8363,-4.8692,-4.9094,-5.7905,-5.7629,-5.6198,-5.55,-5.5244,-5.3812,-5.3185,-5.3185,-5.3185,-5.2399,-5.0955,-4.8821,-4.7906,-4.777,-4.6333,-4.5703,-4.5669,-4.4925,-4.4598,-4.4598,-4.4598,-4.4598,-4.4626,-4.5089,-4.5079,-4.4654,-4.5089,-4.4952,-4.4141,-4.3417,-4.2881,-4.2595,-4.1864,-4.1832,-4.248,0.0,0.0,0.0,-4.3463,-4.3304,-4.2883,-4.2845,-4.2342,-4.1256,-3.9975,0.0,-3.8289,-3.7587,-3.71,-3.6846,-3.7229,0.0,0.0,0.0,0.0,0.0,0.0,0.0,0.0,0.0,0.0,0.0,-3.1267,-3.0738,-2.9623,-3.3825,-3.7403,-3.9182,-4.0769,-4.1805,-4.2066,-4.276,-4.32,-4.3234,-4.3758,-4.4685,-4.6011,-4.62,-4.6771,-4.8115,-4.8324,-4.8324,-4.8324,-4.8324,-4.8324,-4.8324,-4.8324,-4.8324,-4.8324,-4.8324,-4.8324,-4.8324,-4.8324,-4.8586,-4.928,-4.9445,-4.9746,-5.0388,-5.0643,-5.0683,-5.0683,-5.0683,-5.0683,-5.0683,-5.0683,-5.0584,-5.0202,-4.9773,-4.9386,-4.8996,-4.8586,-4.8324,-4.8325,-4.8881,-4.9401,-5.7978,0.0,-5.6253,-5.5614,0.0,-5.3885,-5.3185,-5.3185,-5.3185,-5.2417,-5.1016,-4.9567,-4.8754,-4.8392,-4.7263,-4.6583,-4.621,-4.5466,-4.497,-4.4598,-4.4598,-4.4776,-4.5035,-4.5372,-4.5485,-4.5511,-4.579,-4.5381,-4.4385,-4.3881,-4.3255,-4.2503,-4.2009,-4.2101,-4.2692,-4.2958,-4.3232,-4.3479,-4.3479,-4.3232,-4.2713,-4.2693,-4.2121,-4.0955,-4.0198,0.0,0.0,0.0,0.0,0.0,0.0,0.0,0.0,0.0,0.0,-3.4565,-3.4807,-3.4507,-3.3444,-3.2839,-3.281,-3.3489,-3.4251,-3.428,-3.3425,-3.716,-4.0026,-4.1118,-4.2227,-4.3014,-4.343,-4.3775,-4.3995,-4.4012,-4.4378,-4.5079,-4.6143,-4.6389,-4.6914,-4.8035,-4.8324,-4.8324,-4.8324,-4.8324,-4.8324,-4.8324,-4.8324,-4.8324,-4.8324,-4.8324,-4.8324,-4.8324,-4.8324,-4.8604,-4.9295,-4.9489,-4.9773,-5.0483,-5.0683,-5.0683,-5.0683,-5.0683,-5.0683,-5.0683,-5.0683,-5.0614,-5.041,-4.9905,-4.9431,-4.9187,-4.871,-4.842,-4.8568,-4.9094,-4.9561,-5.7978,-5.7873,-5.6345,-5.5643,-5.5486,-5.3955,-5.3272,-5.3185,0.0,0.0,0.0,-5.0324,-4.9605,-4.8934,-4.8105,-4.742,-4.6893,-4.5947,-4.5247,-4.4748,-4.4776,-4.5025,-4.5494,-4.5732,-4.6039,-4.6407,-4.6524,-4.5797,-4.4342,-4.429,-4.3535,-4.2278,-4.2133,-4.2344,-4.2845,-4.3268,-4.3479,-4.3479,-4.3479,-4.3196,-4.2559,-4.2539,-4.1958,-4.078,-4.0618,-4.0072,-3.9029,-3.8988,-3.8454,-3.7269,-3.7303,-3.732,-3.7202,-3.7303,-3.7425,-3.758,-3.773,-3.7408,-3.6461,-3.5627,-3.5315,-3.5558,-3.703,-3.8104,-3.8466,-4.0296,-4.177,-4.2626,-4.3351,-4.3997,-4.453,-4.4692,-4.4737,-4.4626,-4.4598,-4.5079,-4.6192,-4.6389,-4.6892,-4.8035,-4.8324,-4.8324,-4.8324,-4.8324,-4.8324,-4.8324,-4.8324,-4.8345,-4.8383,-4.8345,-4.8324,-4.8324,-4.8324,-4.8568,-4.9265,-4.9489,-4.9813,-5.0544,-5.0683,-5.0683,-5.0683,-5.0683,-5.0683,-5.0683,-5.0683,-5.0683,-5.0653,-5.0104,-4.9617,-4.9608,-4.9029,-4.8621,-4.9029,-4.9371,-4.9719,-5.7978,-5.7895,-5.6638,-5.5928,-5.5508,-5.4251,-5.3525,-5.3164,-5.2554,-5.1808,-5.106,-5.0307,-4.9622,-4.8934,-4.7581,-4.7169,-4.7448,-4.5625,-4.4981,-4.5372,-4.5372,-4.5407,-4.5563,-4.6594,-4.6864,-4.6478,-4.6977,-4.6489,-4.5171,-4.4915,-4.441,-4.3586,-4.3341,-4.3303,-4.3374,-4.3462,-4.3479,-4.3479,-4.3479,-4.2977,-4.1976,-4.1916,-4.1375,-4.0269,-3.9593,-3.9212,-3.9029,-3.9005,-3.8886,-3.87,-3.9276,-3.9351,-3.8751,-3.9266,-3.8803,-3.7081,-3.7439,-3.7154,-3.575,-3.5261,-3.5824,-3.7699,-3.9414,-4.0743,-4.1563,-4.1943,-4.2746,-4.4114,-4.4803,-4.5032,-4.472,-4.5062,-4.5152,-4.4737,-4.4598,-4.5062,-4.624,-4.6389,-4.6869,-4.8075,-4.8324,-4.8324,-4.8324,-4.8324,-4.8324,-4.8324,-4.8363,-4.8421,-4.8639,-4.8513,-4.8325,-4.8324,-4.8324,-4.864,-4.9341,-4.9504,-4.9872,-5.0584,-5.0683,-5.0683,-5.0683,-5.0683,-5.0683,-5.0683,-5.0683,-5.0683,-5.0702,-5.0336,-5.0031,-4.9949,-4.9566,-4.9401,-4.9741,-4.9936,-5.0024,-5.7866,-5.7534,-5.6385,-5.563,-5.519,-5.3984,-5.3361,-5.3185,-5.2853,-5.2289,-5.1611,-5.0903,-5.023,-4.9431,-4.8031,-4.7318,-4.7159,-4.6131,-4.5439,-4.5079,-4.5681,-4.6007,-4.607,-4.6972,-4.7388,-4.7431,-4.7736,-4.7318,-4.6259,-4.572,-4.5072,-4.4307,-4.3777,-4.3479,-4.3479,-4.3479,-4.3479,-4.3479,-4.3214,-4.2656,-4.1814,-4.1473,-4.092,-4.0121,-3.9369,-3.9151,-3.958,-3.9176,-3.9151,-3.9563,-3.991,-3.9943,-3.9639,-3.9926,-3.9278,-3.7472,-3.7601,-3.7288,-3.6112,-3.6967,-3.8366,-4.0309,-4.1525,-4.2706,-4.3942,-4.4041,-4.4337,-4.501,-4.5648,-4.589,-4.5597,-4.5537,-4.5511,-4.5571,-4.5008,-4.5133,-4.6119,-4.6389,-4.6778,-4.7656,-4.8094,-4.8306,-4.8324,-4.8324,-4.8324,-4.8325,-4.8458,-4.871,-4.888,-4.8947,-4.8965,-4.8947,-4.8947,-4.9206,-4.9719,-4.9827,-5.008,-5.0614,-5.0683,-5.0683,-5.0683,-5.0683,-5.0683,-5.0683,-5.0683,-5.0683,-5.0683,-5.0369,-5.0159,-5.0068,-4.9773,-4.9706,-4.9974,-5.026,-5.0421,-5.7981,-5.759,-5.6503,-5.5599,-5.4801,-5.3678,-5.3185,-5.3185,-5.3185,-5.2791,-5.2089,-5.1544,-5.0929,-5.0126,-4.8736,-4.7872,-4.7417,-4.682,-4.6074,-4.5398,-4.6209,-4.6618,-4.6687,-4.7281,-4.7838,-4.8267,-4.8324,-4.7883,-4.7113,-4.6471,-4.5663,-4.4727,-4.3901,-4.3479,-4.3479,-4.3479,-4.3444,-4.3286,-4.277,-4.2282,-4.181,-4.1223,-4.0583,-3.9842,-3.9219,-3.9113,-3.9532,-3.8995,-3.8951,-3.9532,-3.9601,-3.9636,-3.9808,-3.9679,-3.9065,-3.7921,-3.7762,-3.7606,-3.737,-3.893,-4.0722,-4.2404,-4.3315,-4.426,-4.5338,-4.5783,-4.5875,-4.5808,-4.6264,-4.6571,-4.6359,-4.6161,-4.6063,-4.6336,-4.5459,-4.5284,-4.6192,-4.6389,-4.6664,-4.7302,-4.7917,-4.8324,-4.8324,-4.8324,-4.8324,-4.8363,-4.8639,-4.8913,-4.9062,-4.9371,-4.9617,-4.9719,-4.9617,-4.9631,-5.0019,-5.0099,-5.026,-5.0624,-5.0604,-5.0544,-5.0504,-5.0493,-5.0483,-5.0483,-5.0525,-5.0575,-5.0624,-5.0472,-5.0302,-5.026,-5.0056,-4.9936,-5.0214,-5.0472,-5.0673,-5.8617,-5.8479,-5.7683,-5.6288,-5.4514,-5.3579,-5.3185,-5.3185,-5.3185,-5.2769,-5.2112,-5.2024,-5.1618,-5.0822,-4.9386,-4.8905,-4.9126,-4.7329,-4.6642,-4.7035,-4.7255,-4.732,-4.7324,-4.7917,-4.8248,-4.8287,-4.8287,-4.7901,-4.7167,-4.6984,-4.6177,-4.4764,-4.3901,-4.3479,-4.3479,-4.3479,-4.3268,-4.2788,-4.2183,-4.1853,-4.1771,-4.1223,-4.0314,-3.9059,-3.8935,-3.8608,-3.8121,-3.795,-3.7921,-3.8007,-3.8064,-3.8346,-3.887,-3.8402,-3.7966,-3.7796,-3.7727,-3.8087,-3.9327,-4.0292,-4.1604,-4.3108,-4.45,-4.5321,-4.5597,-4.6566,-4.6972,-4.6594,-4.6932,-4.7044,-4.6548,-4.6864,-4.6932,-4.6571,-4.5883,-4.5699,-4.6288,-4.6389,-4.6664,-4.7342,-4.7937,-4.8324,-4.8324,-4.8324,-4.8324,-4.8306,-4.871,-4.9078,-4.9356,-4.9754,-5.0159,-5.0325,-5.0019,-4.976,-5.0043,-5.0111,-5.0283,-5.0575,-5.0399,-5.0237,-5.0147,-4.9924,-4.9733,-5.0206,-5.0214,-5.0325,-5.0575,-5.0634,-5.0624,-5.0554,-5.0504,-5.0554,-5.0643,-5.0663,-5.0683,-5.8965,-5.8701,-5.7887,-5.6349,-5.4461,-5.3557,-5.3185,-5.3185,-5.3185,-5.2791,-5.2159,-5.2112,-5.1716,-5.1006,-4.95,-4.8957,-4.9032,-4.7648,-4.691,-4.6892,-4.7554,-4.7756,-4.747,-4.8017,-4.8132,-4.7818,-4.8114,-4.793,-4.7276,-4.6687,-4.5407,-4.3724,-4.3486,-4.3339,-4.3087,-4.3321,-4.3214,-4.2693,-4.2103,-4.1621,-4.1201,-4.0231,-3.9458,-3.8864,-3.8032,-3.7658,-3.7719,-3.7352,-3.7293,-3.7764,-3.7822,-3.795,-3.8218,-3.795,-3.7764,-3.7743,-3.8433,-3.9323,-4.0435,-4.1985,-4.3397,-4.4523,-4.5468,-4.6167,-4.6589,-4.7106,-4.7406,-4.7572,-4.7777,-4.7797,-4.7554,-4.7449,-4.7424,-4.7345,-4.6641,-4.6281,-4.691,-4.6995,-4.711,-4.7406,-4.7917,-4.8324,-4.8324,-4.8324,-4.8324,-4.8383,-4.8813,-4.9329,-4.9522,-5.0024,-5.0483,-5.0633,-5.0399,-5.0313,-5.0391,-5.0442,-5.0432,-5.0336,-5.0206,-5.0087,-4.976,-4.9631,-4.965,-4.9999,-5.0056,-5.0225,-5.0624,-5.0683,-5.0683,-5.0683,-5.0683,-5.0683,-5.0683,-5.0683,-5.0683,-5.9431,-5.8999,-5.7894,-5.6159,-5.4188,-5.3508,-5.3185,-5.3146,-5.298,-5.2599,-5.2136,-5.2112,-5.1734,-5.0977,-4.965,-4.915,-4.919,-4.8168,-4.7388,-4.7044,-4.7879,-4.8073,-4.7718,-4.8075,-4.8093,-4.7756,-4.7917,-4.7818,-4.7289,-4.6217,-4.4871,-4.3549,-4.3157,-4.2847,-4.2521,-4.2865,-4.2771,-4.2241,-4.175,-4.1268,-4.0614,-3.9527,-3.8799,-3.8509,-3.7306,-3.6798,-3.7131,-3.6801,-3.6817,-3.7414,-3.7601,-3.7786,-3.7997,-3.7816,-3.781,-3.8228,-3.911,-4.0369,-4.1752,-4.3318,-4.4643,-4.5647,-4.6312,-4.6869,-4.732,-4.7551,-4.7836,-4.8172,-4.8324,-4.8287,-4.8248,-4.7917,-4.7877,-4.8172,-4.7172,-4.6687,-4.7259,-4.7299,-4.7172,-4.7406,-4.7937,-4.8324,-4.8324,-4.8324,-4.8324,-4.8382,-4.8999,-4.9489,-4.9589,-5.014,-5.0683,-5.0683,-5.0683,-5.0624,-5.0565,-5.0472,-5.0347,-5.0043,-4.9846,-4.9603,-4.9356,-4.928,-4.9295,-4.9426,-4.9746,-5.0087,-5.0399,-5.0514,-5.0683,-5.0683,-5.0683,-5.0683,-5.0683,-5.0683,-5.0683,-6.005,-5.9721,-5.7848,-5.5818,-5.3814,-5.3378,-5.3185,-5.3146,-5.2531,-5.2159,-5.2094,-5.2112,-5.1716,-5.1083,-5.0038,-4.9985,-5.0383,-4.8922,-4.8172,-4.8114,-4.8248,-4.8287,-4.8249,-4.8305,-4.8249,-4.7995,-4.7674,-4.7413,-4.7219,-4.5838,-4.5084,-4.4807,-4.2902,-4.1916,-4.1853,-4.1937,-4.1582,-4.1178,-4.1094,-4.0754,-4.0188,-3.9391,-3.8694,-3.8107,-3.707,-3.6445,-3.592,-3.6235,-3.6583,-3.6583,-3.7161,-3.778,-3.8357,-3.7861,-3.8169,-3.9387,-3.9705,-4.1071,-4.3499,-4.423,-4.4947,-4.618,-4.6977,-4.7385,-4.7491,-4.7897,-4.8209,-4.8305,-4.8324,-4.8324,-4.8324,-4.8229,-4.8191,-4.821,-4.7198,-4.691,-4.7342,-4.7062,-4.6842,-4.7363,-4.7975,-4.8267,-4.8324,-4.8324,-4.8324,-4.8458,-4.8999,-4.9493,-4.9589,-5.0183,-5.0575,-5.0683,-5.0673,-5.0584,-5.0218,-5.0206,-5.0031,-4.965,-4.9326,-4.8994,-4.883,-4.871,-4.8779,-4.8947,-4.9371,-4.9746,-5.008,-5.0358,-5.0614,-5.0683,-5.0683,-5.0683,-5.0683,-5.0683,-5.0683,-5.9883,-5.8786,-5.7524,-5.5917,-5.416,-5.3472,-5.3185,-5.3167,-5.2915,-5.2513,-5.2136,-5.2112,-5.1952,-5.1627,-4.9894,-4.9475,-4.9927,-4.8826,-4.8324,-4.8324,-4.8324,-4.8324,-4.8324,-4.8305,-4.7818,-4.7176,-4.7302,-4.6902,-4.5958,-4.4942,-4.3997,-4.3164,-4.2277,-4.1621,-4.1358,-4.1621,-4.1512,-4.1024,-4.1382,-4.1381,-4.0857,-4.0523,-4.0212,-3.994,-3.8745,-3.7682,-3.6855,-3.7514,-3.7666,-3.7109,-3.73,-3.7526,-3.7861,-3.8498,-3.9309,-4.0325,-4.1738,-4.3239,-4.4677,-4.5747,-4.6436,-4.6981,-4.7614,-4.7957,-4.7997,-4.8172,-4.8324,-4.8324,-4.8324,-4.8324,-4.8324,-4.8324,-4.8324,-4.8248,-4.7917,-4.7638,-4.7858,-4.7777,-4.7718,-4.7957,-4.8191,-4.8305,-4.8324,-4.8324,-4.8324,-4.8345,-4.8779,-4.9171,-4.9518,-4.9987,-5.041,-5.0624,-5.0673,-5.0453,-4.9806,-4.9974,-4.9905,-4.9367,-4.8961,-4.8761,-4.8586,-4.8495,-4.8532,-4.8812,-4.9171,-4.9678,-5.0099,-5.0432,-5.0663,-5.0683,-5.0683,-5.0683,-5.0683,-5.0683,-5.0683,-5.9786,-5.8207,-5.7326,-5.5995,-5.4369,-5.3534,-5.3185,-5.3164,-5.2937,-5.2684,-5.2422,-5.1994,-5.1765,-5.1519,-4.9941,-4.9177,-4.9254,-4.8421,-4.8114,-4.8287,-4.8324,-4.8324,-4.8267,-4.8094,-4.7554,-4.6847,-4.6914,-4.643,-4.5358,-4.4548,-4.3605,-4.2569,-4.194,-4.1262,-4.0843,-4.1262,-4.1371,-4.1195,-4.1759,-4.1963,-4.1583,-4.1569,-4.1572,-4.1438,-4.075,-3.9569,-3.8074,-3.8903,-3.8888,-3.7993,-3.8432,-3.8895,-3.9008,-4.0047,-4.107,-4.1912,-4.3502,-4.4948,-4.587,-4.6861,-4.7449,-4.7677,-4.8035,-4.8324,-4.8324,-4.8324,-4.8324,-4.8324,-4.8324,-4.8324,-4.8324,-4.8324,-4.8324,-4.8267,-4.8132,-4.8113,-4.8267,-4.8094,-4.8075,-4.8229,-4.8287,-4.8324,-4.8324,-4.8324,-4.8324,-4.8324,-4.8639,-4.9011,-4.9295,-4.9773,-5.0171,-5.0462,-5.0614,-5.0294,-4.98,-4.9746,-4.9485,-4.8961,-4.8745,-4.8532,-4.8458,-4.8364,-4.8439,-4.8727,-4.9155,-4.9678,-5.0123,-5.0483,-5.0624,-5.0683,-5.0683,-5.0683,-5.0683,-5.0683,-5.0683,-5.9767,-5.8134,-5.7326,-5.5939,-5.4301,-5.3497,-5.3185,-5.3103,-5.2513,-5.2617,-5.2875,-5.1801,-5.1317,-5.1012,-5.0051,-4.9364,-4.881,-4.7868,-4.7718,-4.8267,-4.8324,-4.8324,-4.8267,-4.7738,-4.7363,-4.7066,-4.6618,-4.6046,-4.5398,-4.461,-4.3858,-4.3143,-4.1937,-4.1129,-4.0222,-4.1044,-4.1307,-4.1417,-4.2036,-4.2356,-4.2303,-4.2385,-4.2426,-4.2469,-4.2878,-4.1836,-3.906,-4.0246,-4.029,-3.9047,-4.0608,-4.1869,-4.1693,-4.2367,-4.3206,-4.3934,-4.4835,-4.5925,-4.7118,-4.7406,-4.7756,-4.8094,-4.8287,-4.8324,-4.8324,-4.8324,-4.8324,-4.8324,-4.8324,-4.8324,-4.8324,-4.8324,-4.8324,-4.8267,-4.7935,-4.7856,-4.8093,-4.7797,-4.7635,-4.8152,-4.8324,-4.8324,-4.8324,-4.8324,-4.8324,-4.8382,-4.8586,-4.8863,-4.9013,-4.9518,-4.9962,-5.0147,-5.0249,-5.008,-4.976,-4.9464,-4.898,-4.8568,-4.8477,-4.8363,-4.8383,-4.8364,-4.8477,-4.8744,-4.9311,-4.9846,-5.0336,-5.0653,-5.0663,-5.0683,-5.0683,-5.0683,-5.0683,-5.0683,-5.0683,-5.9475,-5.7435,-5.7116,-5.5659,-5.3692,-5.3298,-5.3185,-5.3185,-5.2937,-5.298,-5.2999,-5.2219,-5.1783,-5.1222,-4.9536,-4.8796,-4.9197,-4.7638,-4.7281,-4.8172,-4.8324,-4.8324,-4.8191,-4.7677,-4.6932,-4.6112,-4.5459,-4.5089,-4.4797,-4.4112,-4.3557,-4.3197,-4.2436,-4.1863,-4.1576,-4.1847,-4.1965,-4.2049,-4.2692,-4.3037,-4.3115,-4.3589,-4.3842,-4.3921,-4.4096,-4.3418,-4.2028,-4.2329,-4.2008,-4.0884,-4.158,-4.1981,-4.222,-4.3149,-4.4102,-4.4887,-4.6057,-4.7038,-4.782,-4.8015,-4.8075,-4.8267,-4.8324,-4.8324,-4.8324,-4.8324,-4.8324,-4.8324,-4.8324,-4.8324,-4.8324,-4.8324,-4.8324,-4.8324,-4.8114,-4.8055,-4.8229,-4.8132,-4.8132,-4.8248,-4.8324,-4.8324,-4.8324,-4.8324,-4.8324,-4.8324,-4.8439,-4.8568,-4.888,-4.9105,-4.9397,-4.9631,-4.976,-4.9813,-4.9445,-4.9155,-4.8881,-4.8532,-4.8364,-4.8324,-4.8326,-4.8513,-4.8604,-4.8947,-4.9489,-4.9981,-5.0472,-5.0683,-5.0683,-5.0683,-5.0683,-5.0683,-5.0683,-5.0683,-5.0683,-5.8806,-5.7163,-5.6544,-5.5305,-5.365,-5.3353,-5.3185,-5.3185,-5.3185,-5.3185,-5.302,-5.2154,-5.1734,-5.1176,-4.899,-4.8452,-4.9079,-4.7583,-4.7375,-4.8189,-4.8324,-4.8324,-4.8172,-4.7406,-4.6377,-4.532,-4.4803,-4.4598,-4.4581,-4.4113,-4.3707,-4.3352,-4.2929,-4.254,-4.2371,-4.2591,-4.2709,-4.2828,-4.347,-4.3859,-4.3944,-4.4361,-4.4598,-4.4598,-4.4598,-4.4327,-4.3798,-4.3785,-4.3229,-4.2316,-4.23,-4.2614,-4.2998,-4.4248,-4.5217,-4.5772,-4.6887,-4.7899,-4.8267,-4.8267,-4.8324,-4.8324,-4.8324,-4.8324,-4.8324,-4.8324,-4.8324,-4.8324,-4.8324,-4.8324,-4.8324,-4.8324,-4.8324,-4.8324,-4.8287,-4.8324,-4.8324,-4.8324,-4.8305,-4.8324,-4.8324,-4.8324,-4.8324,-4.8324,-4.8324,-4.8324,-4.8324,-4.8344,-4.8658,-4.8795,-4.9043,-4.9265,-4.9475,-4.9371,-4.9011,-4.8846,-4.8745,-4.8513,-4.8325,-4.8324,-4.8325,-4.8621,-4.8829,-4.9322,-4.9853,-5.0123,-5.0584,-5.0663,-5.0683,-5.0683,-5.0683,-5.0683,-5.0683,-5.0683,-5.0663,-5.7899,-5.7262,-5.5771,-5.483,-5.4145,-5.35,-5.3185,-5.3185,-5.3185,-5.3146,-5.2809,-5.1734,-5.1112,-5.0567,-4.8684,-4.8096,-4.8446,-4.7758,-4.7662,-4.8143,-4.8287,-4.8249,-4.7997,-4.7132,-4.6063,-4.4944,-4.4748,-4.4665,-4.4598,-4.4513,-4.4215,-4.3623,-4.3521,-4.3166,-4.2861,-4.3166,-4.3487,-4.3589,-4.4181,-4.4513,-4.453,-4.4553,-4.4598,-4.4598,-4.4598,-4.4542,-4.4468,-4.444,-4.3798,-4.252,-4.3031,-4.368,-4.4558,-4.5732,-4.6252,-4.6348,-4.7575,-4.8132,-4.8305,-4.8324,-4.8324,-4.8324,-4.8324,-4.8324,-4.8324,-4.8324,-4.8324,-4.8324,-4.8416,-4.8471,-4.8489,-4.8489,-4.8453,-4.8324,-4.8324,-4.8324,-4.8324,-4.8324,-4.8324,-4.8324,-4.8324,-4.8324,-4.8324,-4.8324,-4.8324,-4.8324,-4.8324,-4.8344,-4.8383,-4.8604,-4.8796,-4.8963,-4.9094,-4.8978,-4.8674,-4.8657,-4.855,-4.8477,-4.8344,-4.8383,-4.8532,-4.8897,-4.9322,-4.9794,-5.0104,-5.0347,-5.0534,-5.0634,-5.0683,-5.0683,-5.0683,-5.0683,-5.0683,-5.0683,-5.0565,-5.758,-5.6536,-5.551,-5.4494,-5.3579,-5.3259,-5.3185,-5.3185,-5.3185,-5.2897,-5.2312,-5.1487,-5.0796,-5.0074,-4.8116,-4.7657,-4.8194,-4.7356,-4.7357,-4.8189,-4.8324,-4.8017,-4.7695,-4.7302,-4.6454,-4.5407,-4.5188,-4.5035,-4.4626,-4.4637,-4.4524,-4.4299,-4.4281,-4.4175,-4.409,-4.4141,-4.4276,-4.431,-4.4462,-4.4598,-4.4598,-4.4598,-4.4598,-4.4598,-4.4598,-4.4598,-4.4598,-4.4598,-4.4468,-4.4018,-4.4093,-4.4327,-4.4703,-4.5732,-4.6413,-4.6646,-4.7554,-4.8324,-4.8306,-4.8325,-4.8306,-4.8324,-4.8344,-4.8324,-4.8324,-4.8324,-4.8324,-4.8416,-4.8802,-4.9243,-4.9262,-4.9243,-4.8985,-4.8434,-4.8324,-4.8324,-4.8324,-4.8324,-4.8324,-4.8324,-4.8324,-4.8324,-4.8324,-4.8324,-4.8324,-4.8324,-4.8324,-4.8324,-4.8345,-4.8364,-4.8568,-4.8495,-4.8532,-4.8513,-4.8458,-4.844,-4.8402,-4.8382,-4.8383,-4.8513,-4.8881,-4.9356,-4.9866,-5.0421,-5.038,-5.0565,-5.0614,-5.0683,-5.0683,-5.0683,-5.0683,-5.0683,-5.0683,-5.0683,-5.0493,-5.6477,-5.5456,-5.4641,-5.3867,-5.3225,-5.3185,-5.3185,-5.3185,-5.3185,-5.2809,-5.2065,-5.1393,-5.0689,-4.9837,-4.8119,-4.7778,-4.8451,-4.7462,-4.7487,-4.8152,-4.8324,-4.7975,-4.753,-4.7385,-4.6864,-4.594,-4.5622,-4.5459,-4.532,-4.5115,-4.4998,-4.4964,-4.4971,-4.4852,-4.453,-4.4598,-4.4598,-4.4581,-4.4598,-4.4598,-4.4598,-4.4598,-4.4598,-4.4598,-4.4598,-4.4598,-4.4598,-4.4598,-4.4598,-4.457,-4.4598,-4.4692,-4.5035,-4.5865,-4.6524,-4.6801,-4.7777,-4.8364,-4.8532,-4.855,-4.855,-4.855,-4.8568,-4.8458,-4.8363,-4.8324,-4.8361,-4.8893,-4.9353,-4.9721,-4.9976,-4.9831,-4.9206,-4.8489,-4.8324,-4.8324,-4.8324,-4.8324,-4.8324,-4.8324,-4.8324,-4.8324,-4.8324,-4.8324,-4.8324,-4.8324,-4.8324,-4.8324,-4.8306,-4.8324,-4.8324,-4.8324,-4.8344,-4.8402,-4.8477,-4.8495,-4.8604,-4.855,-4.8711,-4.8813,-4.9187,-4.9719,-5.0147,-5.0544,-5.0624,-5.0683,-5.0683,-5.0683,-5.0683,-5.0683,-5.0683,-5.0683,-5.0683,-5.0683,-5.0493,-5.5042,-5.4344,-5.3537,-5.3185,-5.3185,-5.3185,-5.3185,-5.3185,-5.3042,-5.2617,-5.1904,-5.1249,-5.049,-4.9827,-4.8531,-4.8258,-4.8675,-4.7997,-4.7979,-4.8176,-4.8172,-4.7879,-4.7674,-4.7614,-4.7194,-4.6548,-4.5933,-4.5989,-4.6039,-4.5757,-4.5563,-4.5433,-4.5451,-4.5142,-4.472,-4.4598,-4.4598,-4.4598,-4.4598,-4.4598,-4.4598,-4.4598,-4.4598,-4.4598,-4.4598,-4.4598,-4.4598,-4.4598,-4.4598,-4.4598,-4.4598,-4.4879,-4.5433,-4.6063,-4.6738,-4.7395,-4.8041,-4.8568,-4.888,-4.8963,-4.8913,-4.8863,-4.8846,-4.8709,-4.842,-4.8324,-4.8618,-4.939,-4.9665,-5.0105,-5.0453,-5.0123,-4.9352,-4.86,-4.8324,-4.8324,-4.8324,-4.8324,-4.8324,-4.8324,-4.8324,-4.8324,-4.8324,-4.8324,-4.8324,-4.8324,-4.8324,-4.8324,-4.8324,-4.8324,-4.8324,-4.8324,-4.8345,-4.8421,-4.8513,-4.8568,-4.8744,-4.8863,-4.9142,-4.9311,-4.9532,-4.9949,-5.0283,-5.0544,-5.0634,-5.0683,-5.0683,-5.0683,-5.0683,-5.0683,-5.0683,-5.0683,-5.0683,-5.0683,-5.0565,-5.4564,-5.4344,-5.3555,-5.3185,-5.3185,-5.3185,-5.3185,-5.3164,-5.2599,-5.2065,-5.1292,-5.0581,-4.9936,-4.9235,-4.8844,-4.8702,-4.8714,-4.8452,-4.8394,-4.8206,-4.7777,-4.7877,-4.7995,-4.8055,-4.7756,-4.7237,-4.7084,-4.6801,-4.6483,-4.6336,-4.5965,-4.5597,-4.5648,-4.5205,-4.4703,-4.4665,-4.4598,-4.4598,-4.4598,-4.4598,-4.4598,-4.4598,-4.4598,-4.4598,-4.4598,-4.4598,-4.4598,-4.4598,-4.4598,-4.4598,-4.4626,-4.4879,-4.5537,-4.6119,-4.6887,-4.7795,-4.8439,-4.8965,-4.928,-4.9356,-4.9237,-4.9036,-4.9059,-4.8745,-4.8363,-4.8416,-4.8783,-4.9499,-5.016,-5.0618,-5.0729,-5.0674,-4.9774,-4.8746,-4.8324,-4.8306,-4.8324,-4.8324,-4.8324,-4.8324,-4.8324,-4.8324,-4.8324,-4.8324,-4.8324,-4.8324,-4.8324,-4.8324,-4.8324,-4.8324,-4.8324,-4.8324,-4.8325,-4.8402,-4.8604,-4.8745,-4.8996,-4.9171,-4.9431,-4.965,-4.9866,-5.0159,-5.0483,-5.0614,-5.0673,-5.0683,-5.0683,-5.0683,-5.0683,-5.0683,-5.0683,-5.0683,-5.0683,-5.0683,-5.0663,-5.4179,-5.3812,-5.3369,-5.3185,-5.3185,-5.3185,-5.3185,-5.3143,-5.2809,-5.2036,-5.1181,-5.0653,-5.0118,-4.9453,-4.9067,-4.8925,-4.8996,-4.8649,-4.8415,-4.8247,-4.7957,-4.8035,-4.8209,-4.8305,-4.8113,-4.7816,-4.7509,-4.7281,-4.7237,-4.6977,-4.6728,-4.6407,-4.6336,-4.5933,-4.5142,-4.4971,-4.4852,-4.4637,-4.4598,-4.4598,-4.4598,-4.4598,-4.4598,-4.4598,-4.4598,-4.4598,-4.4598,-4.4598,-4.4598,-4.4598,-4.4626,-4.5025,-4.5823,-4.6418,-4.7235,-4.8255,-4.8907,-4.9356,-4.9678,-4.9779,-4.9792,-4.9746,-4.9752,-4.9425,-4.9233,-4.9205,-4.9646,-5.0196,-5.0802,-5.1242,-5.0875,-5.0802,-4.9994,-4.8783,-4.8324,-4.8364,-4.8514,-4.8439,-4.8324,-4.8324,-4.8324,-4.8324,-4.8324,-4.8324,-4.8324,-4.8324,-4.8324,-4.8324,-4.8324,-4.8324,-4.8324,-4.8324,-4.8324,-4.842,-4.8657,-4.8913,-4.9234,-4.9445,-4.9678,-4.9827,-4.9999,-5.0336,-5.0663,-5.0683,-5.0683,-5.0683,-5.0683,-5.0683,-5.0683,-5.0683,-5.0683,-5.0683,-5.0683,-5.0683,-5.0663,-5.3876,-5.3185,-5.3185,-5.3185,-5.3185,-5.3185,-5.3185,-5.3185,-5.3082,-5.2196,-5.1215,-5.1008,-5.0362,-4.9962,-4.9521,-4.9507,-4.9469,-4.8755,-4.8304,-4.8286,-4.8055,-4.8114,-4.821,-4.8172,-4.8152,-4.821,-4.7838,-4.7818,-4.7957,-4.7816,-4.7406,-4.7324,-4.7172,-4.6425,-4.5673,-4.5346,-4.5052,-4.4654,-4.4598,-4.4598,-4.4598,-4.4598,-4.4598,-4.4598,-4.4598,-4.4598,-4.4598,-4.4598,-4.4598,-4.4598,-4.4598,-4.5258,-4.6139,-4.6829,-4.7614,-4.8839,-4.9371,-4.9887,-5.0373,-5.0404,-5.0474,-5.0839,-5.0782,-5.0449,-5.01,-5.0233,-5.0637,-5.1132,-5.161,-5.1867,-5.1132,-5.1096,-5.0233,-4.9041,-4.8565,-4.8661,-4.8763,-4.8604,-4.8568,-4.8439,-4.8495,-4.8495,-4.8382,-4.8324,-4.8324,-4.8324,-4.8324,-4.8324,-4.8324,-4.8324,-4.8324,-4.8324,-4.8324,-4.8658,-4.893,-4.8911,-4.9265,-4.98,-4.9993,-5.0056,-5.0183,-5.0432,-5.0683,-5.0683,-5.0683,-5.0683,-5.0683,-5.0683,-5.0683,-5.0683,-5.0683,-5.0683,-5.0683,-5.0683,-5.0663,-5.3635,-5.3185,-5.3185,-5.3185,-5.3185,-5.3185,-5.3185,-5.3082,-5.2617,-5.1856,-5.1138,-5.0517,-5.0279,-5.0109,-5.0584,-5.0641,-5.001,-4.8963,-4.8324,-4.821,-4.7957,-4.7897,-4.8191,-4.7975,-4.7917,-4.8173,-4.8114,-4.8172,-4.8248,-4.8172,-4.7838,-4.7388,-4.6914,-4.624,-4.5648,-4.5079,-4.4841,-4.4654,-4.4598,-4.4598,-4.4598,-4.4598,-4.4598,-4.4598,-4.4598,-4.4598,-4.4598,-4.4598,-4.4598,-4.4598,-4.4598,-4.5241,-4.6139,-4.6744,-4.777,-4.9043,-4.9814,-5.0455,-5.1207,-5.125,-5.1374,-5.1571,-5.1453,-5.108,-5.076,-5.0802,-5.1316,-5.183,-5.238,-5.2637,-5.1885,-5.1665,-5.0987,-4.9964,-4.9492,-4.9521,-4.9172,-4.908,-4.9062,-4.8847,-4.8779,-4.8621,-4.8439,-4.8324,-4.8324,-4.8324,-4.8324,-4.8324,-4.8324,-4.8324,-4.8324,-4.8324,-4.8324,-4.8797,-4.9283,-4.9139,-4.9246,-5.0068,-5.0336,-5.0302,-5.0421,-5.0575,-5.0683,-5.0683,-5.0683,-5.0683,-5.0683,-5.0683,-5.0683,-5.0683,-5.0683,-5.0683,-5.0683,-5.0683,-5.0683,-5.3565,-5.3206,-5.3185,-5.3185,-5.3185,-5.3185,-5.3185,-5.3164,-5.2809,-5.2247,-5.1667,-5.1249,-5.1094,-5.0959,-5.0432,-5.0087,-4.9373,-4.882,-4.8324,-4.8191,-4.8035,-4.7977,-4.8287,-4.7975,-4.8055,-4.8248,-4.8324,-4.8324,-4.8324,-4.8305,-4.8113,-4.7818,-4.7237,-4.6612,-4.5982,-4.5425,-4.4906,-4.4692,-4.4598,-4.4598,-4.4598,-4.4598,-4.4598,-4.4598,-4.4598,-4.4598,-4.4598,-4.4598,-4.4598,-4.4598,-4.4598,-4.5098,-4.5845,-4.6722,-4.7733,-4.9258,-5.0246,-5.1017,-5.18,-5.189,-5.2178,-5.2484,-5.2178,-5.1788,-5.1661,-5.183,-5.216,-5.2546,-5.2784,-5.2876,-5.205,-5.2052,-5.1389,-5.0553,-5.0231,-5.0082,-4.9846,-4.9649,-4.9435,-4.9224,-4.8963,-4.8728,-4.8383,-4.8324,-4.8324,-4.8324,-4.8324,-4.8324,-4.8324,-4.8324,-4.8324,-4.8324,-4.8344,-4.878,-4.9283,-4.9311,-4.9426,-5.0195,-5.0594,-5.0544,-5.0554,-5.0663,-5.0683,-5.0683,-5.0683,-5.0683,-5.0683,-5.0683,-5.0683,-5.0683,-5.0683,-5.0683,-5.0683,-5.0683,-5.0683,-5.3624,-5.3185,-5.3185,-5.3185,-5.3185,-5.3185,-5.3185,-5.3185,-5.3185,-5.2729,-5.2159,-5.2047,-5.2024,-5.1697,-5.0642,-4.9492,-4.86,-4.8471,-4.8324,-4.8305,-4.8267,-4.8287,-4.8287,-4.8324,-4.8287,-4.8267,-4.8324,-4.8324,-4.8324,-4.8324,-4.8248,-4.7836,-4.7449,-4.6887,-4.6136,-4.5425,-4.5052,-4.4759,-4.4598,-4.4598,-4.4598,-4.4598,-4.4598,-4.4598,-4.4598,-4.4654,-4.4824,-4.4852,-4.4869,-4.4852,-4.4879,-4.5089,-4.5697,-4.644,-4.7692,-4.9333,-5.0626,-5.1438,-5.2141,-5.2616,-5.3014,-5.339,-5.302,-5.2641,-5.2453,-5.2656,-5.3075,-5.3185,-5.3167,-5.3023,-5.2472,-5.2289,-5.1867,-5.1291,-5.0898,-5.068,-5.0481,-5.0231,-4.9859,-4.9551,-4.918,-4.8799,-4.8457,-4.8324,-4.8324,-4.8324,-4.8324,-4.8324,-4.8324,-4.8324,-4.8324,-4.8324,-4.8439,-4.878,-4.9158,-4.9445,-4.9773,-5.0421,-5.0634,-5.0624,-5.0653,-5.0683,-5.0683,-5.0683,-5.0683,-5.0683,-5.0683,-5.0683,-5.0683,-5.0683,-5.0683,-5.0683,-5.0683,-5.0683,-5.0683,-5.3943,-5.3185,-5.3185,-5.3185,-5.3185,-5.3185,-5.3185,-5.3185,-5.3185,-5.2769,-5.2183,-5.2136,-5.2159,-5.1818,-5.1095,-5.0169,-4.9388,-4.8636,-4.8324,-4.8324,-4.8324,-4.8324,-4.8324,-4.8324,-4.8324,-4.8324,-4.8324,-4.8324,-4.8324,-4.8324,-4.8015,-4.7533,-4.6955,-4.624,-4.5749,-4.5258,-4.4682,-4.4598,-4.4598,-4.4598,-4.4598,-4.4598,-4.4598,-4.4598,-4.4626,-4.4841,-4.5205,-4.5284,-4.532,-4.5399,-4.5355,-4.5699,-4.6192,-4.6365,-4.7605,-4.9166,-5.062,-5.1801,-5.276,-5.3345,-5.3755,-5.3997,-5.3751,-5.3458,-5.3116,-5.3023,-5.3185,-5.3185,-5.3185,-5.313,-5.2968,-5.3004,-5.2601,-5.2373,-5.2156,-5.1654,-5.1239,-5.0803,-5.0413,-4.9875,-4.9495,-4.8967,-4.8529,-4.8418,-4.8324,-4.8324,-4.8324,-4.8343,-4.8324,-4.8324,-4.8324,-4.8324,-4.8514,-4.8847,-4.9234,-4.9504,-5.0012,-5.0623,-5.0712,-5.0702,-5.0683,-5.0683,-5.0683,-5.0683,-5.0683,-5.0683,-5.0683,-5.0683,-5.0683,-5.0683,-5.0683,-5.0683,-5.0683,-5.0683,-5.0712,-5.3979,-5.3206,-5.3185,-5.3185,-5.3185,-5.3185,-5.3185,-5.3185,-5.3185,-5.302,-5.2751,-5.2707,-5.2488,-5.197,-5.1161,-5.0362,-4.9555,-4.8691,-4.8324,-4.8324,-4.8324,-4.8324,-4.8324,-4.8324,-4.8324,-4.8324,-4.8324,-4.8324,-4.8324,-4.8248,-4.7995,-4.7363,-4.6751,-4.6119,-4.5563,-4.5258,-4.4917,-4.4703,-4.4598,-4.4598,-4.4598,-4.4598,-4.4598,-4.4598,-4.4598,-4.4971,-4.5372,-4.5511,-4.5707,-4.5833,-4.5757,-4.5783,-4.624,-4.6507,-4.7158,-4.8528,-5.0629,-5.2094,-5.3064,-5.3784,-5.4219,-5.422,-5.3906,-5.3343,-5.3209,-5.3185,-5.3185,-5.3185,-5.3185,-5.3185,-5.3185,-5.3185,-5.302,-5.2924,-5.3046,-5.2754,-5.2096,-5.1443,-5.0957,-5.0378,-4.9867,-4.9468,-4.9028,-4.8785,-4.871,-4.8655,-4.8618,-4.8563,-4.8453,-4.8324,-4.8324,-4.8324,-4.8586,-4.8897,-4.9341,-4.9706,-5.0156,-5.0661,-5.0818,-5.0808,-5.0702,-5.0683,-5.0779,-5.0741,-5.0683,-5.0683,-5.0683,-5.0683,-5.0683,-5.0683,-5.0683,-5.0683,-5.0683,-5.075,-5.102,-5.387,-5.3206,-5.3185,-5.3185,-5.3185,-5.3185,-5.3185,-5.3185,-5.3185,-5.3185,-5.3185,-5.3127,-5.2745,-5.1958,-5.1149,-5.0362,-4.9555,-4.8691,-4.8379,-4.8324,-4.8324,-4.8324,-4.8324,-4.8324,-4.8324,-4.8324,-4.8324,-4.8324,-4.8324,-4.8229,-4.7917,-4.7172,-4.6641,-4.607,-4.5622,-4.5258,-4.4917,-4.4637,-4.4598,-4.4598,-4.4598,-4.4598,-4.4598,-4.4654,-4.4786,-4.5115,-4.5648,-4.6007,-4.6329,-4.643,-4.6353,-4.6377,-4.6682,-4.6806,-4.7478,-4.8846,-5.0764,-5.2147,-5.316,-5.3954,-5.4408,-5.4171,-5.3739,-5.323,-5.3206,-5.3185,-5.3185,-5.3185,-5.3185,-5.3185,-5.3185,-5.3185,-5.313,-5.3222,-5.342,-5.3339,-5.3172,-5.2525,-5.1813,-5.1185,-5.071,-5.0303,-4.9841,-4.9355,-4.9132,-4.9022,-4.893,-4.8876,-4.8877,-4.8879,-4.886,-4.9009,-4.9102,-4.9349,-4.951,-4.994,-5.0382,-5.0879,-5.1057,-5.1087,-5.1125,-5.1048,-5.1048,-5.0952,-5.0721,-5.0683,-5.0683,-5.0683,-5.0683,-5.0683,-5.0683,-5.0683,-5.0712,-5.0827,-5.1385,-5.3585,-5.3185,-5.3185,-5.3185,-5.3185,-5.3185,-5.3185,-5.3103,-5.3164,-5.3185,-5.3185,-5.3148,-5.2784,-5.2013,-5.1224,-5.0398,-4.961,-4.871,-4.8398,-4.8324,-4.8324,-4.8324,-4.8324,-4.8324,-4.8324,-4.8324,-4.8324,-4.8324,-4.8324,-4.8305,-4.7575,-4.6618,-4.6641,-4.6094,-4.5571,-4.5152,-4.4961,-4.472,-4.4637,-4.4598,-4.4598,-4.4598,-4.4643,-4.4776,-4.5152,-4.5707,-4.6336,-4.6796,-4.715,-4.7281,-4.7084,-4.7128,-4.7259,-4.7176,-4.7925,-4.9436,-5.0705,-5.1987,-5.2953,-5.397,-5.4408,-5.3977,-5.3504,-5.3185,-5.3185,-5.3185,-5.3185,-5.3185,-5.3185,-5.3185,-5.3185,-5.3185,-5.3206,-5.3431,-5.3699,-5.3863,-5.3785,-5.3617,-5.2895,-5.2115,-5.1553,-5.1138,-5.1039,-5.0622,-5.0086,-4.9958,-5.0062,-5.0026,-5.0211,-5.0212,-5.0008,-4.9991,-4.9948,-4.9968,-4.9847,-5.031,-5.1105,-5.1725,-5.2086,-5.1933,-5.1769,-5.1645,-5.1375,-5.0933,-5.0683,-5.0683,-5.0683,-5.0683,-5.0683,-5.0683,-5.0702,-5.0779,-5.1144,-5.1491,-5.2125,-5.3584,-5.3206,-5.3185,-5.3185,-5.3185,-5.3185,-5.2937,-5.2662,-5.298,-5.3185,-5.3185,-5.3167,-5.302,-5.2454,-5.1371,-5.0674,-5.0141,-4.8857,-4.8471,-4.8324,-4.8324,-4.8324,-4.8324,-4.8324,-4.8324,-4.8324,-4.8324,-4.8324,-4.8324,-4.8324,-4.7838,-4.7259,-4.6999,-4.6312,-4.5732,-4.5303,-4.5178,-4.4971,-4.4786,-4.4598,-4.4598,-4.4626,-4.4776,-4.5196,-4.5267,-4.6063,-4.6864,-4.7216,-4.7572,-4.7756,-4.7593,-4.7692,-4.7868,-4.7687,-4.8391,-4.9805,-5.0897,-5.1786,-5.2549,-5.3598,-5.3976,-5.3604,-5.3274,-5.3227,-5.3272,-5.3206,-5.3185,-5.3185,-5.3206,-5.3185,-5.3206,-5.3227,-5.3295,-5.3624,-5.3938,-5.4204,-5.4223,-5.4049,-5.368,-5.2762,-5.2309,-5.1937,-5.1964,-5.1995,-5.1426,-5.0951,-5.106,-5.1213,-5.1399,-5.1527,-5.1322,-5.111,-5.1078,-5.1126,-5.1039,-5.1464,-5.1971,-5.2496,-5.3058,-5.2827,-5.2538,-5.1923,-5.1596,-5.1106,-5.0702,-5.0683,-5.0683,-5.0683,-5.0683,-5.0683,-5.0798,-5.0933,-5.1433,-5.2019,-5.2818,-5.3464,-5.3206,-5.3185,-5.3185,-5.3185,-5.3185,-5.2915,-5.2595,-5.2999,-5.3185,-5.3185,-5.3185,-5.3185,-5.2745,-5.1573,-5.082,-5.0288,-4.9187,-4.8508,-4.8324,-4.8324,-4.8324,-4.8324,-4.8324,-4.8324,-4.8324,-4.8324,-4.8324,-4.8324,-4.8324,-4.7897,-4.7572,-4.753,-4.6977,-4.6377,-4.5815,-4.5622,-4.5178,-4.4879,-4.4598,-4.4598,-4.4626,-4.4879,-4.5425,-4.5673,-4.6305,-4.7128,-4.7572,-4.7879,-4.7997,-4.8014,-4.8101,-4.8289,-4.8547,-4.8942,-5.0013,-5.1023,-5.1784,-5.246,-5.2976,-5.3564,-5.3484,-5.3254,-5.3359,-5.3462,-5.338,-5.323,-5.3402,-5.3297,-5.323,-5.3314,-5.3318,-5.3402,-5.3683,-5.4154,-5.4434,-5.4383,-5.4238,-5.3902,-5.3384,-5.3045,-5.2753,-5.259,-5.264,-5.2443,-5.2083,-5.2322,-5.2438,-5.2512,-5.2615,-5.2656,-5.2419,-5.2229,-5.2325,-5.2444,-5.2801,-5.3129,-5.3477,-5.3857,-5.3683,-5.3318,-5.2673,-5.1981,-5.1481,-5.1106,-5.0818,-5.0712,-5.075,-5.0731,-5.0683,-5.0837,-5.0991,-5.1683,-5.2337,-5.326,-5.3248,-5.3185,-5.3185,-5.3185,-5.3185,-5.3185,-5.3143,-5.2937,-5.3042,-5.3124,-5.3185,-5.3185,-5.3185,-5.2837,-5.1628,-5.0986,-5.0472,-4.9205,-4.8398,-4.8343,-4.8324,-4.8324,-4.8324,-4.8324,-4.8324,-4.8324,-4.8324,-4.8324,-4.8324,-4.8324,-4.7937,-4.7777,-4.7858,-4.7736,-4.7299,-4.6664,-4.5783,-4.4814,-4.4626,-4.4598,-4.4598,-4.4665,-4.5062,-4.5597,-4.6161,-4.6819,-4.7449,-4.7917,-4.8172,-4.8191,-4.8229,-4.8521,-4.9183,-4.9294,-5.0026,-5.152,-5.1761,-5.2332,-5.3083,-5.3193,-5.3442,-5.3663,-5.3505,-5.3624,-5.4033,-5.3833,-5.3464,-5.3777,-5.3524,-5.3504,-5.3504,-5.3505,-5.3586,-5.3924,-5.4404,-5.4579,-5.4527,-5.4282,-5.3915,-5.3634,-5.3664,-5.3589,-5.3328,-5.3175,-5.3222,-5.3256,-5.355,-5.3647,-5.362,-5.3766,-5.386,-5.3669,-5.3436,-5.3429,-5.3594,-5.3969,-5.4308,-5.4607,-5.4626,-5.4414,-5.4107,-5.3549,-5.2837,-5.2,-5.1683,-5.151,-5.1135,-5.0808,-5.1154,-5.1471,-5.0991,-5.1144,-5.1856,-5.2722,-5.3722,-5.3424,-5.3206,-5.3185,-5.3185,-5.3185,-5.3185,-5.2955,-5.2513,-5.249,-5.2747,-5.3124,-5.3185,-5.3185,-5.2818,-5.2142,-5.1261,-5.06,-4.9829,-4.9003,-4.8324,-4.8324,-4.8324,-4.8324,-4.8324,-4.8324,-4.8324,-4.8324,-4.8324,-4.8324,-4.8324,-4.8248,-4.8114,-4.8075,-4.7677,-4.6955,-4.6359,-4.5808,-4.4824,-4.4598,-4.4598,-4.4637,-4.4998,-4.5459,-4.6063,-4.6728,-4.732,-4.7877,-4.821,-4.8287,-4.8324,-4.8324,-4.8765,-4.95,-4.9684,-5.0398,-5.1628,-5.2052,-5.253,-5.3245,-5.3605,-5.3663,-5.3814,-5.396,-5.3978,-5.4013,-5.4154,-5.4137,-5.4119,-5.3851,-5.3906,-5.4085,-5.3833,-5.3905,-5.4446,-5.4804,-5.4779,-5.4663,-5.4232,-5.3884,-5.3684,-5.3644,-5.3663,-5.3526,-5.3525,-5.3584,-5.3888,-5.4171,-5.4385,-5.4417,-5.4844,-5.5066,-5.4836,-5.4637,-5.458,-5.4674,-5.4748,-5.4914,-5.5126,-5.5145,-5.503,-5.4684,-5.4241,-5.3414,-5.2491,-5.2356,-5.2222,-5.1875,-5.1722,-5.2202,-5.2337,-5.1933,-5.1914,-5.2645,-5.3491,-5.4376,-5.3565,-5.3206,-5.3185,-5.3185,-5.3185,-5.3185,-5.2915,-5.2531,-5.249,-5.2787,-5.3124,-5.3185,-5.3185,-5.2947,-5.2362,-5.1555,-5.0765,-4.9939,-4.9114,-4.8398,-4.8324,-4.8324,-4.8324,-4.8324,-4.8324,-4.8324,-4.8324,-4.8324,-4.8324,-4.8324,-4.8267,-4.8267,-4.8267,-4.7572,-4.6824,-4.6288,-4.5808,-4.4917,-4.4598,-4.4748,-4.4944,-4.5329,-4.5865,-4.6571,-4.7176,-4.7656,-4.8113,-4.8324,-4.8324,-4.8324,-4.8453,-4.8893,-4.9591,-5.0198,-5.0839,-5.1885,-5.2514,-5.3023,-5.3739,-5.4049,-5.4135,-5.4336,-5.4468,-5.45,-5.435,-5.45,-5.4582,-5.45,-5.4253,-5.4369,-5.4547,-5.4236,-5.4352,-5.4876,-5.4862,-5.4823,-5.4671,-5.4255,-5.3977,-5.3796,-5.3663,-5.3683,-5.3758,-5.3851,-5.3906,-5.4322,-5.472,-5.4924,-5.5088,-5.5423,-5.5684,-5.5481,-5.5346,-5.5198,-5.5141,-5.5162,-5.5376,-5.5645,-5.5568,-5.5395,-5.5145,-5.4664,-5.3799,-5.3087,-5.2933,-5.2799,-5.2664,-5.2702,-5.2972,-5.3145,-5.3049,-5.3203,-5.3606,-5.4184,-5.4876,-5.3585,-5.3227,-5.3185,-5.3185,-5.3185,-5.3185,-5.3164,-5.3164,-5.3164,-5.3164,-5.3185,-5.3185,-5.3185,-5.3059,-5.2399,-5.1628,-5.0857,-5.0031,-4.9187,-4.8545,-4.8324,-4.8324,-4.8324,-4.8324,-4.8324,-4.8324,-4.8324,-4.8324,-4.8324,-4.8324,-4.8324,-4.8324,-4.8324,-4.7512,-4.6801,-4.627,-4.5707,-4.4917,-4.4759,-4.4971,-4.5294,-4.5699,-4.6353,-4.7021,-4.7491,-4.7818,-4.8152,-4.8324,-4.8324,-4.8324,-4.8343,-4.9352,-5.016,-5.0765,-5.1811,-5.2635,-5.3096,-5.3587,-5.4202,-5.439,-5.4701,-5.4862,-5.4775,-5.5061,-5.5115,-5.4952,-5.4979,-5.4938,-5.4775,-5.489,-5.4979,-5.4819,-5.4701,-5.4823,-5.4809,-5.4735,-5.4625,-5.4371,-5.4117,-5.3941,-5.3814,-5.3814,-5.3941,-5.4047,-5.435,-5.4785,-5.5121,-5.5147,-5.5319,-5.5458,-5.5673,-5.5684,-5.5588,-5.5626,-5.5588,-5.5491,-5.553,-5.5684,-5.5684,-5.5549,-5.5318,-5.5088,-5.4472,-5.3895,-5.3549,-5.3453,-5.3664,-5.3626,-5.3549,-5.3703,-5.403,-5.3953,-5.4203,-5.4472,-5.503,-5.387,-5.3206,-5.3185,-5.3185,-5.3185,-5.3185,-5.3185,-5.3185,-5.3185,-5.3185,-5.3185,-5.3185,-5.3185,-5.3148,-5.291,-5.2013,-5.1169,-5.0398,-4.9481,-4.8857,-4.8361,-4.8324,-4.8324,-4.8324,-4.8324,-4.8324,-4.8324,-4.8324,-4.8324,-4.8324,-4.8324,-4.8324,-4.8324,-4.7533,-4.6824,-4.6389,-4.5597,-4.5008,-4.4971,-4.5294,-4.58,-4.6281,-4.695,-4.7385,-4.7818,-4.8113,-4.8248,-4.8324,-4.8324,-4.8324,-4.8324,-4.9132,-5.0618,-5.0875,-5.1499,-5.291,-5.3254,-5.3563,-5.4307,-5.4519,-5.4794,-5.5319,-5.5343,-5.5244,-5.5319,-5.5319,-5.535,-5.5269,-5.516,-5.5199,-5.525,-5.5186,-5.5147,-5.516,-5.5075,-5.4909,-5.476,-5.4452,-5.4202,-5.4031,-5.3924,-5.4031,-5.4151,-5.4494,-5.4829,-5.5275,-5.5501,-5.5446,-5.5458,-5.5588,-5.5673,-5.5684,-5.5684,-5.5684,-5.5684,-5.5607,-5.5645,-5.5684,-5.5684,-5.5684,-5.5568,-5.5338,-5.503,-5.4703,-5.4299,-5.4549,-5.5011,-5.4818,-5.4453,-5.4838,-5.5126,-5.4895,-5.4799,-5.5011,-5.5184,-5.3979,-5.323,-5.3185,-5.3185,-5.3185,-5.3185,-5.3185,-5.3185,-5.3185,-5.3185,-5.3185,-5.3185,-5.3185,-5.3185,-5.3093,-5.2509,-5.1353,-5.0839,-5.0031,-4.9132,-4.8434,-4.8343,-4.8324,-4.8324,-4.8324,-4.8324,-4.8324,-4.8324,-4.8324,-4.8324,-4.8324,-4.8324,-4.8324,-4.7533,-4.6761,-4.6294,-4.5707,-4.5232,-4.5115,-4.5563,-4.6178,-4.6882,-4.7342,-4.7777,-4.819,-4.8248,-4.8324,-4.8324,-4.8324,-4.8324,-4.8324,-4.9114,-5.0674,-5.1353,-5.1922,-5.3172,-5.3422,-5.3796,-5.4387,-5.4705,-5.5107,-5.5489,-5.5684,-5.5577,-5.5512,-5.5524,-5.5577,-5.5588,-5.5458,-5.5392,-5.5458,-5.5524,-5.5588,-5.564,-5.5423,-5.5186,-5.4876,-5.4513,-5.4303,-5.4118,-5.4135,-5.4253,-5.4494,-5.4871,-5.5212,-5.547,-5.5566,-5.5477,-5.5489,-5.5546,-5.5651,-5.5684,-5.5684,-5.5684,-5.5684,-5.5684,-5.5684,-5.5684,-5.5684,-5.5684,-5.5684,-5.5607,-5.5357,-5.5203,-5.503,-5.528,-5.5472,-5.5568,-5.5434,-5.5684,-5.5684,-5.5415,-5.5222,-5.5338,-5.5511,-5.3979,-5.3185,-5.3185,-5.3185,-5.3185,-5.3185,-5.3185,-5.3185,-5.3185,-5.3185,-5.3185,-5.3185,-5.3185,-5.3185,-5.3148,-5.2601,-5.1646,-5.0986,-5.0178,-4.9463,-4.8618,-4.8324,-4.8324,-4.8324,-4.8324,-4.8324,-4.8324,-4.8324,-4.8324,-4.8324,-4.8324,-4.8324,-4.8324,-4.7656,-4.6594,-4.6618,-4.6063,-4.5205,-4.5511,-4.6105,-4.6454,-4.7066,-4.7736,-4.8152,-4.8305,-4.8324,-4.8324,-4.8324,-4.8324,-4.8324,-4.8526,-4.9169,-5.0637,-5.2179,-5.2873,-5.3304,-5.3585,-5.4067,-5.4468,-5.4779,-5.5173,-5.5489,-5.5662,-5.561,-5.5588,-5.564,-5.5684,-5.5684,-5.5577,-5.5546,-5.5599,-5.561,-5.5662,-5.5651,-5.5512,-5.5423,-5.5306,-5.4919,-5.4544,-5.4401,-5.4385,-5.4528,-5.4785,-5.516,-5.5356,-5.561,-5.5662,-5.5543,-5.5477,-5.5512,-5.5546,-5.564,-5.5684,-5.5684,-5.5684,-5.5684,-5.5684,-5.5684,-5.5684,-5.5684,-5.5684,-5.5684,-5.5684,-5.5511,-5.5357,-5.5491,-5.5665,-5.5684,-5.5684,-5.5684,-5.5684,-5.5684,-5.5684,-5.5645,-5.5665,-5.3979,-5.3206,-5.3185,-5.3185,-5.3185,-5.3185,-5.3185,-5.3185,-5.3185,-5.3185,-5.3185,-5.3185,-5.3185,-5.3185,-5.3185,-5.2564,-5.1371,-5.0967,-4.9903,-4.9114,-4.8416,-4.8324,-4.8324,-4.8324,-4.8324,-4.8324,-4.8324,-4.8324,-4.8324,-4.8324,-4.8324,-4.8324,-4.8267,-4.7677,-4.6635,-4.6819,-4.6495,-4.5433,-4.6185,-4.6542,-4.6594,-4.7449,-4.8229,-4.8324,-4.8324,-4.8324,-4.8324,-4.8324,-4.8324,-4.8324,-4.8324,-4.9224,-5.071,-5.2307,-5.3251,-5.3624,-5.3758,-5.4236,-5.4671,-5.4909,-5.516,-5.5399,-5.5554,-5.5554,-5.5577,-5.5651,-5.5684,-5.5684,-5.5684,-5.5684,-5.5684,-5.5684,-5.5684,-5.5651,-5.5607,-5.564,-5.5692,-5.525,-5.4819,-5.4745,-5.4682,-5.4862,-5.5101,-5.5319,-5.5554,-5.5651,-5.5684,-5.5599,-5.5454,-5.5411,-5.5399,-5.5489,-5.564,-5.5662,-5.5684,-5.5684,-5.5684,-5.5684,-5.5684,-5.5684,-5.5684,-5.5684,-5.5684,-5.5684,-5.5645,-5.5684,-5.5684,-5.5684,-5.5684,-5.5684,-5.5684,-5.5684,-5.5684,-5.5665,-5.5684,-5.3814,-5.3227,-5.3185,-5.3185,-5.3185,-5.3185,-5.3185,-5.3185,-5.3185,-5.3185,-5.3185,-5.3185,-5.3185,-5.3185,-5.3185,-5.254,-5.1293,-5.0967,-5.0141,-4.9187,-4.8434,-4.8343,-4.8324,-4.8324,-4.8324,-4.8324,-4.8324,-4.8324,-4.8324,-4.8324,-4.8324,-4.8324,-4.821,-4.7838,-4.6955,-4.715,-4.6932,-4.6014,-4.6977,-4.711,-4.6892,-4.7718,-4.8287,-4.8324,-4.8324,-4.8324,-4.8324,-4.8324,-4.8324,-4.8508,-4.8691,-4.9481,-5.0747,-5.1922,-5.2961,-5.3609,-5.4048,-5.4401,-5.4848,-5.5107,-5.516,-5.5423,-5.5554,-5.5599,-5.564,-5.5684,-5.5684,-5.5684,-5.5684,-5.5684,-5.5684,-5.5684,-5.5684,-5.5662,-5.5629,-5.5629,-5.5489,-5.5173,-5.4947,-5.4919,-5.4947,-5.5101,-5.5319,-5.5501,-5.5662,-5.5662,-5.5684,-5.5535,-5.5399,-5.5387,-5.5363,-5.5343,-5.5543,-5.5651,-5.5684,-5.5684,-5.5684,-5.5684,-5.5684,-5.5684,-5.5684,-5.5684,-5.5684,-5.5684,-5.5684,-5.5684,-5.5684,-5.5684,-5.5684,-5.5684,-5.5684,-5.5684,-5.5684,-5.5684,-5.5684,-5.3269,-5.3044,-5.3148,-5.3185,-5.3185,-5.3185,-5.3185,-5.3185,-5.3185,-5.3185,-5.3146,-5.3063,-5.3063,-5.3042,-5.3005,-5.2404,-5.1747,-5.1018,-5.0213,-4.926,-4.8581,-4.8398,-4.8324,-4.8324,-4.8324,-4.8324,-4.8324,-4.8324,-4.8324,-4.8324,-4.8324,-4.8324,-4.8172,-4.7977,-4.7593,-4.7446,-4.7194,-4.6887,-4.7216,-4.7491,-4.7736,-4.7977,-4.8229,-4.8324,-4.8324,-4.8324,-4.8324,-4.8324,-4.8324,-4.8618,-4.9022,-4.9701,-5.0545,-5.1538,-5.2485,-5.3312,-5.4129,-5.4553,-5.5021,-5.5306,-5.5477,-5.5651,-5.5662,-5.5651,-5.5662,-5.5684,-5.5684,-5.5684,-5.5684,-5.5684,-5.5684,-5.5684,-5.5684,-5.5684,-5.5651,-5.5618,-5.5399,-5.5199,-5.5186,-5.5141,-5.525,-5.5368,-5.5501,-5.5662,-5.5703,-5.5684,-5.5599,-5.5411,-5.5306,-5.5411,-5.5446,-5.5423,-5.5501,-5.5599,-5.5673,-5.5684,-5.5684,-5.5684,-5.5684,-5.5684,-5.5684,-5.5684,-5.5684,-5.5684,-5.5684,-5.5684,-5.5684,-5.5684,-5.5684,-5.5684,-5.5684,-5.5684,-5.5684,-5.5684,-5.5684,-5.201,-5.227,-5.2931,-5.3185,-5.3185,-5.3185,-5.3185,-5.3185,-5.3185,-5.3185,-5.3042,-5.2554,-5.2294,-5.2312,-5.2294,-5.1665,-5.0518,-5.0344,-4.9678,-4.8618,-4.8415,-4.8323,-4.8324,-4.8324,-4.8324,-4.8324,-4.8324,-4.8324,-4.8324,-4.8324,-4.8324,-4.8324,-4.8324,-4.8055,-4.7614,-4.7614,-4.7797,-4.7551,-4.7656,-4.8015,-4.8055,-4.8229,-4.8267,-4.8324,-4.8324,-4.8324,-4.8324,-4.8324,-4.8324,-4.8581,-4.904,-4.9536,-5.0216,-5.1044,-5.1966,-5.2827,-5.3691,-5.433,-5.471,-5.5179,-5.5401,-5.5489,-5.5476,-5.5501,-5.5566,-5.5684,-5.5684,-5.5684,-5.5684,-5.5684,-5.5684,-5.5684,-5.5684,-5.5684,-5.5662,-5.5662,-5.5566,-5.5524,-5.5512,-5.5512,-5.5535,-5.5588,-5.5599,-5.5684,-5.5684,-5.5684,-5.5684,-5.5512,-5.5319,-5.5423,-5.5546,-5.5535,-5.5512,-5.5588,-5.5684,-5.5684,-5.5684,-5.5684,-5.5684,-5.5684,-5.5684,-5.5684,-5.5684,-5.5684,-5.5684,-5.5684,-5.5684,-5.5684,-5.5684,-5.5684,-5.5684,-5.5684,-5.5684,-5.5684,-5.5684]},{"header":{"parameterUnit":"m.s-1","parameterCategory":1,"la1":31.0,"la2":29.5877,"lo1":-88.7671,"lo2":-86.6584,"dy":0.0162,"dx":0.0185,"nx":115,"ny":88,"refTime":"2025-06-16T18:00:00:Z","depth":0,"parameterNumber":3,"parameterNumberName":"V-component_of_WINDS"},"data":[0.0,0.0,0.0,0.0,0.0,0.0,0.0,0.0,0.0,0.0,0.0,0.0,0.0,0.0,0.0,0.0,0.0,0.0,0.0,0.0,0.0,0.0,0.0,0.0,0.0,0.0,0.0,0.0,0.0,0.0,0.0,0.0,0.0,0.0,0.0,0.0,0.0,0.0,0.0,0.0,0.0,0.0,0.0,0.0,0.0,0.0,0.0,0.0,0.0,0.0,0.0,0.0,0.0,0.0,0.0,0.0,0.0,0.0,0.0,0.0,0.0,0.0,0.0,0.0,0.0,0.0,0.0,0.0,0.0,0.0,0.0,0.0,0.0,0.0,0.0,0.0,0.0,0.0,0.0,0.0,0.0,0.0,0.0,0.0,0.0,0.0,0.0,0.0,0.0,0.0,0.0,0.0,0.0,0.0,0.0,0.0,0.0,0.0,0.0,0.0,0.0,0.0,0.0,0.0,0.0,0.0,0.0,0.0,0.0,0.0,0.0,0.0,0.0,0.0,0.0,0.0,0.0,0.0,0.0,0.0,0.0,0.0,0.0,0.0,0.0,0.0,0.0,0.0,0.0,0.0,0.0,0.0,0.0,0.0,0.0,0.0,0.0,0.0,0.0,0.0,0.0,0.0,0.0,0.0,0.0,0.0,0.0,0.0,0.0,0.0,0.0,0.0,0.0,0.0,0.0,0.0,0.0,0.0,0.0,0.0,0.0,0.0,0.0,0.0,0.0,0.0,0.0,0.0,0.0,0.0,0.0,0.0,0.0,0.0,0.0,0.0,0.0,0.0,0.0,0.0,0.0,0.0,0.0,0.0,0.0,0.0,0.0,0.0,0.0,0.0,0.0,0.0,0.0,0.0,0.0,0.0,0.0,0.0,0.0,0.0,0.0,0.0,0.0,0.0,0.0,0.0,0.0,0.0,0.0,0.0,0.0,0.0,0.0,0.0,0.0,0.0,0.0,0.0,0.0,0.0,0.0,0.0,0.0,0.0,0.0,0.0,0.0,0.0,0.0,0.0,0.0,0.0,0.0,0.0,0.0,0.0,0.0,0.0,0.0,0.0,0.0,0.0,0.0,0.0,0.0,0.0,0.0,0.0,0.0,0.0,0.0,0.0,0.0,0.0,0.0,0.0,0.0,0.0,0.0,0.0,0.0,0.0,0.0,0.0,0.0,0.0,0.0,0.0,0.0,0.0,0.0,0.0,0.0,0.0,0.0,0.0,0.0,0.0,0.0,0.0,0.0,0.0,0.0,0.0,0.0,0.0,0.0,0.0,0.0,0.0,0.0,0.0,0.0,0.0,0.0,0.0,0.0,0.0,0.0,0.0,0.0,0.0,0.0,0.0,0.0,0.0,0.0,0.0,0.0,0.0,0.0,0.0,0.0,0.0,0.0,0.0,0.0,0.0,0.0,0.0,0.0,0.0,0.0,0.0,0.0,0.0,0.0,0.0,0.0,0.0,0.0,0.0,0.0,0.0,0.0,0.0,0.0,0.0,0.0,0.0,0.0,0.0,0.0,0.0,0.0,0.0,0.0,0.0,0.0,0.0,0.0,0.0,0.0,0.0,0.0,0.0,0.0,0.0,0.0,0.0,0.0,0.0,0.0,0.0,0.0,0.0,0.0,0.0,0.0,0.0,0.0,0.0,0.0,0.0,0.0,0.0,0.0,0.0,0.0,0.0,0.0,0.0,0.0,0.0,0.0,0.0,0.0,0.0,0.0,0.0,0.0,0.0,0.0,0.0,0.0,0.0,0.0,0.0,0.0,0.0,0.0,0.0,0.0,0.0,0.0,0.0,0.0,0.0,0.0,0.0,0.0,0.0,0.0,0.0,0.0,0.0,0.0,0.0,0.0,0.0,0.0,0.0,0.0,0.0,0.0,0.0,0.0,0.0,0.0,0.0,0.0,0.0,0.0,0.0,0.0,0.0,0.0,0.0,0.0,0.0,0.0,0.0,0.0,0.0,0.0,0.0,0.0,0.0,0.0,0.0,0.0,0.0,0.0,0.0,0.0,0.0,0.0,0.0,0.0,0.0,0.0,0.0,0.0,0.0,0.0,0.0,0.0,0.0,0.0,0.0,0.0,0.0,0.0,0.0,0.0,0.0,0.0,0.0,0.0,0.0,0.0,0.0,0.0,0.0,0.0,0.0,0.0,0.0,0.0,0.0,0.0,0.0,0.0,0.0,0.0,0.0,0.0,0.0,0.0,0.0,0.0,0.0,0.0,0.0,0.0,0.0,0.0,0.0,0.0,0.0,0.0,0.0,0.0,0.0,0.0,0.0,0.0,0.0,0.0,0.0,0.0,0.0,0.0,0.0,0.0,0.0,0.0,0.0,0.0,0.0,0.0,0.0,0.0,0.0,0.0,0.0,0.0,0.0,0.0,0.0,0.0,0.0,0.0,0.0,0.0,0.0,0.0,0.0,0.0,0.0,0.0,0.0,0.0,0.0,0.0,0.0,0.0,0.0,0.0,0.0,0.0,0.0,0.0,0.0,0.0,0.0,0.0,0.0,0.0,0.0,0.0,0.0,0.0,0.0,0.0,0.0,0.0,0.0,0.0,0.0,0.0,0.0,0.0,0.0,0.0,0.0,0.0,0.0,0.0,0.0,0.0,0.0,0.0,0.0,0.0,0.0,0.0,0.0,0.0,0.0,0.0,0.0,0.0,0.0,0.0,0.0,0.0,0.0,0.0,0.0,0.0,0.0,0.0,0.0,0.0,0.0,0.0,0.0,0.0,0.0,0.0,0.0,0.0,0.0,0.0,0.0,0.0,0.0,0.0,0.0,0.0,0.0,0.0,0.0,0.0,0.0,0.0,0.0,0.0,0.0,0.0,0.0,0.0,0.0,0.0,0.0,0.0,0.0,0.0,0.0,0.0,0.0,0.0,0.0,0.0,0.0,0.0,0.0,0.0,0.0,0.0,0.0,0.0,0.0,0.0,0.0,0.0,0.0,0.0,0.0,0.0,0.0,0.0,0.0,0.0,0.0,0.0,0.0,0.0,0.0,0.0,0.0,0.0,0.0,0.0,0.0,0.0,0.0,0.0,0.0,0.0,0.0,0.0,0.0,0.0,0.0,0.0,0.0,0.0,0.0,0.0,0.0,0.0,0.0,0.0,0.0,0.0,0.0,0.0,0.0,0.0,0.0,0.0,0.0,0.0,0.0,0.0,0.0,0.0,0.0,0.0,0.0,0.0,0.0,0.0,0.0,0.0,0.0,0.0,0.0,0.0,0.0,0.0,0.0,0.0,0.0,0.0,0.0,0.0,0.0,0.0,0.0,0.0,0.0,0.0,0.0,0.0,0.0,0.0,0.0,0.0,0.0,0.0,0.0,0.0,0.0,0.0,0.0,0.0,0.0,0.0,0.0,0.0,0.0,0.0,0.0,0.0,0.0,0.0,0.0,0.0,0.0,0.0,0.0,0.0,0.0,0.0,0.0,0.0,0.0,0.0,0.0,0.0,0.0,0.0,0.0,0.0,0.0,0.0,0.0,0.0,0.0,0.0,0.0,0.0,0.0,0.0,0.0,0.0,0.0,0.0,0.0,0.0,0.0,0.0,0.0,0.0,0.0,0.0,0.0,0.0,0.0,0.0,0.0,0.0,0.0,0.0,0.0,0.0,0.0,0.0,0.0,0.0,0.0,0.0,0.0,0.0,0.0,0.0,0.0,0.0,0.0,0.0,0.0,0.0,0.0,0.0,0.0,0.0,0.0,0.0,0.0,0.0,0.0,0.0,0.0,0.0,0.0,0.0,0.0,0.0,0.0,0.0,0.0,0.0,0.0,0.0,0.0,0.0,0.0,0.0,0.0,0.0,0.0,0.0,0.0,0.0,0.0,0.0,0.0,0.0,0.0,0.0,0.0,0.0,0.0,0.0,0.0,0.0,0.0,0.0,0.0,0.0,0.0,0.0,0.0,0.0,0.0,0.0,0.0,0.0,0.0,0.0,0.0,0.0,0.0,0.0,0.0,0.0,0.0,0.0,0.0,0.0,0.0,0.0,0.0,0.0,0.0,0.0,0.0,0.0,0.0,0.0,0.0,0.0,0.0,0.0,0.0,0.0,0.0,0.0,0.0,0.0,0.0,0.0,0.0,0.0,0.0,0.0,0.0,0.0,0.0,0.0,0.0,0.0,0.0,0.0,0.0,0.0,0.0,0.0,0.0,0.0,0.0,0.0,0.0,0.0,0.0,0.0,0.0,0.0,0.0,0.0,0.0,0.0,0.0,0.0,0.0,0.0,0.0,0.0,0.0,0.0,0.0,0.0,0.0,-0.5776,0.0,0.0,0.0,0.0,0.0,0.0,0.0,0.0,0.0,0.0,0.0,0.0,0.0,0.0,0.0,0.0,0.0,0.0,0.0,0.0,0.0,0.0,0.0,0.0,0.0,0.0,0.0,0.0,0.0,0.0,0.0,0.0,0.0,0.0,0.0,0.0,0.0,0.0,0.0,0.0,0.0,0.0,0.0,0.0,0.0,0.0,0.0,0.0,0.0,0.0,0.0,0.0,0.0,0.0,0.0,0.0,0.0,0.0,0.0,0.0,0.0,0.0,0.0,0.0,0.0,0.0,0.0,0.0,0.0,0.0,0.0,0.0,0.0,0.0,0.0,0.0,0.0,0.0,0.0,0.0,0.0,0.0,0.0,0.0,0.0,0.0,0.0,0.0,0.0,0.0,0.0,0.0,0.0,0.0,0.0,0.0,0.0,0.0,0.0,0.0,0.0,0.0,0.0,0.0,0.0,0.0,0.0,0.0,0.0,0.0,-0.6176,-0.6296,-0.619,-0.6044,-0.5806,0.0,0.0,0.0,0.0,0.0,0.0,0.0,0.0,0.0,0.0,0.0,0.0,0.0,0.0,0.0,0.0,0.0,0.0,0.0,0.0,0.0,0.0,0.0,0.0,0.0,0.0,0.0,0.0,0.0,0.0,0.0,0.0,0.0,0.0,0.0,0.0,0.0,0.0,0.0,0.0,0.0,0.0,0.0,0.0,0.0,0.0,0.0,0.0,0.0,0.0,0.0,0.0,0.0,0.0,0.0,0.0,0.0,0.0,0.0,0.0,0.0,0.0,0.0,0.0,0.0,0.0,0.0,0.0,0.0,0.0,0.0,0.0,0.0,0.0,0.0,0.0,0.0,0.0,0.0,0.0,0.0,0.0,0.0,0.0,0.0,0.0,0.0,0.0,0.0,0.0,0.0,0.0,0.0,0.0,0.0,0.0,0.0,0.0,0.0,0.0,0.0,0.0,0.0,0.0,0.0,0.0,0.0,0.0,0.0,0.0,0.0,0.0,-0.6399,-0.6276,-0.6114,0.0,0.0,0.0,0.0,0.0,0.0,0.0,0.0,0.0,0.0,0.0,0.0,0.0,0.0,0.0,0.0,0.0,0.0,0.0,0.0,0.0,0.0,0.0,0.0,0.0,0.0,0.0,0.0,0.0,0.0,0.0,0.0,0.0,0.0,0.0,0.0,0.0,0.0,0.0,0.0,0.0,0.0,0.0,0.0,0.0,0.0,0.0,0.0,0.0,0.0,0.0,0.0,0.0,0.0,0.0,0.0,0.0,0.0,0.0,0.0,0.0,0.0,0.0,0.0,0.0,0.0,0.0,0.0,0.0,0.0,0.0,0.0,0.0,0.0,0.0,0.0,0.0,0.0,0.0,0.0,0.0,0.0,0.0,0.0,0.0,0.0,0.0,0.0,0.0,0.0,0.0,0.0,0.0,0.0,0.0,0.0,0.0,0.0,0.0,0.0,0.0,0.0,0.0,0.0,0.0,0.0,0.0,0.0,0.0,0.0,-0.6192,-0.6647,-0.6654,0.0,-0.699,0.0,0.0,0.0,0.0,0.0,0.0,0.0,0.0,0.0,0.0,0.0,0.0,0.0,0.0,0.0,0.0,0.0,0.0,0.0,0.0,0.0,0.0,0.0,0.0,0.0,0.0,0.0,0.0,0.0,0.0,0.0,0.0,0.0,0.0,0.0,0.0,0.0,0.0,0.0,0.0,0.0,0.0,0.0,0.0,0.0,0.0,0.0,0.0,0.0,0.0,0.0,0.0,0.0,0.0,0.0,0.0,0.0,0.0,0.0,0.0,0.0,0.0,0.0,0.0,0.0,0.0,0.0,0.0,0.0,0.0,0.0,0.0,0.0,0.0,0.0,0.0,0.0,0.0,0.0,0.0,0.0,0.0,0.0,0.0,0.0,0.0,0.0,0.0,0.0,0.0,0.0,0.0,0.0,0.0,0.0,0.0,0.0,0.0,0.0,0.0,0.0,0.0,0.0,0.0,0.0,0.0,0.0,0.0,0.0,0.0,-0.6335,-0.6695,-0.7046,-0.7188,0.0,0.0,0.0,0.0,0.0,0.0,0.0,0.0,0.0,0.0,0.0,0.0,0.0,0.0,0.0,0.0,0.0,0.0,0.0,0.0,0.0,0.0,0.0,0.0,0.0,0.0,0.0,0.0,0.0,0.0,0.0,0.0,0.0,0.0,0.0,0.0,0.0,0.0,0.0,0.0,0.0,0.0,0.0,0.0,0.0,0.0,0.0,0.0,0.0,0.0,0.0,0.0,0.0,0.0,0.0,0.0,0.0,0.0,0.0,0.0,0.0,0.0,0.0,0.0,0.0,0.0,0.0,0.0,0.0,0.0,0.0,0.0,0.0,0.0,0.0,0.0,0.0,0.0,0.0,0.0,0.0,0.0,0.0,0.0,0.0,0.0,0.0,0.0,0.0,0.0,0.0,0.0,0.0,0.0,0.0,0.0,0.0,0.0,0.0,0.0,0.0,0.0,0.0,0.0,0.0,0.0,0.0,0.0,0.0,0.0,-0.6228,-0.642,-0.677,-0.7544,-0.7753,-0.7279,0.0,0.0,0.0,0.0,0.0,0.0,0.0,0.0,0.0,0.0,0.0,0.0,0.0,0.0,0.0,0.0,0.0,0.0,0.0,0.0,0.0,0.0,0.0,0.0,0.0,0.0,0.0,0.0,0.0,0.0,0.0,0.0,0.0,0.0,0.0,0.0,0.0,0.0,0.0,0.0,0.0,0.0,0.0,0.0,0.0,0.0,0.0,0.0,0.0,0.0,0.0,0.0,0.0,0.0,0.0,0.0,0.0,0.0,0.0,0.0,0.0,0.0,0.0,0.0,0.0,0.0,0.0,0.0,0.0,0.0,0.0,0.0,0.0,0.0,0.0,0.0,0.0,0.0,0.0,0.0,0.0,0.0,0.0,0.0,0.0,0.0,0.0,0.0,0.0,0.0,0.0,0.0,0.0,0.0,0.0,0.0,0.0,0.0,0.0,0.0,0.0,0.0,0.0,0.0,0.0,0.0,0.0,0.0,-0.6634,-0.6429,-0.6471,-0.6951,-0.8151,-0.8449,0.0,0.0,0.0,0.0,0.0,0.0,0.0,0.0,0.0,0.0,0.0,0.0,0.0,0.0,0.0,0.0,0.0,0.0,0.0,0.0,0.0,0.0,0.0,0.0,0.0,0.0,0.0,0.0,0.0,0.0,0.0,0.0,0.0,0.0,0.0,0.0,0.0,0.0,0.0,0.0,0.0,0.0,0.0,0.0,0.0,0.0,0.0,0.0,0.0,0.0,0.0,0.0,0.0,0.0,0.0,0.0,0.0,0.0,0.0,0.0,0.0,0.0,0.0,0.0,0.0,0.0,0.0,0.0,0.0,0.0,0.0,0.0,0.0,0.0,0.0,0.0,0.0,0.0,0.0,0.0,0.0,0.0,0.0,0.0,0.0,0.0,0.0,0.0,0.0,0.0,0.0,0.0,0.0,0.0,0.0,0.0,0.0,0.0,0.0,0.0,0.0,0.0,0.0,0.0,0.0,0.0,0.0,0.0,0.0,-0.6006,-0.6204,-0.7052,-0.8483,-0.8501,-0.8752,0.0,0.0,0.0,0.0,0.0,0.0,0.0,0.0,0.0,0.0,0.0,0.0,0.0,0.0,0.0,0.0,0.0,0.0,0.0,0.0,0.0,0.0,0.0,0.0,0.0,0.0,0.0,0.0,0.0,0.0,0.0,0.0,0.0,0.0,0.0,0.0,0.0,0.0,0.0,0.0,0.0,0.0,0.0,0.0,0.0,0.0,0.0,0.0,0.0,0.0,0.0,0.0,0.0,0.0,0.0,0.0,0.0,0.0,0.0,0.0,0.0,0.0,0.0,0.0,0.0,0.0,0.0,0.0,0.0,0.0,0.0,0.0,0.0,0.0,0.0,0.0,0.0,0.0,0.0,0.0,0.0,0.0,0.0,0.0,0.0,0.0,0.0,0.0,0.0,0.0,0.0,0.0,0.0,0.0,0.0,0.0,0.0,0.0,0.0,0.0,0.0,0.0,0.0,0.0,0.0,0.0,0.0,0.0,0.0,-0.6558,0.0,-0.8464,-0.9522,-0.938,-0.9432,0.0,0.0,0.0,0.0,0.0,0.0,0.0,0.0,0.0,0.0,0.0,0.0,0.0,0.0,0.0,0.0,0.0,0.0,0.0,0.0,0.0,0.0,0.0,0.0,0.0,0.0,0.0,0.0,0.0,0.0,0.0,0.0,0.0,0.0,0.0,0.0,0.0,0.0,0.0,0.0,0.0,0.0,0.0,0.0,0.0,0.0,0.0,0.0,0.0,0.0,0.0,0.0,0.0,0.0,0.0,0.0,0.0,0.0,0.0,0.0,0.0,0.0,0.0,0.0,0.0,0.0,0.0,0.0,0.0,0.0,0.0,0.0,0.0,0.0,0.0,0.0,0.0,0.0,0.0,0.0,0.0,0.0,0.0,0.0,0.0,0.0,0.0,0.0,0.0,0.0,0.0,0.0,0.0,0.0,0.0,0.0,0.0,0.0,0.0,0.0,0.0,0.0,0.0,0.0,0.0,0.0,0.0,0.0,-0.6516,-0.8553,-1.0292,-1.0725,-0.9994,-1.0908,-1.0509,0.0,0.0,0.0,0.0,0.0,0.0,0.0,0.0,0.0,0.0,0.0,0.0,0.0,0.0,0.0,0.0,0.0,0.0,0.0,0.0,0.0,0.0,0.0,0.0,0.0,0.0,0.0,0.0,0.0,0.0,0.0,0.0,0.0,0.0,0.0,0.0,0.0,0.0,0.0,0.0,0.0,0.0,0.0,0.0,0.0,0.0,0.0,0.0,0.0,0.0,0.0,0.0,0.0,0.0,0.0,0.0,0.0,0.0,0.0,0.0,0.0,0.0,0.0,0.0,0.0,0.0,0.0,0.0,0.0,0.0,0.0,0.0,0.0,0.0,0.0,0.0,0.0,0.0,0.0,0.0,0.0,0.0,0.0,0.0,0.0,0.0,0.0,0.0,0.0,0.0,0.0,0.0,0.0,0.0,0.0,0.0,0.0,0.0,0.0,0.0,0.0,0.0,0.0,0.0,0.0,0.0,0.0,0.0,0.0,-0.9513,-1.0367,-1.1395,-1.2537,-1.1265,-1.0814,0.0,0.0,0.0,0.0,0.0,0.0,0.0,0.0,0.0,0.0,0.0,0.0,0.0,0.0,0.0,0.0,0.0,0.0,0.0,0.0,0.0,0.0,0.0,0.0,0.0,0.0,0.0,0.0,0.0,0.0,0.0,0.0,0.0,0.0,0.0,0.0,0.0,0.0,0.0,0.0,0.0,0.0,0.0,0.0,0.0,0.0,0.0,0.0,0.0,0.0,0.0,0.0,0.0,0.0,0.0,0.0,0.0,0.0,0.0,0.0,0.0,0.0,0.0,0.0,0.0,0.0,0.0,0.0,0.0,0.0,0.0,0.0,0.0,0.0,0.0,0.0,0.0,0.0,0.0,0.0,0.0,0.0,0.0,0.0,0.0,0.0,0.0,0.0,0.0,0.0,0.0,0.0,0.0,0.0,0.0,0.0,0.0,0.0,0.0,0.0,0.0,0.0,0.0,0.0,0.0,0.0,0.0,0.0,0.0,-1.2762,-1.3222,-1.395,-1.4975,-1.3167,-1.2437,-1.2897,0.0,0.0,0.0,0.0,0.0,0.0,0.0,0.0,0.0,0.0,0.0,0.0,0.0,0.0,0.0,0.0,0.0,0.0,0.0,0.0,0.0,0.0,0.0,0.0,0.0,0.0,0.0,0.0,0.0,0.0,0.0,0.0,0.0,0.0,0.0,0.0,0.0,0.0,0.0,0.0,0.0,0.0,0.0,0.0,0.0,0.0,0.0,0.0,0.0,0.0,0.0,0.0,0.0,0.0,0.0,0.0,0.0,0.0,0.0,0.0,0.0,0.0,0.0,0.0,0.0,0.0,0.0,0.0,0.0,0.0,0.0,0.0,0.0,0.0,0.0,0.0,0.0,0.0,0.0,0.0,0.0,0.0,0.0,0.0,0.0,0.0,0.0,0.0,0.0,0.0,0.0,0.0,0.0,0.0,0.0,0.0,0.0,0.0,0.0,0.0,0.0,0.0,0.0,0.0,0.0,0.0,0.0,0.0,-1.759,-1.8215,-1.7976,-1.6981,-1.6171,-1.5034,0.0,0.0,0.0,0.0,0.0,0.0,0.0,0.0,0.0,0.0,0.0,0.0,0.0,0.0,0.0,0.0,0.0,0.0,0.0,0.0,0.0,0.0,0.0,0.0,0.0,0.0,0.0,0.0,0.0,0.0,0.0,0.0,0.0,0.0,0.0,0.0,0.0,0.0,0.0,0.0,0.0,0.0,0.0,0.0,0.0,0.0,0.0,0.0,0.0,0.0,0.0,0.0,0.0,0.0,0.0,0.0,0.0,0.0,0.0,0.0,0.0,0.0,0.0,0.0,0.0,0.0,0.0,0.0,0.0,0.0,0.0,0.0,0.0,0.0,0.0,0.0,0.0,0.0,0.0,0.0,0.0,0.0,0.0,0.0,0.0,0.0,0.0,0.0,0.0,0.0,0.0,0.0,0.0,0.0,0.0,0.0,0.0,0.0,0.0,0.0,0.0,0.0,0.0,0.0,0.0,0.0,0.0,0.0,0.0,-1.7934,-1.9812,-2.0255,-1.9018,-1.759,-1.5797,0.0,0.0,0.0,0.0,0.0,0.0,0.0,0.0,0.0,0.0,0.0,0.0,0.0,0.0,0.0,0.0,0.0,0.0,0.0,0.0,0.0,0.0,0.0,0.0,0.0,0.0,0.0,0.0,0.0,0.0,0.0,0.0,0.0,0.0,0.0,0.0,0.0,0.0,0.0,0.0,0.0,0.0,0.0,0.0,0.0,0.0,0.0,0.0,0.0,0.0,0.0,0.0,0.0,0.0,0.0,0.0,0.0,0.0,0.0,0.0,0.0,0.0,0.0,0.0,0.0,0.0,0.0,0.0,0.0,0.0,0.0,0.0,0.0,0.0,0.0,0.0,0.0,0.0,0.0,0.0,0.0,0.0,0.0,0.0,0.0,0.0,0.0,0.0,0.0,0.0,0.0,0.0,0.0,0.0,0.0,0.0,0.0,0.0,0.0,0.0,0.0,0.0,0.0,0.0,0.0,0.0,0.0,0.0,-1.7628,-2.0298,-2.1495,-2.1802,-2.1126,-1.8966,-1.6803,0.0,0.0,0.0,0.0,0.0,0.0,0.0,0.0,0.0,0.0,0.0,0.0,0.0,0.0,0.0,0.0,0.0,0.0,0.0,0.0,0.0,0.0,0.0,0.0,0.0,0.0,0.0,0.0,0.0,0.0,0.0,0.0,0.0,0.0,0.0,0.0,0.0,0.0,0.0,0.0,0.0,0.0,0.0,0.0,0.0,0.0,0.0,0.0,0.0,0.0,0.0,0.0,0.0,0.0,0.0,0.0,0.0,0.0,0.0,0.0,0.0,0.0,0.0,0.0,0.0,0.0,0.0,0.0,0.0,0.0,0.0,0.0,0.0,0.0,0.0,0.0,0.0,0.0,0.0,0.0,0.0,0.0,0.0,0.0,0.0,0.0,0.0,0.0,0.0,0.0,0.0,0.0,0.0,0.0,0.0,0.0,0.0,0.0,0.0,0.0,0.0,0.0,0.0,0.0,0.0,0.0,0.0,0.0,-1.8988,-2.303,-2.2835,-2.2638,-2.2535,-2.0105,-1.7821,0.0,0.0,0.0,0.0,0.0,0.0,0.0,0.0,0.0,0.0,0.0,0.0,0.0,0.0,0.0,0.0,0.0,0.0,0.0,0.0,0.0,0.0,0.0,0.0,0.0,0.0,0.0,0.0,0.0,0.0,0.0,0.0,0.0,0.0,0.0,0.0,0.0,0.0,0.0,0.0,0.0,0.0,0.0,0.0,0.0,0.0,0.0,0.0,0.0,0.0,0.0,0.0,0.0,0.0,0.0,0.0,0.0,0.0,0.0,0.0,0.0,0.0,0.0,0.0,0.0,0.0,0.0,0.0,0.0,0.0,0.0,0.0,0.0,0.0,0.0,0.0,0.0,0.0,0.0,0.0,0.0,0.0,0.0,0.0,0.0,0.0,0.0,0.0,0.0,0.0,0.0,0.0,0.0,0.0,0.0,0.0,0.0,0.0,0.0,0.0,0.0,0.0,0.0,0.0,0.0,0.0,0.0,0.0,-2.0368,-2.0955,-2.182,-2.1804,-2.0847,-1.9814,-1.7879,0.0,0.0,0.0,0.0,0.0,0.0,0.0,0.0,0.0,0.0,0.0,0.0,0.0,0.0,0.0,0.0,0.0,0.0,0.0,0.0,0.0,0.0,0.0,0.0,0.0,0.0,0.0,0.0,0.0,0.0,0.0,0.0,0.0,0.0,0.0,0.0,0.0,0.0,0.0,0.0,0.0,0.0,0.0,0.0,0.0,0.0,0.0,0.0,-1.3313,0.0,0.0,0.0,0.0,0.0,0.0,0.0,0.0,0.0,0.0,0.0,0.0,0.0,0.0,0.0,0.0,0.0,0.0,0.0,0.0,0.0,0.0,0.0,0.0,0.0,0.0,0.0,0.0,0.0,0.0,0.0,0.0,0.0,0.0,0.0,0.0,0.0,0.0,0.0,0.0,0.0,0.0,0.0,0.0,0.0,0.0,0.0,0.0,0.0,0.0,0.0,0.0,0.0,0.0,0.0,0.0,0.0,0.0,0.0,-2.1563,-2.1896,-2.203,-2.1534,-2.031,-1.903,-1.7253,0.0,0.0,0.0,0.0,0.0,0.0,0.0,0.0,0.0,0.0,0.0,0.0,0.0,0.0,0.0,0.0,0.0,0.0,0.0,0.0,0.0,0.0,0.0,0.0,0.0,0.0,0.0,0.0,0.0,0.0,0.0,0.0,0.0,0.0,0.0,0.0,0.0,0.0,0.0,0.0,0.0,0.0,0.0,0.0,0.0,0.0,0.0,0.0,0.0,0.0,0.0,0.0,0.0,0.0,0.0,0.0,0.0,0.0,0.0,0.0,0.0,0.0,0.0,0.0,0.0,0.0,0.0,0.0,0.0,0.0,0.0,0.0,0.0,0.0,0.0,0.0,0.0,0.0,0.0,0.0,0.0,0.0,0.0,0.0,0.0,0.0,0.0,0.0,0.0,0.0,0.0,0.0,0.0,0.0,0.0,0.0,0.0,0.0,0.0,0.0,0.0,0.0,0.0,0.0,0.0,0.0,0.0,-1.9891,-2.186,-2.3095,-2.2214,-2.1141,-1.9933,-1.8095,-1.6462,-1.5055,0.0,0.0,0.0,0.0,0.0,0.0,0.0,0.0,0.0,0.0,0.0,0.0,0.0,0.0,0.0,0.0,0.0,0.0,0.0,0.0,0.0,0.0,0.0,0.0,0.0,0.0,0.0,0.0,0.0,0.0,0.0,0.0,0.0,0.0,0.0,0.0,0.0,0.0,-0.9671,-0.7273,0.0,0.0,0.0,0.0,0.0,0.0,0.0,0.0,-1.2728,0.0,0.0,0.0,0.0,0.0,0.0,0.0,0.0,0.0,0.0,0.0,0.0,0.0,0.0,0.0,0.0,0.0,0.0,0.0,0.0,0.0,0.0,0.0,0.0,0.0,0.0,0.0,0.0,0.0,0.0,0.0,0.0,0.0,0.0,0.0,0.0,0.0,0.0,0.0,0.0,0.0,0.0,0.0,0.0,0.0,0.0,0.0,0.0,0.0,0.0,0.0,0.0,0.0,0.0,0.0,0.0,-1.7983,-1.8735,-1.9704,-2.0912,-2.0304,-1.9398,-1.8103,-1.7234,-1.6206,-1.5042,0.0,0.0,0.0,0.0,0.0,0.0,0.0,0.0,0.0,0.0,0.0,0.0,0.0,0.0,0.0,0.0,0.0,0.0,0.0,0.0,0.0,0.0,0.0,0.0,0.0,0.0,0.0,0.0,0.0,0.0,0.0,0.0,0.0,0.0,0.0,0.0,0.0,0.0,0.0,-0.8574,-0.8739,0.0,0.0,0.0,0.0,0.0,0.0,0.0,0.0,-1.0815,0.0,0.0,0.0,0.0,0.0,0.0,0.0,0.0,0.0,0.0,0.0,0.0,0.0,0.0,0.0,0.0,0.0,0.0,0.0,0.0,0.0,0.0,0.0,0.0,0.0,0.0,0.0,0.0,0.0,0.0,0.0,0.0,0.0,0.0,0.0,0.0,0.0,0.0,0.0,0.0,0.0,0.0,0.0,0.0,0.0,0.0,0.0,0.0,0.0,0.0,0.0,0.0,0.0,0.0,0.0,-1.6863,-1.8691,-1.9678,-1.9763,-1.9679,-1.8889,-1.7445,-1.6084,-1.513,0.0,0.0,0.0,0.0,0.0,0.0,0.0,0.0,0.0,0.0,0.0,0.0,0.0,0.0,0.0,0.0,0.0,0.0,0.0,0.0,0.0,0.0,0.0,0.0,0.0,0.0,0.0,0.0,0.0,0.0,0.0,0.0,0.0,0.0,0.0,0.0,0.0,0.0,0.0,0.0,-0.9144,-0.9522,-1.0324,0.0,0.0,0.0,0.0,0.0,0.0,-1.0692,-0.9933,0.0,0.0,0.0,0.0,0.0,0.0,0.0,0.0,0.0,0.0,0.0,0.0,0.0,0.0,0.0,0.0,0.0,0.0,0.0,0.0,0.0,0.0,0.0,0.0,0.0,0.0,0.0,0.0,0.0,0.0,0.0,0.0,0.0,0.0,0.0,0.0,0.0,0.0,0.0,0.0,0.0,0.0,0.0,0.0,0.0,0.0,0.0,0.0,0.0,0.0,0.0,0.0,0.0,0.0,0.0,-1.5612,-1.8184,-1.9386,-1.908,-1.917,-1.8558,-1.725,-1.5272,-1.4274,0.0,0.0,0.0,0.0,0.0,0.0,0.0,0.0,0.0,0.0,0.0,0.0,0.0,0.0,0.0,0.0,0.0,0.0,0.0,0.0,0.0,0.0,0.0,0.0,0.0,0.0,0.0,0.0,0.0,0.0,0.0,0.0,0.0,0.0,0.0,0.0,0.0,0.0,0.0,0.0,0.0,-1.041,-1.1371,-1.2422,0.0,0.0,0.0,0.0,-1.085,-1.0493,0.0,0.0,0.0,0.0,0.0,0.0,0.0,0.0,0.0,0.0,0.0,0.0,0.0,0.0,0.0,0.0,0.0,0.0,0.0,0.0,0.0,0.0,0.0,0.0,0.0,0.0,0.0,0.0,0.0,0.0,0.0,0.0,0.0,0.0,0.0,0.0,0.0,0.0,0.0,0.0,0.0,0.0,0.0,0.0,0.0,0.0,0.0,0.0,0.0,0.0,0.0,0.0,0.0,0.0,0.0,0.0,-1.4995,-1.566,-1.6822,-1.8447,-1.81,-1.7651,-1.7206,-1.5575,-1.4524,0.0,0.0,0.0,0.0,0.0,0.0,0.0,0.0,0.0,0.0,0.0,0.0,0.0,0.0,0.0,0.0,0.0,0.0,0.0,0.0,0.0,0.0,0.0,0.0,0.0,0.0,0.0,0.0,0.0,0.0,0.0,0.0,0.0,0.0,0.0,0.0,0.0,0.0,0.0,0.0,0.0,-1.2903,-1.1677,-1.3335,-1.4756,0.0,0.0,-1.2727,-1.1258,-1.0598,0.0,0.0,0.0,0.0,0.0,0.0,0.0,0.0,0.0,0.0,0.0,0.0,0.0,0.0,0.0,0.0,0.0,0.0,0.0,0.0,0.0,0.0,0.0,0.0,0.0,0.0,0.0,0.0,0.0,0.0,0.0,0.0,0.0,0.0,0.0,0.0,0.0,0.0,0.0,0.0,0.0,0.0,0.0,0.0,0.0,0.0,0.0,0.0,0.0,0.0,0.0,0.0,0.0,0.0,0.0,-1.2467,-1.3956,-1.5402,-1.6564,-1.7435,-1.7422,-1.7194,-1.6901,-1.513,-1.4045,0.0,0.0,0.0,0.0,0.0,0.0,0.0,0.0,0.0,0.0,0.0,0.0,0.0,0.0,0.0,0.0,0.0,0.0,0.0,0.0,0.0,0.0,0.0,0.0,0.0,0.0,0.0,0.0,0.0,0.0,0.0,0.0,0.0,0.0,0.0,0.0,0.0,0.0,0.0,0.0,0.0,0.0,-1.2894,-1.4356,0.0,0.0,0.0,-1.3136,-1.1584,0.0,0.0,0.0,0.0,0.0,0.0,0.0,0.0,0.0,0.0,0.0,0.0,0.0,0.0,0.0,0.0,0.0,0.0,0.0,0.0,0.0,0.0,0.0,0.0,0.0,0.0,0.0,0.0,0.0,0.0,0.0,0.0,0.0,0.0,0.0,0.0,0.0,0.0,0.0,0.0,0.0,0.0,0.0,0.0,0.0,0.0,0.0,0.0,0.0,0.0,0.0,0.0,0.0,0.0,0.0,0.0,0.0,-1.324,-1.5518,-1.6667,-1.6607,-1.7005,-1.7018,-1.6593,-1.4814,0.0,0.0,0.0,0.0,0.0,0.0,0.0,0.0,0.0,0.0,0.0,0.0,0.0,0.0,0.0,0.0,0.0,0.0,0.0,0.0,0.0,0.0,0.0,0.0,0.0,0.0,0.0,-0.9614,0.0,0.0,0.0,0.0,0.0,0.0,0.0,0.0,0.0,0.0,0.0,0.0,0.0,0.0,-1.3683,-1.3897,-1.5064,-1.5865,0.0,0.0,-1.3836,-1.1908,-1.1148,-0.9935,0.0,0.0,0.0,0.0,0.0,0.0,0.0,0.0,0.0,0.0,0.0,0.0,0.0,0.0,0.0,0.0,0.0,0.0,0.0,0.0,0.0,0.0,0.0,0.0,0.0,0.0,0.0,0.0,0.0,0.0,0.0,0.0,0.0,0.0,0.0,0.0,0.0,0.0,0.0,0.0,0.0,0.0,0.0,0.0,0.0,0.0,0.0,0.0,0.0,0.0,0.0,0.0,0.0,0.0,-1.2599,-1.3267,-1.5518,-1.6573,-1.6333,-1.6911,-1.6924,-1.6319,-1.4967,-1.3927,0.0,0.0,0.0,0.0,0.0,0.0,0.0,0.0,0.0,0.0,0.0,0.0,0.0,0.0,0.0,0.0,0.0,0.0,0.0,0.0,0.0,0.0,0.0,0.0,0.0,0.0,0.0,0.0,0.0,0.0,0.0,0.0,0.0,0.0,0.0,0.0,0.0,0.0,0.0,0.0,0.0,-1.4929,-1.404,-1.5252,-1.6239,0.0,0.0,-1.5149,-1.2296,-1.2112,-1.106,-0.7658,0.0,0.0,0.0,0.0,0.0,0.0,0.0,0.0,0.0,0.0,0.0,0.0,0.0,0.0,0.0,0.0,0.0,0.0,0.0,0.0,0.0,0.0,0.0,0.0,0.0,0.0,0.0,0.0,0.0,0.0,0.0,0.0,0.0,0.0,0.0,0.0,0.0,0.0,0.0,0.0,0.0,0.0,0.0,0.0,0.0,0.0,0.0,0.0,0.0,0.0,0.0,0.0,0.0,-1.3013,-1.322,-1.5344,-1.6435,-1.6286,-1.6543,-1.6549,-1.6279,-1.5596,-1.4682,0.0,0.0,0.0,0.0,0.0,0.0,0.0,0.0,0.0,0.0,0.0,0.0,0.0,0.0,0.0,0.0,0.0,0.0,0.0,0.0,0.0,0.0,0.0,0.0,0.0,0.0,0.0,0.0,-1.2164,-1.2408,-1.2568,0.0,0.0,0.0,0.0,0.0,0.0,0.0,0.0,0.0,0.0,-1.5312,-1.5108,-1.5765,0.0,0.0,-1.6152,-1.5278,-1.237,-1.2114,-1.1159,-0.7822,-0.7115,0.0,0.0,0.0,0.0,0.0,0.0,0.0,0.0,0.0,0.0,0.0,0.0,0.0,0.0,0.0,0.0,0.0,0.0,0.0,0.0,0.0,0.0,0.0,0.0,0.0,0.0,0.0,0.0,0.0,0.0,0.0,0.0,0.0,0.0,0.0,0.0,0.0,0.0,0.0,0.0,0.0,0.0,0.0,0.0,0.0,0.0,0.0,0.0,0.0,0.0,0.0,0.0,-1.3381,-1.3555,-1.5361,-1.6226,-1.6146,-1.6226,-1.6274,-1.6139,-1.5939,-1.5138,0.0,0.0,0.0,0.0,0.0,0.0,0.0,0.0,0.0,0.0,0.0,0.0,0.0,0.0,0.0,0.0,0.0,0.0,0.0,0.0,0.0,0.0,0.0,0.0,0.0,0.0,0.0,0.0,-1.3029,-1.286,-1.2427,0.0,0.0,0.0,0.0,0.0,0.0,0.0,0.0,0.0,0.0,-1.5531,-1.5912,-1.6139,-1.6199,-1.5992,-1.6059,-1.5177,-1.236,-1.1994,-1.1067,-0.7962,0.0,0.0,0.0,0.0,0.0,0.0,0.0,0.0,0.0,0.0,0.0,0.0,0.0,0.0,0.0,0.0,0.0,0.0,0.0,0.0,0.0,0.0,0.0,0.0,0.0,0.0,0.0,-1.0975,0.0,0.0,-1.1353,0.0,0.0,0.0,0.0,0.0,0.0,0.0,0.0,0.0,0.0,0.0,0.0,0.0,0.0,0.0,0.0,0.0,0.0,0.0,0.0,0.0,0.0,-1.3673,-1.4358,-1.562,-1.6126,-1.5865,-1.6119,-1.6132,-1.5804,-1.5832,-1.5277,-1.4144,0.0,0.0,0.0,0.0,0.0,0.0,0.0,0.0,0.0,0.0,0.0,0.0,0.0,0.0,0.0,0.0,0.0,0.0,0.0,0.0,0.0,0.0,0.0,0.0,0.0,0.0,-1.4282,-1.3248,-1.2472,0.0,0.0,0.0,0.0,0.0,0.0,0.0,0.0,0.0,0.0,-1.5023,-1.5605,-1.6166,-1.6308,-1.6301,-1.6246,-1.6012,-1.4914,-1.2285,-1.1891,-1.0932,0.0,0.0,0.0,0.0,0.0,0.0,0.0,0.0,0.0,0.0,0.0,0.0,0.0,0.0,0.0,0.0,0.0,0.0,0.0,0.0,0.0,0.0,0.0,0.0,0.0,0.0,0.0,-1.2625,-1.2167,0.0,0.0,0.0,0.0,0.0,0.0,0.0,0.0,0.0,0.0,0.0,-2.0043,-2.111,0.0,0.0,0.0,0.0,0.0,0.0,0.0,0.0,0.0,0.0,0.0,0.0,-1.4246,-1.4859,-1.5562,-1.5932,-1.5784,-1.5925,-1.5878,-1.5832,-1.5825,-1.5629,-1.5298,0.0,0.0,0.0,0.0,0.0,0.0,0.0,0.0,0.0,0.0,0.0,0.0,0.0,0.0,0.0,0.0,0.0,0.0,0.0,0.0,0.0,0.0,0.0,0.0,0.0,-1.5798,0.0,0.0,0.0,0.0,0.0,0.0,0.0,0.0,0.0,0.0,0.0,-1.4142,-1.4736,-1.5317,-1.5758,-1.5952,-1.5979,-1.5979,0.0,0.0,0.0,0.0,0.0,0.0,0.0,0.0,0.0,0.0,0.0,0.0,0.0,0.0,-0.7911,-0.793,-0.8716,-0.9499,-1.012,0.0,0.0,0.0,0.0,0.0,0.0,0.0,0.0,0.0,0.0,0.0,0.0,0.0,0.0,-1.3788,0.0,-1.3307,0.0,0.0,0.0,0.0,0.0,0.0,0.0,0.0,-2.0066,-2.1517,-2.2331,-2.3149,-2.2998,0.0,-2.1465,-2.0166,0.0,0.0,0.0,0.0,0.0,0.0,0.0,0.0,-1.5533,-1.5721,-1.6237,-1.6244,-1.5825,-1.5825,-1.5825,-1.5825,-1.5684,-1.5843,-1.6197,-1.5468,-1.4736,0.0,0.0,0.0,0.0,0.0,0.0,0.0,0.0,0.0,0.0,0.0,0.0,0.0,0.0,0.0,0.0,0.0,0.0,0.0,0.0,0.0,0.0,0.0,-1.5977,0.0,0.0,0.0,0.0,0.0,0.0,0.0,0.0,0.0,-1.34,-1.4128,-1.4897,-1.5491,-1.5718,-1.5818,-1.5965,0.0,0.0,0.0,0.0,0.0,0.0,0.0,-1.1272,-0.9171,-0.8386,-0.8028,-0.7977,-0.8177,-0.8381,-0.8279,0.0,0.0,-0.9225,-1.0053,-1.095,-1.1752,-1.3272,-1.4414,-1.4306,-1.4741,-1.4867,0.0,0.0,0.0,0.0,0.0,0.0,0.0,0.0,-1.4783,-1.4803,0.0,-1.5541,0.0,0.0,0.0,0.0,0.0,-1.8103,0.0,0.0,-2.1679,-2.2917,-2.4339,-2.4443,-2.4443,-2.4414,-2.3975,-2.3125,-2.1787,-1.904,0.0,0.0,0.0,0.0,0.0,0.0,-1.7308,-1.696,-1.7377,-1.7037,-1.5872,-1.5825,-1.5825,-1.5825,-1.5611,-1.5948,-1.68,-1.6627,-1.5942,-1.4864,-1.446,0.0,0.0,0.0,0.0,0.0,0.0,0.0,0.0,0.0,0.0,0.0,0.0,0.0,0.0,0.0,0.0,0.0,0.0,0.0,0.0,-1.5615,0.0,0.0,0.0,0.0,0.0,0.0,0.0,0.0,0.0,0.0,-1.4596,-1.4836,-1.5418,-1.652,0.0,0.0,0.0,0.0,-1.6335,-1.6342,-1.652,-1.6229,-1.4945,-1.3609,-1.2218,-1.0888,0.0,0.0,-0.8368,-0.8404,-0.8462,-0.8374,-0.8425,-0.8961,-1.053,-1.1488,-1.2683,-1.4306,-1.457,-1.4924,-1.6114,-1.5632,-1.4957,-1.7641,0.0,0.0,0.0,0.0,-1.64,-1.668,-1.7141,-1.7016,-1.672,-1.6269,-1.714,0.0,0.0,0.0,0.0,0.0,0.0,-2.1761,-2.1859,-2.3446,-2.4465,-2.4893,-2.5215,-2.5195,-2.4883,-2.4812,-2.4199,-2.3223,-2.208,-2.0049,-1.7256,0.0,0.0,0.0,0.0,-1.7326,-1.7728,-1.6841,-1.6157,-1.5825,-1.5825,-1.5825,-1.5825,-1.6631,-1.7582,-1.8688,-1.918,-1.922,-1.8754,-1.7664,0.0,0.0,0.0,0.0,0.0,0.0,0.0,0.0,0.0,0.0,0.0,0.0,0.0,0.0,0.0,0.0,0.0,0.0,0.0,-1.6135,-1.6396,-1.667,0.0,0.0,0.0,0.0,0.0,0.0,0.0,0.0,0.0,-1.5999,-1.5965,-1.6067,0.0,0.0,-1.6406,-1.6293,-1.6453,-1.658,-1.658,-1.6653,0.0,-1.5008,-1.4439,-1.3359,-1.1052,-0.9565,-0.8665,-0.8737,-0.8726,-0.8794,-0.8747,-0.8781,-0.9555,-1.1986,-1.2499,-1.3057,-1.4427,-1.5606,-1.6132,-1.5754,-1.618,-1.6149,-1.9225,-1.8197,-1.7508,-1.7341,-1.7502,-1.7502,-1.7776,-1.8196,-1.8042,-1.8177,-1.8516,-1.9486,-1.9662,-1.9331,-2.0564,0.0,0.0,0.0,-2.356,-2.3364,-2.4542,-2.5156,-2.5342,-2.5605,-2.5596,-2.5332,-2.5146,-2.4707,-2.4033,-2.3613,-2.2024,-1.9268,0.0,0.0,-1.9253,-1.8483,-1.8238,-1.8368,-1.7178,-1.6298,-1.5825,-1.5825,-1.5825,-1.5825,-1.7037,-1.828,-1.9451,-2.0411,-2.0822,-2.0619,-1.9525,-1.8471,0.0,0.0,0.0,0.0,0.0,0.0,0.0,0.0,0.0,0.0,0.0,-1.8795,-1.7603,0.0,0.0,0.0,-1.6588,-1.6918,-1.7637,-1.7867,0.0,0.0,0.0,0.0,0.0,0.0,0.0,-1.5575,-1.5738,-1.6159,-1.6787,-1.6727,-1.671,-1.6824,-1.6747,-1.668,-1.6683,0.0,-1.6881,-1.6881,-1.6974,-1.6792,-1.6048,-1.5424,-1.406,-1.1287,-0.9693,-0.8825,-0.8861,-0.8937,-0.8937,-0.8937,-0.8937,-0.9809,-1.2724,-1.3095,-1.3539,-1.5476,-1.6665,-1.7048,-1.6313,-1.6931,-1.677,-2.0381,-1.9773,-1.8684,-1.8142,-1.8095,-1.8095,-1.831,-1.8537,-1.8277,-1.9235,-2.1143,-2.2009,-2.2852,-2.3714,-2.3869,0.0,-2.3955,-2.4346,-2.4736,-2.5117,-2.5127,-2.5342,-2.5684,-2.5684,-2.5684,-2.5674,-2.5312,-2.4893,-2.4463,-2.4043,-2.3232,-2.2051,-2.1602,-2.1277,-2.1057,-2.0347,-1.9566,-1.8726,-1.7934,-1.699,-1.5825,-1.5825,-1.5832,-1.5967,-1.7149,-1.8372,-1.9592,-2.0748,-2.1244,-2.0982,-2.0292,-1.9528,-1.8656,0.0,0.0,0.0,0.0,0.0,0.0,0.0,0.0,0.0,0.0,0.0,0.0,0.0,0.0,0.0,-1.8317,0.0,-1.9307,-1.9736,0.0,0.0,0.0,-1.8625,-1.7901,-1.7617,-1.7211,-1.6461,0.0,0.0,-1.7199,-1.7233,-1.7326,-1.7549,-1.7121,-1.686,-1.7166,-1.7213,-1.7233,-1.7233,-1.7454,-1.7575,-1.7358,-1.6125,-1.4137,-1.1552,-0.986,-0.893,-0.8937,-0.8937,-0.8937,-0.8937,-0.8937,-0.986,-1.2724,-1.3303,-1.418,-1.6956,-1.7569,-1.7575,-1.7516,-1.7358,-1.6499,-2.0795,-2.0428,-1.9927,-1.9459,-1.9058,-1.9052,-1.9092,-1.9209,-1.9085,-1.9822,-2.1181,-2.2461,-2.4009,-2.5676,-2.5412,-2.5226,-2.5235,-2.5333,-2.5478,-2.5576,-2.5576,-2.5586,-2.5684,-2.5684,-2.5684,-2.5684,-2.5625,-2.5352,-2.4912,-2.4473,-2.3955,-2.335,-2.29,-2.1868,-2.0342,-1.9834,-1.9056,-1.7972,-1.6807,-1.6109,-1.5825,-1.5825,-1.6251,-1.7225,-1.8063,-1.912,-2.0369,-2.1286,-2.17,-2.1636,-2.1178,-2.1073,-2.145,-1.9727,0.0,0.0,0.0,0.0,0.0,0.0,0.0,0.0,0.0,-2.2293,-1.9233,0.0,-2.1611,0.0,-1.9387,-1.9326,-2.0214,-2.04,0.0,0.0,-2.1968,-2.1519,-2.0083,-1.9847,-1.9068,-1.7197,-1.7052,-1.7206,-1.7494,-1.7527,-1.7561,-1.7569,-1.7462,-1.7321,-1.7239,-1.74,-1.7482,-1.7482,-1.7535,-1.7582,-1.7424,-1.5417,-1.321,-1.1433,-0.986,-0.8937,-0.8937,-0.8937,-0.8937,-0.8937,-0.8937,-1.008,-1.2724,-1.3318,-1.4347,-1.6882,-1.7589,-1.7589,-1.7589,-1.6717,-1.5417,-2.0942,-2.0648,-2.0361,-1.9967,-1.9553,-1.9477,-1.9424,-1.9424,-1.9424,-2.0501,-2.2411,-2.4347,-2.5885,-2.6924,-2.6309,-2.6025,-2.6016,-2.5781,-2.5684,-2.5684,-2.5684,-2.5684,-2.5684,-2.5684,-2.5684,-2.5684,-2.5684,-2.541,-2.4795,-2.4531,-2.4111,-2.3506,-2.3218,-2.1992,-1.9852,-1.9597,-1.891,-1.7731,-1.648,-1.5825,-1.5825,-1.5825,-1.6433,-1.7684,-1.8627,-1.9607,-2.0681,-2.1622,-2.1992,-2.1602,-2.1172,-2.1215,-2.1818,-2.0087,-1.927,0.0,0.0,0.0,0.0,0.0,0.0,0.0,0.0,0.0,0.0,0.0,-2.311,-2.1612,-2.1019,-2.1074,-2.1965,-2.2168,-2.2568,-2.3281,-2.3574,-2.2934,-2.0985,-2.0809,-1.9915,-1.7664,-1.7393,-1.7402,-1.7562,-1.7589,-1.7589,-1.7589,-1.7589,-1.7522,-1.7395,-1.7541,-1.7589,-1.7589,-1.7589,-1.7364,-1.677,-1.477,-1.2783,-1.1319,-0.986,-0.8937,-0.8937,-0.8937,-0.8937,-0.8937,-0.8937,-0.9588,-1.1864,-1.2886,-1.4073,-1.5956,-1.7147,-1.7529,-1.7582,-1.6446,-1.499,-2.0962,-2.0702,-2.0368,-2.0087,-1.9833,-1.9506,-1.9424,-1.9424,-1.9424,-2.1045,-2.3964,-2.6523,-2.7728,-2.766,-2.6777,-2.6387,-2.6357,-2.5879,-2.5684,-2.5684,-2.5684,-2.5684,-2.5693,-2.5528,-2.5528,-2.5693,-2.5528,-2.514,-2.4543,-2.4278,-2.376,-2.3046,-2.2779,-2.1498,-1.936,-1.9268,-1.868,-1.7451,-1.6339,-1.5872,-1.6062,-1.6062,-1.6709,-1.8087,-1.9042,-1.9968,-2.0834,-2.1793,-2.2002,-2.1239,-2.0918,-2.0942,-2.1349,-1.9943,-1.9727,0.0,-2.0031,0.0,0.0,0.0,0.0,0.0,0.0,0.0,0.0,-2.5127,-2.4296,-2.3299,-2.2925,-2.3057,-2.3799,-2.4248,-2.4502,-2.4502,-2.4551,-2.3654,-2.1427,-2.1073,-2.0194,-1.7864,-1.7589,-1.7589,-1.7582,-1.7589,-1.7589,-1.7589,-1.7589,-1.7582,-1.7582,-1.7582,-1.7589,-1.7589,-1.7589,-1.7094,-1.5476,-1.4126,-1.2729,-1.1109,-0.9754,-0.8937,-0.8937,-0.8937,-0.8937,-0.8937,-0.8937,-0.9427,-1.0836,-1.229,-1.375,-1.5251,-1.6658,-1.7582,-1.7424,-1.6174,-1.4776,-2.1076,-2.0975,-2.0454,-2.0201,-2.0107,-1.9586,-1.9424,-1.9424,-1.9424,-2.1038,-2.3964,-2.6577,-2.7728,-2.765,-2.6818,-2.6387,-2.6367,-2.5937,-2.5684,-2.5684,-2.5684,-2.5684,-2.5635,-2.4609,-2.4667,-2.5586,-2.4609,-2.4534,-2.5421,-2.3758,-2.286,-2.2648,-2.1044,-1.9451,-1.8141,0.0,0.0,0.0,-1.5927,-1.6298,-1.7271,-1.7365,-1.8411,-2.0513,-2.0149,0.0,-2.1608,-2.1537,-2.1366,-2.122,-2.1494,0.0,0.0,0.0,0.0,0.0,0.0,0.0,0.0,0.0,0.0,0.0,-2.8526,-2.7859,-2.6908,-2.6308,-2.5647,-2.4902,-2.4375,-2.4075,-2.4287,-2.4687,-2.4941,-2.4961,-2.5264,-2.4452,-2.1946,-2.1544,-2.0519,-1.793,-1.7589,-1.7589,-1.7589,-1.7589,-1.7589,-1.7589,-1.7589,-1.7589,-1.7589,-1.7589,-1.7589,-1.7589,-1.7589,-1.6611,-1.4073,-1.348,-1.2403,-1.008,-0.9158,-0.8937,-0.8937,-0.8937,-0.8937,-0.8937,-0.8937,-0.9375,-1.0785,-1.2295,-1.3696,-1.5097,-1.6552,-1.7589,-1.7529,-1.553,-1.3642,-2.1102,0.0,-2.0474,-2.0173,0.0,-1.9613,-1.9424,-1.9424,-1.9424,-2.1045,-2.3925,-2.6009,-2.7304,-2.7939,-2.7356,-2.6894,-2.668,-2.625,-2.5898,-2.5684,-2.5684,-2.5333,-2.4707,-2.3998,-2.3741,-2.3692,-2.3018,-2.2874,-2.3105,-2.2118,-2.1449,-2.1076,-2.0037,-1.891,-1.7738,-1.7084,-1.6433,-1.5825,-1.5825,-1.6433,-1.7638,-1.7684,-1.8864,-2.115,-2.087,0.0,0.0,0.0,0.0,0.0,0.0,0.0,0.0,0.0,0.0,-2.315,-2.2821,-2.355,-2.5779,-2.7071,-2.8585,-3.0553,-3.0436,-2.9603,-2.8047,-2.6874,-2.6117,-2.6006,-2.5247,-2.4834,-2.5011,-2.5273,-2.54,-2.541,-2.5557,-2.4667,-2.2257,-2.1693,-2.0582,-1.8199,-1.7589,-1.7589,-1.7589,-1.7589,-1.7589,-1.7589,-1.7589,-1.7589,-1.7589,-1.7589,-1.7589,-1.7589,-1.7589,-1.6558,-1.4019,-1.3318,-1.2295,-0.9699,-0.8937,-0.8937,-0.8937,-0.8937,-0.8937,-0.8937,-0.8937,-0.921,-0.997,-1.1751,-1.3534,-1.4395,-1.6121,-1.7206,-1.6664,-1.4776,-1.3048,-2.1102,-2.0992,-2.0161,-1.9978,-2.0127,-1.9305,-1.9127,-1.9424,0.0,0.0,0.0,-2.5434,-2.6933,-2.8252,-2.7773,-2.724,-2.6666,-2.6394,-2.5926,-2.5382,-2.5333,-2.4766,-2.3683,-2.3176,-2.2517,-2.1702,-2.1448,-2.1113,-2.0677,-2.0418,-1.9955,-1.9323,-1.898,-1.8357,-1.7365,-1.6339,-1.5825,-1.5825,-1.5825,-1.6527,-1.7956,-1.8002,-1.9177,-2.1569,-2.154,-2.1814,-2.2477,-2.251,-2.2146,-2.1463,-2.1483,-2.1492,-2.1424,-2.1483,-2.2432,-2.4288,-2.4561,-2.5709,-2.8231,-2.9369,-3.0496,-3.1876,-3.1072,-2.9904,-2.8528,-2.7053,-2.6291,-2.6506,-2.5535,-2.5083,-2.5645,-2.5479,-2.544,-2.5635,-2.5684,-2.4667,-2.2156,-2.1693,-2.0633,-1.8199,-1.7589,-1.7589,-1.7589,-1.7589,-1.7589,-1.7589,-1.7589,-1.7417,-1.7312,-1.7417,-1.7589,-1.7589,-1.7589,-1.6605,-1.4126,-1.3318,-1.2132,-0.9482,-0.8937,-0.8937,-0.8937,-0.8937,-0.8937,-0.8937,-0.8937,-0.8937,-0.9103,-1.1051,-1.2832,-1.2945,-1.499,-1.6387,-1.499,-1.375,-1.2512,-2.1102,-2.0929,-1.9019,-1.8985,-2.0066,-1.8152,-1.8104,-1.9482,-2.0702,-2.2258,-2.3877,-2.5426,-2.6943,-2.8252,-2.7471,-2.6416,-2.5295,-2.5616,-2.5126,-2.3998,-2.3998,-2.389,-2.3592,-2.1296,-2.0743,-2.155,-2.0487,-2.0335,-2.0884,-1.9646,-1.8794,-1.8333,-1.7018,-1.6244,-1.6055,-1.5872,-1.5825,-1.5825,-1.5825,-1.6929,-1.9185,-1.9268,-2.0404,-2.2668,-2.2515,-2.2355,-2.2477,-2.2519,-2.2451,-2.2344,-2.2676,-2.2662,-2.2373,-2.2613,-2.3662,-2.5426,-2.5973,-2.718,-2.9404,-3.0855,-3.1694,-3.1703,-2.9836,-2.8133,-2.7121,-2.6785,-2.6387,-2.5856,-2.4643,-2.4387,-2.543,-2.4658,-2.4452,-2.544,-2.5684,-2.4658,-2.2055,-2.1693,-2.0684,-1.8094,-1.7589,-1.7589,-1.7589,-1.7589,-1.7589,-1.7589,-1.7424,-1.7147,-1.6333,-1.6823,-1.7529,-1.7589,-1.7589,-1.6393,-1.3857,-1.3264,-1.1973,-0.9375,-0.8937,-0.8937,-0.8937,-0.8937,-0.8937,-0.8937,-0.8937,-0.8937,-0.894,-1.0241,-1.1378,-1.1647,-1.3107,-1.3642,-1.2344,-1.1701,-1.1319,-2.0491,-1.96,-1.9278,-1.8951,-1.8667,-1.8391,-1.87,-1.9424,-2.009,-2.1259,-2.271,-2.4211,-2.5663,-2.7049,-2.7313,-2.6908,-2.6073,-2.5308,-2.4864,-2.4667,-2.3276,-2.2626,-2.2408,-2.0546,-1.9568,-1.9465,-1.8864,-1.8699,-1.8925,-1.8067,-1.7471,-1.7175,-1.6259,-1.5825,-1.5825,-1.5825,-1.5825,-1.5825,-1.648,-1.7723,-1.9443,-2.0116,-2.1302,-2.3047,-2.3481,-2.3466,-2.2852,-2.3423,-2.3466,-2.2842,-2.2984,-2.3003,-2.2828,-2.2994,-2.401,-2.5995,-2.639,-2.7592,-3.01,-3.0813,-3.0518,-2.9152,-2.8339,-2.7076,-2.5179,-2.5044,-2.4957,-2.463,-2.3384,-2.2818,-2.3484,-2.3642,-2.3692,-2.3534,-2.4756,-2.4569,-2.2307,-2.1693,-2.0888,-1.9013,-1.8042,-1.7582,-1.7589,-1.7589,-1.7589,-1.7529,-1.6982,-1.6121,-1.547,-1.5257,-1.5263,-1.5257,-1.5257,-1.44,-1.2512,-1.2077,-1.116,-0.921,-0.8937,-0.8937,-0.8937,-0.8937,-0.8937,-0.8937,-0.8937,-0.8937,-0.8937,-1.0076,-1.0891,-1.1214,-1.2295,-1.2566,-1.1538,-1.0511,-0.9915,-1.9682,-1.8435,-1.8495,-1.7864,-1.6951,-1.868,-1.9424,-1.9424,-1.9424,-2.0199,-2.1643,-2.2814,-2.4156,-2.5609,-2.6324,-2.6195,-2.5478,-2.4308,-2.3921,-2.4075,-2.2165,-2.1245,-2.1092,-1.9826,-1.8603,-1.7687,-1.7589,-1.7487,-1.7206,-1.6914,-1.662,-1.6279,-1.5979,-1.5825,-1.5825,-1.5825,-1.592,-1.6292,-1.7498,-1.8549,-1.9497,-2.0666,-2.1978,-2.341,-2.4329,-2.45,-2.393,-2.4723,-2.4755,-2.393,-2.3854,-2.3757,-2.3507,-2.3724,-2.4648,-2.6307,-2.6873,-2.8081,-3.0261,-3.0211,-2.9114,-2.7079,-2.6804,-2.5876,-2.398,-2.3076,-2.2935,-2.3026,-2.2005,-2.1347,-2.1803,-2.2265,-2.2466,-2.1853,-2.3791,-2.4205,-2.2156,-2.1693,-2.1143,-1.9775,-1.8454,-1.7589,-1.7589,-1.7589,-1.7589,-1.7424,-1.6333,-1.5364,-1.4883,-1.375,-1.2832,-1.2512,-1.2832,-1.2778,-1.1433,-1.1164,-1.0511,-0.9154,-0.9265,-0.9482,-0.9588,-0.9644,-0.9699,-0.9699,-0.9478,-0.9316,-0.9154,-0.9754,-1.0406,-1.0511,-1.1269,-1.1701,-1.0731,-0.9754,-0.8992,-1.8622,-1.7949,-1.5187,-1.4099,-1.5375,-1.8188,-1.9424,-1.9424,-1.9424,-2.0256,-2.1586,-2.1749,-2.2645,-2.3834,-2.349,-2.2675,-2.1616,-2.1756,-2.1379,-2.0451,-1.9937,-1.9782,-1.9723,-1.8454,-1.774,-1.7635,-1.7635,-1.7494,-1.7342,-1.7159,-1.6864,-1.6348,-1.5979,-1.5825,-1.5825,-1.5825,-1.6339,-1.7505,-1.8726,-1.9405,-1.9534,-2.0666,-2.2347,-2.4585,-2.4745,-2.5252,-2.6016,-2.6265,-2.6307,-2.6182,-2.6099,-2.5683,-2.4882,-2.5599,-2.6276,-2.6588,-2.7853,-2.9225,-3.0176,-2.9408,-2.8327,-2.7463,-2.5305,-2.3971,-2.3484,-2.1405,-2.0546,-2.1296,-2.059,-2.0333,-2.1397,-2.0743,-2.059,-2.1347,-2.2876,-2.3285,-2.1954,-2.1693,-2.1143,-1.9731,-1.8401,-1.7589,-1.7589,-1.7589,-1.7589,-1.7582,-1.6121,-1.4829,-1.3804,-1.229,-1.0891,-1.0296,-1.1433,-1.2349,-1.1324,-1.1109,-1.0402,-0.9316,-1.0025,-1.0621,-1.0945,-1.1755,-1.2457,-1.0672,-1.0731,-1.0296,-0.9316,-0.9099,-0.9154,-0.9427,-0.9588,-0.9427,-0.9158,-0.9047,-0.8937,-1.6283,-1.5386,-1.5782,-1.6624,-1.7827,-1.8966,-1.9424,-1.9424,-1.9424,-2.0199,-2.1472,-2.1586,-2.242,-2.3717,-2.3017,-2.2376,-2.183,-2.0903,-2.0641,-2.0633,-1.9213,-1.8812,-1.942,-1.8192,-1.7996,-1.8655,-1.7989,-1.798,-1.8325,-1.7456,-1.6977,-1.7003,-1.6259,-1.615,-1.681,-1.6197,-1.6426,-1.7684,-1.8856,-1.9852,-2.0711,-2.2416,-2.3826,-2.4819,-2.6077,-2.6614,-2.6595,-2.7075,-2.7157,-2.6565,-2.6483,-2.6265,-2.5839,-2.6265,-2.6937,-2.7864,-2.9093,-2.9632,-2.9311,-2.7723,-2.6334,-2.5382,-2.3606,-2.2206,-2.1355,-2.0238,-1.9576,-1.922,-1.876,-1.8708,-1.9213,-1.9472,-1.9583,-1.9672,-2.1194,-2.2013,-2.0641,-2.0495,-2.0179,-1.9576,-1.8454,-1.7589,-1.7589,-1.7589,-1.7589,-1.7312,-1.5743,-1.397,-1.327,-1.1319,-0.9699,-0.9213,-1.0025,-1.0351,-0.9966,-0.9805,-0.986,-1.0241,-1.0672,-1.1219,-1.2349,-1.2778,-1.2783,-1.1428,-1.1269,-1.0676,-0.9154,-0.8937,-0.8937,-0.8937,-0.8937,-0.8937,-0.8937,-0.8937,-0.8937,-1.4405,-1.3689,-1.6124,-1.7909,-1.9056,-1.9277,-1.9424,-1.9475,-1.9809,-2.0587,-2.1529,-2.1586,-2.2428,-2.35,-2.2692,-2.1947,-2.1325,-1.9829,-1.9568,-2.0333,-1.8499,-1.8153,-1.8857,-1.8094,-1.8101,-1.8812,-1.8454,-1.8655,-1.9347,-1.8031,-1.7449,-1.7761,-1.7164,-1.7257,-1.7994,-1.721,-1.7444,-1.8642,-1.9579,-2.0576,-2.188,-2.375,-2.4957,-2.5368,-2.7105,-2.7855,-2.7476,-2.8302,-2.8442,-2.7685,-2.776,-2.7706,-2.7417,-2.7665,-2.8298,-2.9201,-3.001,-2.96,-2.7898,-2.6351,-2.481,-2.3258,-2.1904,-2.0684,-1.9782,-1.9272,-1.8662,-1.7891,-1.7589,-1.7635,-1.774,-1.8454,-1.8558,-1.7891,-2.0084,-2.1092,-1.9878,-1.9834,-2.0084,-1.9576,-1.8401,-1.7589,-1.7589,-1.7589,-1.7589,-1.7371,-1.5156,-1.3318,-1.294,-1.0887,-0.8937,-0.8937,-0.8937,-0.9154,-0.9372,-0.9754,-1.0186,-1.1324,-1.2082,-1.2886,-1.3804,-1.4073,-1.4019,-1.3475,-1.2403,-1.1219,-1.0025,-0.9533,-0.8937,-0.8937,-0.8937,-0.8937,-0.8937,-0.8937,-0.8937,-1.3382,-1.3513,-1.4624,-1.6072,-1.7291,-1.8771,-1.9424,-1.9475,-2.0759,-2.1472,-2.1578,-2.1586,-2.242,-2.355,-2.1822,-2.0132,-1.8837,-1.817,-1.7891,-1.7989,-1.774,-1.7635,-1.7681,-1.7641,-1.7681,-1.8304,-1.902,-1.9457,-1.9619,-1.887,-1.8444,-1.8502,-1.8933,-1.9268,-1.9405,-1.9222,-1.9889,-2.0755,-2.1051,-2.1784,-2.2969,-2.4198,-2.5369,-2.6313,-2.7493,-2.8474,-2.9413,-3.0136,-3.0358,-3.0358,-3.0701,-3.0593,-2.9834,-3.0523,-3.0702,-3.0291,-3.0261,-2.8892,-2.6202,-2.5344,-2.4214,-2.2089,-2.0487,-1.9627,-1.9369,-1.8506,-1.7845,-1.7641,-1.7589,-1.7589,-1.7589,-1.7793,-1.7838,-1.7786,-1.9973,-2.0641,-1.9731,-2.0341,-2.0794,-1.9679,-1.8356,-1.7687,-1.7589,-1.7589,-1.7589,-1.71,-1.5156,-1.3378,-1.294,-1.0781,-0.9316,-0.8937,-0.8992,-0.9375,-1.0617,-1.0672,-1.1378,-1.2783,-1.3911,-1.5037,-1.5689,-1.6121,-1.5849,-1.5257,-1.375,-1.2403,-1.116,-1.0131,-0.921,-0.8937,-0.8937,-0.8937,-0.8937,-0.8937,-0.8937,-1.2865,-1.4657,-1.4944,-1.6431,-1.8781,-1.9264,-1.9424,-1.9417,-1.9982,-2.0752,-2.1529,-2.1586,-2.1919,-2.2381,-2.2149,-2.1256,-1.9856,-1.8316,-1.7589,-1.7589,-1.7589,-1.7589,-1.7589,-1.7641,-1.8655,-2.0025,-1.9775,-1.9969,-2.0522,-2.0068,-2.0166,-2.0473,-1.9883,-1.9852,-2.0395,-1.9852,-2.0079,-2.1186,-2.1599,-2.2351,-2.353,-2.4893,-2.5865,-2.6248,-2.7004,-2.8011,-2.9185,-2.9706,-3.0298,-3.1069,-3.1298,-3.121,-3.0865,-3.076,-3.0231,-2.9164,-2.7954,-2.6367,-2.4384,-2.2622,-2.1407,-2.0428,-1.9117,-1.8349,-1.8244,-1.7891,-1.7589,-1.7589,-1.7589,-1.7589,-1.7589,-1.7589,-1.7589,-1.774,-1.8454,-1.9005,-1.8551,-1.876,-1.8857,-1.8349,-1.7838,-1.7641,-1.7589,-1.7589,-1.7589,-1.7417,-1.5849,-1.4449,-1.321,-1.1483,-0.997,-0.9154,-0.8992,-0.975,-1.2245,-1.1538,-1.1751,-1.3691,-1.5144,-1.5902,-1.6552,-1.6935,-1.677,-1.5683,-1.4449,-1.2674,-1.1164,-0.986,-0.9047,-0.8937,-0.8937,-0.8937,-0.8937,-0.8937,-0.8937,-1.2572,-1.5189,-1.516,-1.6853,-1.9654,-1.9551,-1.9424,-1.9482,-1.9924,-2.0422,-2.0981,-2.187,-2.2307,-2.2334,-2.2759,-2.2411,-2.1225,-1.9257,-1.7989,-1.7635,-1.7589,-1.7589,-1.7687,-1.8042,-1.9213,-2.0735,-2.0582,-2.0854,-2.1817,-2.1607,-2.1622,-2.1983,-2.1197,-2.1194,-2.1659,-2.1194,-2.1365,-2.2077,-2.2555,-2.32,-2.4069,-2.4977,-2.5538,-2.5643,-2.6148,-2.7323,-2.9018,-2.9249,-3.0042,-3.1319,-3.1122,-3.0731,-3.0682,-2.9904,-2.8824,-2.7479,-2.5817,-2.4088,-2.2372,-2.0558,-1.9472,-1.8961,-1.8199,-1.7589,-1.7589,-1.7589,-1.7589,-1.7589,-1.7589,-1.7589,-1.7589,-1.7589,-1.7589,-1.7687,-1.7996,-1.8048,-1.7687,-1.8042,-1.8094,-1.7793,-1.7635,-1.7589,-1.7589,-1.7589,-1.7589,-1.7589,-1.6333,-1.4984,-1.4019,-1.2295,-1.0836,-0.9809,-0.921,-1.0347,-1.2186,-1.2403,-1.3259,-1.5144,-1.6015,-1.6711,-1.6982,-1.7364,-1.7153,-1.6009,-1.4502,-1.2674,-1.1055,-0.9699,-0.9154,-0.8937,-0.8937,-0.8937,-0.8937,-0.8937,-0.8937,-1.2568,-1.5238,-1.516,-1.6836,-1.9496,-1.9537,-1.9424,-1.9591,-2.0752,-2.0594,-2.0033,-2.2322,-2.3319,-2.3517,-2.3406,-2.3216,-2.218,-2.0442,-1.8857,-1.7687,-1.7589,-1.7589,-1.7687,-1.8805,-1.9679,-2.0282,-2.1245,-2.2458,-2.357,-2.3223,-2.2892,-2.2699,-2.3246,-2.3211,-2.3106,-2.3281,-2.3609,-2.3732,-2.4026,-2.4331,-2.4424,-2.4594,-2.468,-2.4643,-2.5068,-2.6588,-2.93,-2.8906,-2.9609,-3.1479,-3.0393,-2.9454,-2.9398,-2.8242,-2.6867,-2.5622,-2.4217,-2.2214,-2.0061,-1.9576,-1.8812,-1.8042,-1.7635,-1.7589,-1.7589,-1.7589,-1.7589,-1.7589,-1.7589,-1.7589,-1.7589,-1.7589,-1.7589,-1.7687,-1.8461,-1.861,-1.8101,-1.8708,-1.9065,-1.7943,-1.7589,-1.7589,-1.7589,-1.7589,-1.7589,-1.7371,-1.6552,-1.5524,-1.5043,-1.321,-1.1592,-1.0945,-1.0566,-1.116,-1.2349,-1.3485,-1.515,-1.6605,-1.6988,-1.7424,-1.7252,-1.7364,-1.6988,-1.5956,-1.3965,-1.2082,-1.0241,-0.9103,-0.9047,-0.8937,-0.8937,-0.8937,-0.8937,-0.8937,-0.8937,-1.2438,-1.5054,-1.5037,-1.6751,-1.9344,-1.9399,-1.9424,-1.9424,-1.9924,-1.9809,-1.9815,-2.143,-2.2315,-2.2672,-2.3628,-2.3274,-2.1455,-2.1023,-1.9826,-1.7891,-1.7589,-1.7589,-1.7838,-1.8961,-2.059,-2.2366,-2.3791,-2.4609,-2.4895,-2.4641,-2.4393,-2.4315,-2.4193,-2.417,-2.4004,-2.416,-2.4228,-2.4277,-2.4648,-2.491,-2.4893,-2.5166,-2.5312,-2.5294,-2.5459,-2.6412,-2.8082,-2.8017,-2.867,-3.0252,-2.9727,-2.9396,-2.9017,-2.7291,-2.5527,-2.4119,-2.203,-2.0148,-1.8596,-1.8251,-1.8094,-1.7687,-1.7589,-1.7589,-1.7589,-1.7589,-1.7589,-1.7589,-1.7589,-1.7589,-1.7589,-1.7589,-1.7589,-1.7589,-1.7989,-1.8146,-1.7793,-1.7996,-1.7996,-1.774,-1.7589,-1.7589,-1.7589,-1.7589,-1.7589,-1.7589,-1.7094,-1.6605,-1.547,-1.4604,-1.3583,-1.2778,-1.2349,-1.2132,-1.348,-1.4502,-1.553,-1.677,-1.7364,-1.7589,-1.747,-1.6823,-1.6499,-1.5257,-1.3318,-1.1596,-0.9754,-0.8937,-0.8937,-0.8937,-0.8937,-0.8937,-0.8937,-0.8937,-0.8937,-1.3915,-1.6054,-1.5947,-1.7239,-1.9461,-1.9419,-1.9424,-1.9424,-1.9424,-1.9424,-1.9758,-2.1536,-2.2428,-2.2919,-2.4827,-2.4157,-2.1723,-2.181,-2.0354,-1.7957,-1.7589,-1.7589,-1.7891,-1.9576,-2.1811,-2.4097,-2.5284,-2.5684,-2.5674,-2.5469,-2.5234,-2.5029,-2.4785,-2.456,-2.4463,-2.459,-2.4658,-2.4727,-2.5098,-2.5322,-2.5371,-2.5547,-2.5684,-2.5684,-2.5684,-2.611,-2.6839,-2.6897,-2.7673,-2.8947,-2.9004,-2.8541,-2.7923,-2.5547,-2.3664,-2.2572,-2.0448,-1.8447,-1.7687,-1.7687,-1.7589,-1.7589,-1.7589,-1.7589,-1.7589,-1.7589,-1.7589,-1.7589,-1.7589,-1.7589,-1.7589,-1.7589,-1.7589,-1.7589,-1.7635,-1.7589,-1.7589,-1.7589,-1.7641,-1.7589,-1.7589,-1.7589,-1.7589,-1.7589,-1.7589,-1.7589,-1.7589,-1.7477,-1.634,-1.5737,-1.4877,-1.4126,-1.3372,-1.375,-1.4984,-1.5577,-1.6015,-1.6823,-1.7529,-1.7589,-1.7529,-1.6387,-1.563,-1.3852,-1.1969,-1.1055,-0.9375,-0.9047,-0.8937,-0.8937,-0.8937,-0.8937,-0.8937,-0.8937,-0.9047,-1.6466,-1.7917,-1.7451,-1.808,-1.964,-1.9472,-1.9424,-1.9424,-1.9424,-1.9475,-2.0206,-2.2428,-2.3766,-2.4459,-2.6296,-2.5573,-2.3237,-2.227,-2.0477,-1.83,-1.7635,-1.7681,-1.8244,-2.0128,-2.2466,-2.4913,-2.5382,-2.5528,-2.5684,-2.5635,-2.5527,-2.5185,-2.5127,-2.4922,-2.4746,-2.4922,-2.5107,-2.5166,-2.5508,-2.5635,-2.5645,-2.5723,-2.5684,-2.5684,-2.5684,-2.5781,-2.5868,-2.5917,-2.6839,-2.868,-2.7945,-2.703,-2.5596,-2.3176,-2.1938,-2.1736,-1.9161,-1.7996,-1.7641,-1.7589,-1.7589,-1.7589,-1.7589,-1.7589,-1.7589,-1.7589,-1.7589,-1.7589,-1.7622,-1.7642,-1.7649,-1.7649,-1.7635,-1.7589,-1.7589,-1.7589,-1.7589,-1.7589,-1.7589,-1.7589,-1.7589,-1.7589,-1.7589,-1.7589,-1.7589,-1.7589,-1.7589,-1.7477,-1.7252,-1.6499,-1.5796,-1.5204,-1.4776,-1.5091,-1.6168,-1.628,-1.6658,-1.6988,-1.7477,-1.7312,-1.677,-1.5417,-1.3852,-1.2127,-1.1051,-1.0186,-0.9537,-0.9099,-0.8937,-0.8937,-0.8937,-0.8937,-0.8937,-0.8937,-0.9372,-1.6375,-1.7622,-1.7369,-1.8101,-1.9369,-1.945,-1.9424,-1.9424,-1.9424,-1.9975,-2.1202,-2.2991,-2.4433,-2.5583,-2.6603,-2.5607,-2.3311,-2.2208,-2.0346,-1.7957,-1.7589,-1.8192,-1.8968,-1.9775,-2.16,-2.389,-2.4344,-2.4707,-2.5635,-2.5577,-2.5577,-2.5576,-2.5373,-2.544,-2.5391,-2.5421,-2.5499,-2.5518,-2.5606,-2.5684,-2.5684,-2.5684,-2.5684,-2.5684,-2.5684,-2.5684,-2.5684,-2.5684,-2.5868,-2.6514,-2.6428,-2.611,-2.5421,-2.3176,-2.1643,-2.1135,-1.9213,-1.7589,-1.7582,-1.7529,-1.7582,-1.7589,-1.7477,-1.7589,-1.7589,-1.7589,-1.7589,-1.7622,-1.7762,-1.7862,-1.7869,-1.7862,-1.7829,-1.7629,-1.7589,-1.7589,-1.7589,-1.7589,-1.7589,-1.7589,-1.7589,-1.7589,-1.7589,-1.7589,-1.7589,-1.7589,-1.7589,-1.7589,-1.7417,-1.7364,-1.6664,-1.6935,-1.677,-1.6823,-1.6982,-1.7035,-1.7199,-1.7371,-1.7312,-1.6764,-1.553,-1.3804,-1.1914,-0.9915,-1.0021,-0.9372,-0.921,-0.8937,-0.8937,-0.8937,-0.8937,-0.8937,-0.8937,-0.8937,-0.9644,-1.7875,-1.8488,-1.8216,-1.8614,-1.9372,-1.9424,-1.9424,-1.9424,-1.9424,-2.0206,-2.1699,-2.3151,-2.4654,-2.6082,-2.6879,-2.5672,-2.3045,-2.2258,-2.0341,-1.7943,-1.7589,-1.8356,-1.9324,-1.9627,-2.0743,-2.2717,-2.3434,-2.3791,-2.4097,-2.4559,-2.4815,-2.4796,-2.4864,-2.5118,-2.5645,-2.5684,-2.5684,-2.5674,-2.5684,-2.5684,-2.5684,-2.5684,-2.5684,-2.5684,-2.5684,-2.5684,-2.5684,-2.5684,-2.5684,-2.5732,-2.5684,-2.5479,-2.4707,-2.2868,-2.1448,-2.0837,-1.876,-1.7364,-1.677,-1.6658,-1.6658,-1.6658,-1.6664,-1.7041,-1.7424,-1.7589,-1.7602,-1.7796,-1.7902,-1.8035,-1.819,-1.8075,-1.7849,-1.7649,-1.7589,-1.7589,-1.7589,-1.7589,-1.7589,-1.7589,-1.7589,-1.7589,-1.7589,-1.7589,-1.7589,-1.7589,-1.7589,-1.7589,-1.7582,-1.7589,-1.7589,-1.7589,-1.7477,-1.7199,-1.6929,-1.6876,-1.644,-1.6717,-1.618,-1.5743,-1.4395,-1.2512,-1.0945,-0.9482,-0.9154,-0.8937,-0.8937,-0.8937,-0.8937,-0.8937,-0.8937,-0.8937,-0.8937,-0.8937,-0.9644,-2.0034,-1.978,-1.9486,-1.9424,-1.9424,-1.9424,-1.9424,-1.9424,-1.97,-2.0594,-2.2032,-2.3423,-2.5105,-2.6354,-2.6901,-2.5727,-2.2892,-2.2127,-2.0181,-1.8433,-1.7891,-1.8499,-1.902,-1.9117,-2.0033,-2.1397,-2.2776,-2.2617,-2.2517,-2.3126,-2.3592,-2.384,-2.385,-2.451,-2.543,-2.5684,-2.5684,-2.5684,-2.5684,-2.5684,-2.5684,-2.5684,-2.5684,-2.5684,-2.5684,-2.5684,-2.5684,-2.5684,-2.5684,-2.5684,-2.5684,-2.5069,-2.384,-2.2466,-2.0931,-1.945,-1.7962,-1.6605,-1.547,-1.5204,-1.5364,-1.5524,-1.5577,-1.6062,-1.7206,-1.7589,-1.7695,-1.7916,-1.8015,-1.8237,-1.8364,-1.8243,-1.7963,-1.7689,-1.7589,-1.7589,-1.7589,-1.7589,-1.7589,-1.7589,-1.7589,-1.7589,-1.7589,-1.7589,-1.7589,-1.7589,-1.7589,-1.7589,-1.7589,-1.7589,-1.7589,-1.7589,-1.7417,-1.7087,-1.6823,-1.6605,-1.5956,-1.5524,-1.4615,-1.3965,-1.3156,-1.1647,-1.0402,-0.9482,-0.9099,-0.8937,-0.8937,-0.8937,-0.8937,-0.8937,-0.8937,-0.8937,-0.8937,-0.8937,-0.9372,-1.986,-1.978,-1.9492,-1.9424,-1.9424,-1.9424,-1.9424,-1.9482,-2.0587,-2.1699,-2.3375,-2.4875,-2.6273,-2.7644,-2.6451,-2.4748,-2.2716,-2.1257,-1.943,-1.8023,-1.876,-1.8558,-1.8304,-1.8146,-1.8812,-1.993,-2.029,-2.0837,-2.1491,-2.1853,-2.2667,-2.3484,-2.3384,-2.4353,-2.5421,-2.5528,-2.5684,-2.5684,-2.5684,-2.5684,-2.5684,-2.5684,-2.5684,-2.5684,-2.5684,-2.5684,-2.5684,-2.5684,-2.5684,-2.5684,-2.5635,-2.5069,-2.3642,-2.2307,-2.0448,-1.8227,-1.662,-1.5263,-1.4073,-1.3804,-1.4293,-1.5167,-1.5292,-1.6015,-1.7424,-1.7622,-1.7756,-1.8016,-1.8257,-1.8424,-1.8464,-1.8444,-1.8116,-1.7742,-1.7589,-1.7582,-1.7589,-1.7589,-1.7589,-1.7589,-1.7589,-1.7589,-1.7589,-1.7589,-1.7589,-1.7589,-1.7589,-1.7589,-1.7589,-1.7589,-1.7589,-1.7589,-1.7529,-1.7199,-1.644,-1.6015,-1.5097,-1.4449,-1.3534,-1.2783,-1.1914,-1.0891,-0.9699,-0.921,-0.8992,-0.8937,-0.8937,-0.8937,-0.8937,-0.8937,-0.8937,-0.8937,-0.8937,-0.8937,-0.9047,-1.972,-1.9586,-1.9491,-1.9424,-1.9424,-1.9424,-1.9424,-1.954,-2.0206,-2.182,-2.3663,-2.4774,-2.5882,-2.7131,-2.5952,-2.426,-2.1814,-1.9841,-1.8464,-1.7799,-1.8349,-1.8199,-1.7845,-1.7641,-1.8048,-1.8715,-1.9376,-1.9826,-1.993,-2.0487,-2.1049,-2.1702,-2.1853,-2.2776,-2.451,-2.4864,-2.5118,-2.5577,-2.5684,-2.5684,-2.5684,-2.5684,-2.5684,-2.5684,-2.5684,-2.5684,-2.5684,-2.5684,-2.5684,-2.5684,-2.5635,-2.4766,-2.2909,-2.1399,-1.9324,-1.6911,-1.5186,-1.3804,-1.2674,-1.2354,-1.2935,-1.45,-1.4619,-1.5881,-1.7193,-1.7909,-1.807,-1.827,-1.849,-1.8651,-1.8517,-1.849,-1.8196,-1.7756,-1.7589,-1.7364,-1.6882,-1.7153,-1.7589,-1.7589,-1.7589,-1.7589,-1.7589,-1.7589,-1.7589,-1.7589,-1.7589,-1.7589,-1.7589,-1.7589,-1.7589,-1.7589,-1.7589,-1.7206,-1.628,-1.5364,-1.4234,-1.348,-1.2674,-1.2077,-1.1428,-1.0241,-0.9047,-0.8937,-0.8937,-0.8937,-0.8937,-0.8937,-0.8937,-0.8937,-0.8937,-0.8937,-0.8937,-0.8937,-0.9047,-1.941,-1.9424,-1.9424,-1.9424,-1.9424,-1.9424,-1.9424,-1.9424,-1.9649,-2.1487,-2.3543,-2.3989,-2.5316,-2.5801,-2.5505,-2.3415,-2.0617,-1.8776,-1.7701,-1.7694,-1.8146,-1.7989,-1.7786,-1.7891,-1.7943,-1.7786,-1.8603,-1.8655,-1.8349,-1.8715,-1.9576,-1.9723,-2.0084,-2.171,-2.3335,-2.4048,-2.4716,-2.5586,-2.5684,-2.5684,-2.5684,-2.5684,-2.5684,-2.5684,-2.5684,-2.5684,-2.5684,-2.5684,-2.5684,-2.5684,-2.5684,-2.4254,-2.2131,-2.024,-1.8099,-1.534,-1.375,-1.2323,-1.1283,-1.1232,-1.2059,-1.3563,-1.4143,-1.5424,-1.7434,-1.8283,-1.843,-1.8611,-1.8784,-1.8878,-1.8611,-1.8597,-1.8283,-1.7789,-1.7556,-1.6755,-1.5962,-1.644,-1.6605,-1.7094,-1.6935,-1.6935,-1.7371,-1.7589,-1.7589,-1.7589,-1.7589,-1.7589,-1.7589,-1.7589,-1.7589,-1.7589,-1.7589,-1.634,-1.531,-1.5304,-1.4126,-1.2186,-1.1542,-1.1269,-1.0781,-0.986,-0.8937,-0.8937,-0.8937,-0.8937,-0.8937,-0.8937,-0.8937,-0.8937,-0.8937,-0.8937,-0.8937,-0.8937,-0.9047,-1.8206,-1.9424,-1.9424,-1.9424,-1.9424,-1.9424,-1.9424,-1.9649,-2.0594,-2.2145,-2.371,-2.5049,-2.548,-2.56,-2.4603,-2.2151,-1.9322,-1.8003,-1.7589,-1.7786,-1.8349,-1.8506,-1.7838,-1.8356,-1.8454,-1.7832,-1.7989,-1.7891,-1.774,-1.7891,-1.8603,-1.9568,-2.0582,-2.2055,-2.3384,-2.4667,-2.5177,-2.5586,-2.5684,-2.5684,-2.5684,-2.5684,-2.5684,-2.5684,-2.5684,-2.5684,-2.5684,-2.5684,-2.5684,-2.5684,-2.5684,-2.4245,-2.2131,-2.0386,-1.7682,-1.4469,-1.2536,-1.1186,-1.007,-1.0835,-1.2156,-1.3698,-1.4997,-1.6412,-1.7913,-1.849,-1.8677,-1.8865,-1.9065,-1.9158,-1.8885,-1.8804,-1.8495,-1.7877,-1.6921,-1.6031,-1.5386,-1.4888,-1.4883,-1.5636,-1.5849,-1.6387,-1.7094,-1.7589,-1.7589,-1.7589,-1.7589,-1.7589,-1.7589,-1.7589,-1.7589,-1.7589,-1.7589,-1.5855,-1.4132,-1.4556,-1.4121,-1.1214,-1.0241,-1.0406,-0.9915,-0.9316,-0.8937,-0.8937,-0.8937,-0.8937,-0.8937,-0.8937,-0.8937,-0.8937,-0.8937,-0.8937,-0.8937,-0.8937,-0.8937,-1.7923,-1.9366,-1.9424,-1.9424,-1.9424,-1.9424,-1.9424,-1.9482,-2.0206,-2.1309,-2.2533,-2.3423,-2.3758,-2.3492,-2.2718,-2.0555,-1.8583,-1.7769,-1.7589,-1.7838,-1.8199,-1.8297,-1.7635,-1.8356,-1.8146,-1.774,-1.7589,-1.7589,-1.7589,-1.7641,-1.8048,-1.8655,-1.993,-2.1304,-2.2676,-2.3899,-2.502,-2.5479,-2.5684,-2.5684,-2.5684,-2.5684,-2.5684,-2.5684,-2.5684,-2.5684,-2.5684,-2.5684,-2.5684,-2.5684,-2.5684,-2.455,-2.2733,-2.0437,-1.7669,-1.4008,-1.2005,-1.0612,-0.9776,-1.0734,-1.2406,-1.4063,-1.5642,-1.714,-1.8294,-1.8865,-1.8985,-1.9125,-1.9212,-1.9245,-1.8945,-1.8881,-1.8704,-1.8088,-1.6807,-1.5551,-1.4647,-1.3769,-1.3884,-1.4406,-1.5204,-1.6068,-1.7312,-1.7589,-1.7589,-1.7589,-1.7589,-1.7589,-1.7589,-1.7589,-1.7589,-1.7589,-1.7477,-1.5908,-1.4132,-1.3965,-1.3475,-1.0726,-0.932,-0.9482,-0.9427,-0.9047,-0.8937,-0.8937,-0.8937,-0.8937,-0.8937,-0.8937,-0.8937,-0.8937,-0.8937,-0.8937,-0.8937,-0.8937,-0.8937,-1.7683,-1.9424,-1.9424,-1.9424,-1.9424,-1.9424,-1.9424,-1.9424,-1.9424,-2.0307,-2.1472,-2.1692,-2.1749,-2.1414,-2.0589,-1.9308,-1.7689,-1.7642,-1.7589,-1.7641,-1.7687,-1.7635,-1.7635,-1.7589,-1.7635,-1.7687,-1.7589,-1.7589,-1.7589,-1.7589,-1.774,-1.8662,-1.9472,-2.0692,-2.2316,-2.3899,-2.4716,-2.5323,-2.5684,-2.5684,-2.5684,-2.5684,-2.5684,-2.5684,-2.5684,-2.5586,-2.5167,-2.5118,-2.5128,-2.5118,-2.5069,-2.4609,-2.3158,-2.1164,-1.7891,-1.403,-1.2096,-1.0699,-1.0076,-1.0884,-1.2605,-1.4306,-1.5894,-1.7359,-1.8574,-1.9165,-1.9383,-1.9424,-1.9417,-1.9299,-1.9098,-1.9032,-1.8878,-1.8226,-1.6784,-1.5132,-1.4059,-1.3342,-1.3069,-1.3684,-1.4626,-1.5914,-1.7279,-1.7589,-1.7589,-1.7589,-1.7589,-1.7589,-1.7589,-1.7589,-1.7589,-1.7589,-1.7153,-1.5908,-1.4561,-1.348,-1.2295,-0.9915,-0.9099,-0.9154,-0.9103,-0.8937,-0.8937,-0.8937,-0.8937,-0.8937,-0.8937,-0.8937,-0.8937,-0.8937,-0.8937,-0.8937,-0.8937,-0.8937,-0.8937,-1.6621,-1.9424,-1.9424,-1.9424,-1.9424,-1.9424,-1.9424,-1.9424,-1.9424,-2.0256,-2.1415,-2.1529,-2.1472,-2.1068,-1.9549,-1.8571,-1.8037,-1.7702,-1.7589,-1.7589,-1.7589,-1.7589,-1.7589,-1.7589,-1.7589,-1.7589,-1.7589,-1.7589,-1.7589,-1.7589,-1.8251,-1.9265,-2.0538,-2.2055,-2.3185,-2.4254,-2.5538,-2.5684,-2.5684,-2.5684,-2.5684,-2.5684,-2.5684,-2.5684,-2.5635,-2.5177,-2.4353,-2.4205,-2.4097,-2.3949,-2.3989,-2.3285,-2.2156,-2.1744,-1.8393,-1.4739,-1.2036,-1.0775,-0.9957,-1.1217,-1.2781,-1.4532,-1.6177,-1.7628,-1.8809,-1.9299,-1.9424,-1.9424,-1.9424,-1.9403,-1.9279,-1.9292,-1.9145,-1.8033,-1.6445,-1.4934,-1.373,-1.2608,-1.2394,-1.3539,-1.4661,-1.6028,-1.7424,-1.7503,-1.7589,-1.7589,-1.7589,-1.7595,-1.7589,-1.7589,-1.7589,-1.7589,-1.6882,-1.5636,-1.4234,-1.3264,-1.1546,-0.9268,-0.8999,-0.894,-0.8937,-0.8937,-0.8937,-0.8937,-0.8937,-0.8937,-0.8937,-0.8937,-0.8937,-0.8937,-0.8937,-0.8937,-0.8937,-0.8937,-0.8885,-1.6503,-1.9366,-1.9424,-1.9424,-1.9424,-1.9424,-1.9424,-1.9424,-1.9424,-1.9758,-2.0249,-2.0364,-2.028,-1.9884,-1.8874,-1.833,-1.7975,-1.7722,-1.7589,-1.7589,-1.7589,-1.7589,-1.7589,-1.7589,-1.7589,-1.7589,-1.7589,-1.7589,-1.7589,-1.774,-1.8304,-1.9679,-2.0998,-2.2307,-2.3592,-2.4254,-2.4962,-2.5421,-2.5684,-2.5684,-2.5684,-2.5684,-2.5684,-2.5684,-2.5684,-2.4864,-2.3998,-2.3692,-2.3226,-2.2976,-2.3126,-2.3076,-2.2055,-2.144,-1.9715,-1.6296,-1.3744,-1.1728,-1.0135,-1.2047,-1.3518,-1.4973,-1.6738,-1.8693,-1.9301,-1.9424,-1.9424,-1.9424,-1.9424,-1.9424,-1.9424,-1.9424,-1.9363,-1.8352,-1.6281,-1.5065,-1.3776,-1.2291,-1.1882,-1.3322,-1.4712,-1.6192,-1.7422,-1.7636,-1.7729,-1.7709,-1.7695,-1.7675,-1.7635,-1.7589,-1.7589,-1.7589,-1.6611,-1.5417,-1.3857,-1.2566,-1.1177,-0.9389,-0.896,-0.8902,-0.894,-0.8937,-0.8954,-0.8947,-0.8937,-0.8937,-0.8937,-0.8937,-0.8937,-0.8937,-0.8937,-0.8937,-0.8937,-0.8892,-0.8939,-1.6856,-1.9366,-1.9424,-1.9424,-1.9424,-1.9424,-1.9424,-1.9424,-1.9424,-1.9424,-1.9424,-1.9468,-1.9263,-1.8911,-1.868,-1.833,-1.7975,-1.7722,-1.7609,-1.7589,-1.7589,-1.7589,-1.7589,-1.7589,-1.7589,-1.7589,-1.7589,-1.7589,-1.7589,-1.7793,-1.8454,-2.0084,-2.1194,-2.2408,-2.3434,-2.4254,-2.4962,-2.5577,-2.5684,-2.5684,-2.5684,-2.5684,-2.5684,-2.5586,-2.5274,-2.4559,-2.3384,-2.2626,-2.1912,-2.1651,-2.1862,-2.1811,-2.1151,-2.0778,-1.9606,-1.6938,-1.4917,-1.3425,-1.2151,-1.2704,-1.4198,-1.579,-1.7396,-1.9243,-1.9366,-1.9424,-1.9424,-1.9424,-1.9424,-1.9424,-1.9424,-1.9424,-1.9403,-1.8326,-1.646,-1.5295,-1.4061,-1.255,-1.2081,-1.3476,-1.4961,-1.6466,-1.7466,-1.7781,-1.7883,-1.7842,-1.7809,-1.7729,-1.7669,-1.7549,-1.7543,-1.7475,-1.6429,-1.5146,-1.3614,-1.2105,-1.0594,-0.9602,-0.9175,-0.9008,-0.9015,-0.9001,-0.9001,-0.8984,-0.8944,-0.8937,-0.8937,-0.8937,-0.8937,-0.8937,-0.8937,-0.8937,-0.8885,-0.8905,-0.9003,-1.7864,-1.9424,-1.9424,-1.9424,-1.9424,-1.9424,-1.9424,-1.9591,-1.9482,-1.9424,-1.9424,-1.941,-1.9212,-1.8931,-1.8644,-1.8343,-1.7995,-1.7729,-1.7615,-1.7589,-1.7589,-1.7589,-1.7589,-1.7589,-1.7589,-1.7589,-1.7589,-1.7589,-1.7589,-1.7641,-1.9161,-2.1245,-2.1194,-2.2357,-2.3534,-2.4452,-2.4922,-2.543,-2.5577,-2.5684,-2.5684,-2.5684,-2.5645,-2.5333,-2.4452,-2.3226,-2.1853,-2.0896,-2.0135,-1.9826,-2.029,-2.0187,-1.9878,-2.0025,-1.8757,-1.7083,-1.6048,-1.4907,-1.4499,-1.3707,-1.4198,-1.6374,-1.8227,-1.9424,-1.9424,-1.9424,-1.9424,-1.9424,-1.9424,-1.9424,-1.9424,-1.9424,-1.9366,-1.8137,-1.6417,-1.4874,-1.3722,-1.2687,-1.2516,-1.3781,-1.521,-1.6739,-1.7886,-1.83,-1.823,-1.8183,-1.7483,-1.7409,-1.7412,-1.7351,-1.7402,-1.7152,-1.6169,-1.492,-1.3415,-1.1904,-1.0281,-0.9645,-0.9301,-0.9157,-0.9187,-0.9106,-0.9059,-0.8981,-0.8937,-0.8937,-0.8937,-0.8937,-0.8937,-0.8937,-0.894,-0.8954,-0.9018,-0.9079,-0.9191,-1.7929,-1.9366,-1.9424,-1.9424,-1.9424,-1.9424,-1.9924,-2.0479,-1.9809,-1.9424,-1.9424,-1.9417,-1.9363,-1.9092,-1.8698,-1.8444,-1.825,-1.7782,-1.7642,-1.7589,-1.7589,-1.7589,-1.7589,-1.7589,-1.7589,-1.7589,-1.7589,-1.7589,-1.7589,-1.7589,-1.8603,-1.9878,-2.0436,-2.1904,-2.3176,-2.4088,-2.4402,-2.4864,-2.5274,-2.5684,-2.5684,-2.5635,-2.5333,-2.4412,-2.4196,-2.2466,-2.0743,-1.9981,-1.922,-1.8812,-1.9169,-1.9027,-1.8795,-1.9146,-1.8636,-1.7271,-1.666,-1.6515,-1.6821,-1.594,-1.6309,-1.7806,-1.9062,-1.9307,-1.9127,-1.9366,-1.9424,-1.9424,-1.9366,-1.9424,-1.9366,-1.9307,-1.9004,-1.7747,-1.6234,-1.4587,-1.3582,-1.2727,-1.3011,-1.4384,-1.5681,-1.7063,-1.802,-1.8925,-1.8718,-1.8482,-1.7706,-1.7074,-1.7073,-1.668,-1.649,-1.5931,-1.4888,-1.3998,-1.2548,-1.1233,-0.9926,-0.967,-0.9415,-0.9374,-0.9323,-0.9214,-0.9156,-0.9011,-0.894,-0.8937,-0.8937,-0.8937,-0.8937,-0.8937,-0.8957,-0.8981,-0.9069,-0.9231,-0.9313,-1.8344,-1.9366,-1.9424,-1.9424,-1.9424,-1.9424,-1.9982,-2.0651,-1.9815,-1.9424,-1.9424,-1.9424,-1.9424,-1.9263,-1.8771,-1.8497,-1.8303,-1.7903,-1.7655,-1.7589,-1.7589,-1.7589,-1.7589,-1.7589,-1.7589,-1.7589,-1.7589,-1.7589,-1.7589,-1.7589,-1.8506,-1.922,-1.9324,-2.0487,-2.1811,-2.2968,-2.3434,-2.4402,-2.5069,-2.5684,-2.5684,-2.5635,-2.5069,-2.3899,-2.3335,-2.1963,-2.0187,-1.922,-1.8499,-1.8244,-1.8311,-1.8464,-1.8355,-1.8393,-1.8726,-1.8203,-1.7693,-1.7641,-1.832,-1.85,-1.7987,-1.8286,-1.912,-1.8765,-1.8409,-1.8706,-1.9243,-1.8583,-1.8939,-1.9243,-1.901,-1.8881,-1.8583,-1.7443,-1.5849,-1.4331,-1.4064,-1.3523,-1.4128,-1.4993,-1.6217,-1.7332,-1.8301,-1.9094,-1.8893,-1.8507,-1.7697,-1.7038,-1.6746,-1.6086,-1.4912,-1.423,-1.3264,-1.2381,-1.1507,-1.0563,-0.9787,-0.9731,-0.9496,-0.9466,-0.9401,-0.9347,-0.9224,-0.9135,-0.9011,-0.896,-0.8885,-0.8892,-0.8888,-0.8937,-0.8964,-0.8991,-0.9113,-0.9228,-0.9391,-1.9249,-1.9424,-1.9424,-1.9424,-1.9424,-1.9424,-1.954,-1.9924,-1.97,-1.9533,-1.9424,-1.9424,-1.9424,-1.9296,-1.8791,-1.8557,-1.837,-1.7909,-1.7615,-1.7595,-1.7589,-1.7589,-1.7589,-1.7589,-1.7589,-1.7589,-1.7589,-1.7589,-1.7589,-1.7589,-1.8401,-1.876,-1.8551,-1.8864,-1.9834,-2.1143,-2.3076,-2.5226,-2.5635,-2.5684,-2.5684,-2.5528,-2.4658,-2.3484,-2.2265,-2.0845,-1.9472,-1.8454,-1.7891,-1.7838,-1.7793,-1.796,-1.8084,-1.8064,-1.8394,-1.8688,-1.8712,-1.8854,-1.919,-1.9229,-1.8467,-1.7566,-1.8163,-1.7747,-1.6326,-1.7038,-1.8344,-1.7214,-1.8169,-1.8227,-1.8227,-1.8163,-1.78,-1.6615,-1.4896,-1.4242,-1.3975,-1.4672,-1.5269,-1.5887,-1.6663,-1.7541,-1.8558,-1.9223,-1.8978,-1.8468,-1.7658,-1.6979,-1.6138,-1.4784,-1.3179,-1.2637,-1.1724,-1.1479,-1.0782,-1.0185,-0.9637,-0.9629,-0.9632,-0.9595,-0.954,-0.9442,-0.9317,-0.9228,-0.9113,-0.9083,-0.8959,-0.8902,-0.8962,-0.9076,-0.8991,-0.9018,-0.9144,-0.9296,-0.9473,-1.846,-1.9366,-1.9424,-1.9424,-1.9424,-1.9424,-1.9931,-2.0752,-2.0809,-2.0314,-1.9533,-1.9424,-1.9424,-1.929,-1.8978,-1.8657,-1.8417,-1.8136,-1.7836,-1.7589,-1.7589,-1.7589,-1.7589,-1.7589,-1.7589,-1.7589,-1.7589,-1.7589,-1.7589,-1.7589,-1.774,-1.7989,-1.8094,-1.8961,-2.0538,-2.1803,-2.3026,-2.5167,-2.5684,-2.5684,-2.5577,-2.4815,-2.3791,-2.2466,-2.1049,-1.9782,-1.8558,-1.7786,-1.7635,-1.7589,-1.7589,-1.7749,-1.7955,-1.8022,-1.8343,-1.8791,-1.8881,-1.8473,-1.8139,-1.7741,-1.7566,-1.7032,-1.6497,-1.6438,-1.6256,-1.5849,-1.5908,-1.5967,-1.6915,-1.6738,-1.6085,-1.6973,-1.6609,-1.4589,-1.3347,-1.3531,-1.3756,-1.5295,-1.6345,-1.6926,-1.7624,-1.7501,-1.804,-1.8104,-1.7929,-1.6862,-1.579,-1.4891,-1.401,-1.241,-1.0891,-1.0845,-1.0435,-1.0424,-1.0133,-0.9838,-0.9683,-0.972,-0.9724,-0.9703,-0.9642,-0.9564,-0.9418,-0.9256,-0.9232,-0.9208,-0.9147,-0.912,-0.9205,-0.9228,-0.9157,-0.9154,-0.9283,-0.9432,-0.9588,-1.7923,-1.9366,-1.9424,-1.9424,-1.9424,-1.9424,-1.9982,-2.0759,-2.0809,-2.0263,-1.9533,-1.9424,-1.9424,-1.9336,-1.9058,-1.8764,-1.8477,-1.8176,-1.7876,-1.7615,-1.7589,-1.7589,-1.7589,-1.7589,-1.7589,-1.7589,-1.7589,-1.7589,-1.7589,-1.7589,-1.7687,-1.7687,-1.7687,-1.922,-2.0786,-2.1954,-2.3026,-2.4962,-2.5684,-2.5382,-2.4913,-2.4038,-2.2868,-2.1347,-2.0025,-1.9013,-1.8048,-1.7589,-1.7589,-1.7589,-1.7635,-1.7796,-1.805,-1.8209,-1.8504,-1.8885,-1.8984,-1.8063,-1.6751,-1.6203,-1.5843,-1.5069,-1.4658,-1.454,-1.4945,-1.454,-1.4307,-1.454,-1.5365,-1.495,-1.4361,-1.5424,-1.5009,-1.3048,-1.3108,-1.3352,-1.3885,-1.5429,-1.6374,-1.7091,-1.7566,-1.7443,-1.7144,-1.685,-1.6674,-1.5192,-1.377,-1.2933,-1.2213,-1.0899,-0.9819,-0.9845,-0.9821,-0.9981,-0.9971,-0.9851,-0.9764,-0.9812,-0.9798,-0.9768,-0.9724,-0.9639,-0.9486,-0.9361,-0.9334,-0.931,-0.9286,-0.9293,-0.934,-0.9371,-0.9354,-0.9381,-0.9452,-0.9554,-0.9676,-1.7864,-1.9307,-1.9424,-1.9424,-1.9424,-1.9424,-1.9482,-1.9482,-1.9482,-1.9482,-1.9424,-1.9424,-1.9424,-1.9312,-1.9072,-1.8791,-1.851,-1.821,-1.7903,-1.7669,-1.7589,-1.7589,-1.7589,-1.7589,-1.7589,-1.7589,-1.7589,-1.7589,-1.7589,-1.7589,-1.7589,-1.7589,-1.7589,-1.9317,-2.0837,-2.1946,-2.3226,-2.4962,-2.5323,-2.4864,-2.4146,-2.3285,-2.1862,-2.0385,-1.9369,-1.8655,-1.7943,-1.7589,-1.7589,-1.7589,-1.7595,-1.7963,-1.8257,-1.8477,-1.8858,-1.9223,-1.9325,-1.767,-1.5542,-1.502,-1.3765,-1.3108,-1.3467,-1.2333,-1.2093,-1.2813,-1.2693,-1.2873,-1.3467,-1.2988,-1.2693,-1.3287,-1.3765,-1.3352,-1.3412,-1.371,-1.4063,-1.5015,-1.5838,-1.6492,-1.6968,-1.6968,-1.6492,-1.6074,-1.4945,-1.3343,-1.2157,-1.2037,-1.1318,-1.0717,-0.9879,-0.9819,-0.9802,-0.9808,-0.9802,-0.9785,-0.9791,-0.9819,-0.9819,-0.9795,-0.9754,-0.9713,-0.9605,-0.9503,-0.9442,-0.9425,-0.9462,-0.9456,-0.9442,-0.9469,-0.9527,-0.9513,-0.9557,-0.9605,-0.9703,-1.6921,-1.9366,-1.9424,-1.9424,-1.9424,-1.9424,-1.9424,-1.9424,-1.9424,-1.9424,-1.9424,-1.9424,-1.9424,-1.941,-1.9323,-1.8931,-1.8624,-1.8343,-1.8009,-1.7782,-1.7602,-1.7589,-1.7589,-1.7589,-1.7589,-1.7589,-1.7589,-1.7589,-1.7589,-1.7589,-1.7589,-1.7589,-1.7589,-1.9265,-2.0786,-2.1693,-2.3484,-2.4756,-2.4864,-2.4146,-2.3085,-2.2013,-2.0597,-1.9627,-1.8655,-1.8048,-1.774,-1.7589,-1.7589,-1.7589,-1.7589,-1.7883,-1.8424,-1.8517,-1.8744,-1.9323,-1.912,-1.8052,-1.5316,-1.4545,-1.3471,-1.1318,-1.1197,-1.1679,-1.1318,-1.1318,-1.1261,-1.1559,-1.1976,-1.1796,-1.1555,-1.1856,-1.2037,-1.1976,-1.2273,-1.2993,-1.3526,-1.4718,-1.5542,-1.6197,-1.6615,-1.6197,-1.572,-1.4411,-1.3163,-1.1434,-1.06,-1.0778,-1.0717,-1.024,-0.9879,-0.9819,-0.9819,-0.9819,-0.9819,-0.9805,-0.9812,-0.9819,-0.9819,-0.9819,-0.9798,-0.9758,-0.9703,-0.9646,-0.9574,-0.9618,-0.97,-0.9666,-0.9602,-0.9669,-0.972,-0.968,-0.9663,-0.97,-0.973,-1.6503,-1.9243,-1.9424,-1.9424,-1.9424,-1.9424,-1.9424,-1.9424,-1.9424,-1.9424,-1.9424,-1.9424,-1.9424,-1.9424,-1.939,-1.9112,-1.8691,-1.8504,-1.821,-1.7883,-1.7629,-1.7595,-1.7589,-1.7589,-1.7589,-1.7589,-1.7589,-1.7589,-1.7589,-1.7589,-1.7589,-1.7589,-1.7589,-1.9265,-2.088,-2.1895,-2.3226,-2.4304,-2.4559,-2.3592,-2.2274,-2.0751,-1.9731,-1.876,-1.7898,-1.774,-1.7589,-1.7589,-1.7589,-1.7589,-1.7589,-1.7876,-1.8444,-1.8691,-1.8898,-1.9287,-1.8525,-1.7155,-1.4955,-1.383,-1.2217,-1.066,-0.9819,-1.0301,-1.0539,-1.0479,-1.0301,-1.024,-1.0717,-1.0955,-1.0717,-1.0479,-1.024,-1.0061,-1.0899,-1.1856,-1.3048,-1.4416,-1.5187,-1.5902,-1.5843,-1.5365,-1.4411,-1.2984,-1.1736,-1.0657,-1.0361,-1.0721,-1.066,-1.0358,-1.0001,-0.9819,-0.9819,-0.9819,-0.9819,-0.9819,-0.9819,-0.9819,-0.9819,-0.9819,-0.9819,-0.9805,-0.9761,-0.9734,-0.9703,-0.9747,-0.9781,-0.9798,-0.9774,-0.9819,-0.9819,-0.9771,-0.9737,-0.9758,-0.9788,-1.6503,-1.9424,-1.9424,-1.9424,-1.9424,-1.9424,-1.9424,-1.9424,-1.9424,-1.9424,-1.9424,-1.9424,-1.9424,-1.9424,-1.941,-1.9145,-1.8798,-1.8557,-1.8263,-1.7942,-1.7695,-1.7589,-1.7589,-1.7589,-1.7589,-1.7589,-1.7589,-1.7589,-1.7589,-1.7589,-1.7589,-1.7589,-1.7589,-1.9013,-2.1296,-2.1245,-2.2466,-2.4353,-2.3692,-2.2425,-2.16,-2.0282,-1.8864,-1.7943,-1.7641,-1.7589,-1.7589,-1.7589,-1.7589,-1.7589,-1.7662,-1.7896,-1.843,-1.8991,-1.931,-1.8745,-1.7864,-1.6144,-1.4658,-1.3531,-1.1916,-1.066,-0.994,-1.0119,-1.024,-1.0061,-0.9819,-0.9819,-1.0301,-1.0358,-1.0179,-1.0119,-0.994,-1.0001,-1.0539,-1.0899,-1.1378,-1.2868,-1.4297,-1.4831,-1.4891,-1.4356,-1.3343,-1.1976,-1.1137,-1.0119,-0.994,-1.0482,-1.0721,-1.0539,-1.0358,-1.0061,-0.9819,-0.9819,-0.9819,-0.9819,-0.9819,-0.9819,-0.9819,-0.9819,-0.9819,-0.9819,-0.9819,-0.9788,-0.9761,-0.9785,-0.9815,-0.9819,-0.9819,-0.9819,-0.9819,-0.9819,-0.9819,-0.9812,-0.9815,-1.6503,-1.9366,-1.9424,-1.9424,-1.9424,-1.9424,-1.9424,-1.9424,-1.9424,-1.9424,-1.9424,-1.9424,-1.9424,-1.9424,-1.9424,-1.9132,-1.8698,-1.8551,-1.8163,-1.7876,-1.7622,-1.7589,-1.7589,-1.7589,-1.7589,-1.7589,-1.7589,-1.7589,-1.7589,-1.7589,-1.7589,-1.7589,-1.7687,-1.8961,-2.1253,-2.0845,-2.1558,-2.384,-2.2215,-2.1456,-2.1296,-1.9472,-1.7793,-1.7589,-1.7589,-1.7589,-1.7589,-1.7589,-1.7589,-1.7589,-1.7589,-1.7916,-1.8457,-1.9038,-1.8661,-1.7747,-1.7144,-1.5424,-1.3885,-1.2993,-1.1976,-1.102,-1.0422,-1.0422,-1.0301,-1.0001,-0.9819,-0.9819,-0.9819,-0.9819,-0.9819,-0.9819,-0.9819,-1.0001,-1.0243,-1.0061,-0.9883,-1.1555,-1.3287,-1.3586,-1.376,-1.3108,-1.2153,-1.1318,-1.0422,-1.0001,-0.9819,-1.0179,-1.0842,-1.0959,-1.102,-1.066,-1.0061,-0.994,-0.9819,-0.9819,-0.9819,-0.9819,-0.9819,-0.9819,-0.9819,-0.9819,-0.9819,-0.9819,-0.9812,-0.9819,-0.9819,-0.9819,-0.9819,-0.9819,-0.9819,-0.9819,-0.9819,-0.9815,-0.9819,-1.7097,-1.9307,-1.9424,-1.9424,-1.9424,-1.9424,-1.9424,-1.9424,-1.9424,-1.9424,-1.9424,-1.9424,-1.9424,-1.9424,-1.9424,-1.9253,-1.8796,-1.8551,-1.825,-1.7903,-1.7629,-1.7595,-1.7589,-1.7589,-1.7589,-1.7589,-1.7589,-1.7589,-1.7589,-1.7589,-1.7589,-1.7589,-1.7786,-1.8603,-2.0538,-2.0135,-2.059,-2.2567,-2.0487,-2.0179,-2.0633,-1.8857,-1.7635,-1.7589,-1.7589,-1.7589,-1.7589,-1.7589,-1.7589,-1.7655,-1.7722,-1.8009,-1.847,-1.8898,-1.8365,-1.7289,-1.6138,-1.4831,-1.3168,-1.2217,-1.1976,-1.0899,-1.0422,-1.0179,-1.0061,-0.9819,-0.9819,-0.9819,-0.9819,-0.9819,-0.9819,-0.9819,-0.9819,-0.994,-1.0122,-1.0122,-1.066,-1.1916,-1.2749,-1.2868,-1.2749,-1.2153,-1.1318,-1.06,-0.994,-0.994,-0.9819,-1.0418,-1.102,-1.108,-1.1201,-1.1197,-1.0482,-1.0001,-0.9819,-0.9819,-0.9819,-0.9819,-0.9819,-0.9819,-0.9819,-0.9819,-0.9819,-0.9819,-0.9819,-0.9819,-0.9819,-0.9819,-0.9819,-0.9819,-0.9819,-0.9819,-0.9819,-0.9819,-0.9819,-1.7824,-1.9241,-1.941,-1.9424,-1.9424,-1.9424,-1.9424,-1.9424,-1.9424,-1.9424,-1.9475,-1.9642,-1.9642,-1.97,-1.9686,-1.9398,-1.909,-1.8695,-1.8338,-1.7929,-1.7682,-1.7615,-1.7589,-1.7589,-1.7589,-1.7589,-1.7589,-1.7589,-1.7589,-1.7589,-1.7589,-1.7589,-1.7891,-1.8297,-1.9169,-1.9531,-2.0033,-2.0692,-1.9981,-1.9369,-1.8864,-1.8297,-1.7793,-1.7589,-1.7589,-1.7589,-1.7589,-1.7589,-1.7589,-1.7695,-1.7842,-1.809,-1.8397,-1.8695,-1.8008,-1.7001,-1.5585,-1.4108,-1.2513,-1.1378,-1.0721,-1.0001,-0.994,-1.0001,-0.994,-0.9819,-0.9819,-0.9819,-0.9819,-0.9819,-0.9819,-0.9819,-0.9819,-0.9819,-1.0001,-1.0183,-1.102,-1.1796,-1.1856,-1.1972,-1.1555,-1.1076,-1.06,-0.994,-0.9822,-0.9819,-1.0179,-1.0959,-1.1378,-1.0959,-1.0778,-1.0899,-1.06,-1.0179,-0.9879,-0.9819,-0.9819,-0.9819,-0.9819,-0.9819,-0.9819,-0.9819,-0.9819,-0.9819,-0.9819,-0.9819,-0.9819,-0.9819,-0.9819,-0.9819,-0.9819,-0.9819,-0.9819,-0.9819,-0.9819,-1.7339,-1.9025,-1.9265,-1.9424,-1.9424,-1.9424,-1.9424,-1.9424,-1.9424,-1.9424,-1.97,-2.0702,-2.1194,-2.1202,-2.1194,-2.0874,-2.0219,-1.9325,-1.8266,-1.7695,-1.7682,-1.7648,-1.7589,-1.7589,-1.7589,-1.7589,-1.7589,-1.7589,-1.7589,-1.7589,-1.7589,-1.7589,-1.7589,-1.8146,-1.9117,-1.9117,-1.8708,-1.9272,-1.9013,-1.8251,-1.8146,-1.7793,-1.7687,-1.7589,-1.7589,-1.7589,-1.7589,-1.7589,-1.7589,-1.7682,-1.7849,-1.8029,-1.8215,-1.8453,-1.7893,-1.672,-1.5269,-1.3798,-1.238,-1.1415,-1.0706,-0.9909,-1.0094,-1.06,-1.0361,-0.9819,-0.9819,-0.9819,-0.9819,-0.9819,-0.9819,-0.9819,-0.9819,-0.9819,-0.994,-0.994,-1.0361,-1.0479,-1.0539,-1.0539,-1.0418,-1.024,-1.0179,-0.9819,-0.9819,-0.9819,-0.9819,-1.0539,-1.1318,-1.0899,-1.0358,-1.0418,-1.0539,-1.024,-0.9819,-0.9819,-0.9819,-0.9819,-0.9819,-0.9819,-0.9819,-0.9819,-0.9819,-0.9819,-0.9819,-0.9819,-0.9819,-0.9819,-0.9819,-0.9819,-0.9819,-0.9819,-0.9819,-0.9819,-0.9819]}]]